<?xml version="1.0" encoding="UTF-8" standalone="no" ?>
<gpx xmlns="http://www.topografix.com/GPX/1/1" xmlns:xsi="http://www.w3.org/2001/XMLSchema-instance" xsi:schemaLocation="http://www.topografix.com/GPX/1/1 http://www.topografix.com/GPX/1/1/gpx.xsd" version="1.1" creator="VisuGPX - https://www.visugpx.com">
  <metadata>
    <name>Roquefère 20 11 2013</name>
    <desc><![CDATA[
]]></desc>
  </metadata>
  <trk>
    <name><![CDATA[Roquefère 20 11 2013]]></name>
    <trkseg>
      <trkpt lat="43.37122" lon="2.37742">
        <ele>336.2</ele>
        <time>2013-11-20T09:31:21.090Z</time>
      </trkpt>
      <trkpt lat="43.37129" lon="2.37744">
        <ele>334.3</ele>
        <time>2013-11-20T09:31:55.000Z</time>
      </trkpt>
      <trkpt lat="43.37129" lon="2.37744">
        <ele>334.3</ele>
        <time>2013-11-20T09:31:55.000Z</time>
      </trkpt>
      <trkpt lat="43.37129" lon="2.37744">
        <ele>333.6</ele>
        <time>2013-11-20T09:32:12.000Z</time>
      </trkpt>
      <trkpt lat="43.37129" lon="2.37744">
        <ele>333.6</ele>
        <time>2013-11-20T09:32:12.000Z</time>
      </trkpt>
      <trkpt lat="43.37102" lon="2.37709">
        <ele>330</ele>
        <time>2013-11-20T09:44:28.000Z</time>
      </trkpt>
      <trkpt lat="43.37094" lon="2.37704">
        <ele>337.4</ele>
        <time>2013-11-20T09:44:41.000Z</time>
      </trkpt>
      <trkpt lat="43.3709" lon="2.37695">
        <ele>338.5</ele>
        <time>2013-11-20T09:44:53.000Z</time>
      </trkpt>
      <trkpt lat="43.37092" lon="2.37685">
        <ele>339.1</ele>
        <time>2013-11-20T09:45:1.000Z</time>
      </trkpt>
      <trkpt lat="43.37098" lon="2.37679">
        <ele>340.7</ele>
        <time>2013-11-20T09:45:9.000Z</time>
      </trkpt>
      <trkpt lat="43.37105" lon="2.37672">
        <ele>342.1</ele>
        <time>2013-11-20T09:45:16.000Z</time>
      </trkpt>
      <trkpt lat="43.37114" lon="2.37668">
        <ele>343.1</ele>
        <time>2013-11-20T09:45:21.000Z</time>
      </trkpt>
      <trkpt lat="43.37119" lon="2.37659">
        <ele>345.9</ele>
        <time>2013-11-20T09:45:37.000Z</time>
      </trkpt>
      <trkpt lat="43.37123" lon="2.37648">
        <ele>347.2</ele>
        <time>2013-11-20T09:45:49.000Z</time>
      </trkpt>
      <trkpt lat="43.37127" lon="2.37659">
        <ele>350.9</ele>
        <time>2013-11-20T09:46:24.000Z</time>
      </trkpt>
      <trkpt lat="43.37126" lon="2.37671">
        <ele>351.4</ele>
        <time>2013-11-20T09:46:34.000Z</time>
      </trkpt>
      <trkpt lat="43.37128" lon="2.37682">
        <ele>352.8</ele>
        <time>2013-11-20T09:46:48.000Z</time>
      </trkpt>
      <trkpt lat="43.37133" lon="2.3769">
        <ele>353.3</ele>
        <time>2013-11-20T09:46:57.000Z</time>
      </trkpt>
      <trkpt lat="43.37139" lon="2.37697">
        <ele>354</ele>
        <time>2013-11-20T09:47:5.000Z</time>
      </trkpt>
      <trkpt lat="43.37147" lon="2.37703">
        <ele>354.5</ele>
        <time>2013-11-20T09:47:18.000Z</time>
      </trkpt>
      <trkpt lat="43.37154" lon="2.37711">
        <ele>355.1</ele>
        <time>2013-11-20T09:47:28.000Z</time>
      </trkpt>
      <trkpt lat="43.37158" lon="2.37721">
        <ele>356.3</ele>
        <time>2013-11-20T09:47:38.000Z</time>
      </trkpt>
      <trkpt lat="43.37164" lon="2.3773">
        <ele>357.2</ele>
        <time>2013-11-20T09:47:50.000Z</time>
      </trkpt>
      <trkpt lat="43.37171" lon="2.37739">
        <ele>358.2</ele>
        <time>2013-11-20T09:48:0.000Z</time>
      </trkpt>
      <trkpt lat="43.37178" lon="2.37746">
        <ele>359.4</ele>
        <time>2013-11-20T09:48:10.000Z</time>
      </trkpt>
      <trkpt lat="43.37186" lon="2.37752">
        <ele>361.6</ele>
        <time>2013-11-20T09:48:24.000Z</time>
      </trkpt>
      <trkpt lat="43.37194" lon="2.37757">
        <ele>363.2</ele>
        <time>2013-11-20T09:48:37.000Z</time>
      </trkpt>
      <trkpt lat="43.37202" lon="2.3776">
        <ele>364.5</ele>
        <time>2013-11-20T09:48:50.000Z</time>
      </trkpt>
      <trkpt lat="43.37211" lon="2.37761">
        <ele>364.7</ele>
        <time>2013-11-20T09:49:0.000Z</time>
      </trkpt>
      <trkpt lat="43.37219" lon="2.3776">
        <ele>364.4</ele>
        <time>2013-11-20T09:49:8.000Z</time>
      </trkpt>
      <trkpt lat="43.37226" lon="2.37766">
        <ele>364.1</ele>
        <time>2013-11-20T09:49:17.000Z</time>
      </trkpt>
      <trkpt lat="43.37233" lon="2.37774">
        <ele>364</ele>
        <time>2013-11-20T09:49:22.000Z</time>
      </trkpt>
      <trkpt lat="43.37241" lon="2.37778">
        <ele>363.8</ele>
        <time>2013-11-20T09:49:31.000Z</time>
      </trkpt>
      <trkpt lat="43.37249" lon="2.37778">
        <ele>363.4</ele>
        <time>2013-11-20T09:51:13.000Z</time>
      </trkpt>
      <trkpt lat="43.37257" lon="2.37784">
        <ele>364.2</ele>
        <time>2013-11-20T09:51:26.000Z</time>
      </trkpt>
      <trkpt lat="43.37263" lon="2.37775">
        <ele>367.1</ele>
        <time>2013-11-20T09:51:51.000Z</time>
      </trkpt>
      <trkpt lat="43.37254" lon="2.37771">
        <ele>367.4</ele>
        <time>2013-11-20T09:53:27.000Z</time>
      </trkpt>
      <trkpt lat="43.37251" lon="2.37763">
        <ele>370</ele>
        <time>2013-11-20T09:54:19.000Z</time>
      </trkpt>
      <trkpt lat="43.37248" lon="2.37752">
        <ele>371</ele>
        <time>2013-11-20T09:54:32.000Z</time>
      </trkpt>
      <trkpt lat="43.37242" lon="2.37743">
        <ele>373.6</ele>
        <time>2013-11-20T09:54:53.000Z</time>
      </trkpt>
      <trkpt lat="43.3724" lon="2.37733">
        <ele>377.7</ele>
        <time>2013-11-20T09:55:43.000Z</time>
      </trkpt>
      <trkpt lat="43.37233" lon="2.37726">
        <ele>378.7</ele>
        <time>2013-11-20T09:55:54.000Z</time>
      </trkpt>
      <trkpt lat="43.37229" lon="2.37718">
        <ele>381.2</ele>
        <time>2013-11-20T09:56:11.000Z</time>
      </trkpt>
      <trkpt lat="43.37221" lon="2.37711">
        <ele>383.3</ele>
        <time>2013-11-20T09:56:28.000Z</time>
      </trkpt>
      <trkpt lat="43.37218" lon="2.37701">
        <ele>388.9</ele>
        <time>2013-11-20T09:57:12.000Z</time>
      </trkpt>
      <trkpt lat="43.37214" lon="2.37693">
        <ele>390.2</ele>
        <time>2013-11-20T09:57:25.000Z</time>
      </trkpt>
      <trkpt lat="43.37208" lon="2.37684">
        <ele>392</ele>
        <time>2013-11-20T09:57:43.000Z</time>
      </trkpt>
      <trkpt lat="43.37208" lon="2.37672">
        <ele>394.3</ele>
        <time>2013-11-20T09:58:44.000Z</time>
      </trkpt>
      <trkpt lat="43.37206" lon="2.3766">
        <ele>397.3</ele>
        <time>2013-11-20T09:59:4.000Z</time>
      </trkpt>
      <trkpt lat="43.3721" lon="2.37651">
        <ele>402.3</ele>
        <time>2013-11-20T09:59:42.000Z</time>
      </trkpt>
      <trkpt lat="43.37214" lon="2.3764">
        <ele>405.1</ele>
        <time>2013-11-20T10:00:3.000Z</time>
      </trkpt>
      <trkpt lat="43.37219" lon="2.37631">
        <ele>407.7</ele>
        <time>2013-11-20T10:00:28.000Z</time>
      </trkpt>
      <trkpt lat="43.37223" lon="2.3762">
        <ele>411.3</ele>
        <time>2013-11-20T10:00:50.000Z</time>
      </trkpt>
      <trkpt lat="43.37227" lon="2.37609">
        <ele>414.3</ele>
        <time>2013-11-20T10:01:15.000Z</time>
      </trkpt>
      <trkpt lat="43.3723" lon="2.37599">
        <ele>415.9</ele>
        <time>2013-11-20T10:01:31.000Z</time>
      </trkpt>
      <trkpt lat="43.37235" lon="2.37589">
        <ele>418.8</ele>
        <time>2013-11-20T10:01:52.000Z</time>
      </trkpt>
      <trkpt lat="43.37238" lon="2.37578">
        <ele>420.8</ele>
        <time>2013-11-20T10:02:7.000Z</time>
      </trkpt>
      <trkpt lat="43.37241" lon="2.37567">
        <ele>422</ele>
        <time>2013-11-20T10:02:19.000Z</time>
      </trkpt>
      <trkpt lat="43.37243" lon="2.37555">
        <ele>423.7</ele>
        <time>2013-11-20T10:02:34.000Z</time>
      </trkpt>
      <trkpt lat="43.37244" lon="2.37543">
        <ele>424.6</ele>
        <time>2013-11-20T10:02:46.000Z</time>
      </trkpt>
      <trkpt lat="43.37243" lon="2.37531">
        <ele>426.1</ele>
        <time>2013-11-20T10:02:58.000Z</time>
      </trkpt>
      <trkpt lat="43.37248" lon="2.3752">
        <ele>428.3</ele>
        <time>2013-11-20T10:03:16.000Z</time>
      </trkpt>
      <trkpt lat="43.37255" lon="2.37514">
        <ele>429.9</ele>
        <time>2013-11-20T10:03:33.000Z</time>
      </trkpt>
      <trkpt lat="43.37263" lon="2.37509">
        <ele>431</ele>
        <time>2013-11-20T10:03:46.000Z</time>
      </trkpt>
      <trkpt lat="43.37271" lon="2.37504">
        <ele>432.4</ele>
        <time>2013-11-20T10:03:58.000Z</time>
      </trkpt>
      <trkpt lat="43.37279" lon="2.37501">
        <ele>433.2</ele>
        <time>2013-11-20T10:04:9.000Z</time>
      </trkpt>
      <trkpt lat="43.37286" lon="2.37494">
        <ele>431</ele>
        <time>2013-11-20T10:07:23.000Z</time>
      </trkpt>
      <trkpt lat="43.37295" lon="2.3749">
        <ele>429.6</ele>
        <time>2013-11-20T10:07:33.000Z</time>
      </trkpt>
      <trkpt lat="43.37303" lon="2.37486">
        <ele>429.2</ele>
        <time>2013-11-20T10:07:47.000Z</time>
      </trkpt>
      <trkpt lat="43.3731" lon="2.37481">
        <ele>429.5</ele>
        <time>2013-11-20T10:07:57.000Z</time>
      </trkpt>
      <trkpt lat="43.37318" lon="2.37476">
        <ele>430</ele>
        <time>2013-11-20T10:08:8.000Z</time>
      </trkpt>
      <trkpt lat="43.37323" lon="2.37467">
        <ele>430</ele>
        <time>2013-11-20T10:08:20.000Z</time>
      </trkpt>
      <trkpt lat="43.37331" lon="2.37462">
        <ele>429.8</ele>
        <time>2013-11-20T10:08:30.000Z</time>
      </trkpt>
      <trkpt lat="43.37338" lon="2.37456">
        <ele>429.8</ele>
        <time>2013-11-20T10:08:41.000Z</time>
      </trkpt>
      <trkpt lat="43.37346" lon="2.37451">
        <ele>429.1</ele>
        <time>2013-11-20T10:08:49.000Z</time>
      </trkpt>
      <trkpt lat="43.37354" lon="2.37449">
        <ele>429.1</ele>
        <time>2013-11-20T10:08:58.000Z</time>
      </trkpt>
      <trkpt lat="43.37359" lon="2.37438">
        <ele>430.3</ele>
        <time>2013-11-20T10:09:8.000Z</time>
      </trkpt>
      <trkpt lat="43.37366" lon="2.3743">
        <ele>431.2</ele>
        <time>2013-11-20T10:09:18.000Z</time>
      </trkpt>
      <trkpt lat="43.37373" lon="2.37424">
        <ele>432.6</ele>
        <time>2013-11-20T10:09:28.000Z</time>
      </trkpt>
      <trkpt lat="43.37378" lon="2.37414">
        <ele>434.1</ele>
        <time>2013-11-20T10:09:39.000Z</time>
      </trkpt>
      <trkpt lat="43.37385" lon="2.37407">
        <ele>435.8</ele>
        <time>2013-11-20T10:09:51.000Z</time>
      </trkpt>
      <trkpt lat="43.37392" lon="2.37402">
        <ele>437.1</ele>
        <time>2013-11-20T10:10:1.000Z</time>
      </trkpt>
      <trkpt lat="43.37399" lon="2.37395">
        <ele>438.6</ele>
        <time>2013-11-20T10:10:12.000Z</time>
      </trkpt>
      <trkpt lat="43.37406" lon="2.37386">
        <ele>439.9</ele>
        <time>2013-11-20T10:10:22.000Z</time>
      </trkpt>
      <trkpt lat="43.37411" lon="2.37376">
        <ele>441</ele>
        <time>2013-11-20T10:10:34.000Z</time>
      </trkpt>
      <trkpt lat="43.37418" lon="2.3737">
        <ele>442</ele>
        <time>2013-11-20T10:10:44.000Z</time>
      </trkpt>
      <trkpt lat="43.37424" lon="2.37364">
        <ele>443.6</ele>
        <time>2013-11-20T10:10:54.000Z</time>
      </trkpt>
      <trkpt lat="43.37431" lon="2.37358">
        <ele>444.9</ele>
        <time>2013-11-20T10:11:4.000Z</time>
      </trkpt>
      <trkpt lat="43.37437" lon="2.37349">
        <ele>445.7</ele>
        <time>2013-11-20T10:11:14.000Z</time>
      </trkpt>
      <trkpt lat="43.37441" lon="2.37339">
        <ele>446.6</ele>
        <time>2013-11-20T10:11:26.000Z</time>
      </trkpt>
      <trkpt lat="43.37447" lon="2.3733">
        <ele>446.7</ele>
        <time>2013-11-20T10:11:34.000Z</time>
      </trkpt>
      <trkpt lat="43.37452" lon="2.37322">
        <ele>447.5</ele>
        <time>2013-11-20T10:11:43.000Z</time>
      </trkpt>
      <trkpt lat="43.37457" lon="2.37313">
        <ele>448.5</ele>
        <time>2013-11-20T10:11:52.000Z</time>
      </trkpt>
      <trkpt lat="43.37464" lon="2.37304">
        <ele>450</ele>
        <time>2013-11-20T10:12:3.000Z</time>
      </trkpt>
      <trkpt lat="43.3747" lon="2.37297">
        <ele>451.2</ele>
        <time>2013-11-20T10:12:13.000Z</time>
      </trkpt>
      <trkpt lat="43.37475" lon="2.37288">
        <ele>451.8</ele>
        <time>2013-11-20T10:12:22.000Z</time>
      </trkpt>
      <trkpt lat="43.37481" lon="2.37279">
        <ele>452.7</ele>
        <time>2013-11-20T10:12:32.000Z</time>
      </trkpt>
      <trkpt lat="43.37484" lon="2.37269">
        <ele>453.8</ele>
        <time>2013-11-20T10:12:40.000Z</time>
      </trkpt>
      <trkpt lat="43.3749" lon="2.37261">
        <ele>455.2</ele>
        <time>2013-11-20T10:12:50.000Z</time>
      </trkpt>
      <trkpt lat="43.37497" lon="2.37254">
        <ele>457.4</ele>
        <time>2013-11-20T10:13:0.000Z</time>
      </trkpt>
      <trkpt lat="43.37501" lon="2.37244">
        <ele>459.7</ele>
        <time>2013-11-20T10:13:14.000Z</time>
      </trkpt>
      <trkpt lat="43.37509" lon="2.37238">
        <ele>461.5</ele>
        <time>2013-11-20T10:13:30.000Z</time>
      </trkpt>
      <trkpt lat="43.37514" lon="2.37228">
        <ele>464.4</ele>
        <time>2013-11-20T10:13:50.000Z</time>
      </trkpt>
      <trkpt lat="43.37519" lon="2.37218">
        <ele>467.2</ele>
        <time>2013-11-20T10:14:7.000Z</time>
      </trkpt>
      <trkpt lat="43.37523" lon="2.37207">
        <ele>469.1</ele>
        <time>2013-11-20T10:14:22.000Z</time>
      </trkpt>
      <trkpt lat="43.37527" lon="2.37197">
        <ele>470.5</ele>
        <time>2013-11-20T10:14:35.000Z</time>
      </trkpt>
      <trkpt lat="43.37532" lon="2.37187">
        <ele>472</ele>
        <time>2013-11-20T10:14:49.000Z</time>
      </trkpt>
      <trkpt lat="43.37537" lon="2.37178">
        <ele>472.9</ele>
        <time>2013-11-20T10:14:58.000Z</time>
      </trkpt>
      <trkpt lat="43.37543" lon="2.37168">
        <ele>474.1</ele>
        <time>2013-11-20T10:15:8.000Z</time>
      </trkpt>
      <trkpt lat="43.37549" lon="2.3716">
        <ele>476.8</ele>
        <time>2013-11-20T10:15:24.000Z</time>
      </trkpt>
      <trkpt lat="43.37557" lon="2.37155">
        <ele>478.5</ele>
        <time>2013-11-20T10:15:39.000Z</time>
      </trkpt>
      <trkpt lat="43.37566" lon="2.37153">
        <ele>480.9</ele>
        <time>2013-11-20T10:16:51.000Z</time>
      </trkpt>
      <trkpt lat="43.37573" lon="2.37147">
        <ele>482.7</ele>
        <time>2013-11-20T10:17:2.000Z</time>
      </trkpt>
      <trkpt lat="43.3758" lon="2.3714">
        <ele>484.8</ele>
        <time>2013-11-20T10:17:16.000Z</time>
      </trkpt>
      <trkpt lat="43.37588" lon="2.37135">
        <ele>488</ele>
        <time>2013-11-20T10:17:35.000Z</time>
      </trkpt>
      <trkpt lat="43.37594" lon="2.37127">
        <ele>490.2</ele>
        <time>2013-11-20T10:17:50.000Z</time>
      </trkpt>
      <trkpt lat="43.37601" lon="2.37119">
        <ele>491.7</ele>
        <time>2013-11-20T10:18:1.000Z</time>
      </trkpt>
      <trkpt lat="43.37607" lon="2.37112">
        <ele>492.6</ele>
        <time>2013-11-20T10:18:11.000Z</time>
      </trkpt>
      <trkpt lat="43.37611" lon="2.37102">
        <ele>495.7</ele>
        <time>2013-11-20T10:18:30.000Z</time>
      </trkpt>
      <trkpt lat="43.37616" lon="2.37093">
        <ele>497.8</ele>
        <time>2013-11-20T10:18:45.000Z</time>
      </trkpt>
      <trkpt lat="43.37624" lon="2.37089">
        <ele>500</ele>
        <time>2013-11-20T10:19:14.000Z</time>
      </trkpt>
      <trkpt lat="43.37631" lon="2.37081">
        <ele>502.1</ele>
        <time>2013-11-20T10:19:28.000Z</time>
      </trkpt>
      <trkpt lat="43.37636" lon="2.37076">
        <ele>504.9</ele>
        <time>2013-11-20T10:19:51.000Z</time>
      </trkpt>
      <trkpt lat="43.37643" lon="2.37071">
        <ele>505.8</ele>
        <time>2013-11-20T10:19:56.000Z</time>
      </trkpt>
      <trkpt lat="43.37651" lon="2.37067">
        <ele>506.2</ele>
        <time>2013-11-20T10:20:6.000Z</time>
      </trkpt>
      <trkpt lat="43.3766" lon="2.37066">
        <ele>506.4</ele>
        <time>2013-11-20T10:20:18.000Z</time>
      </trkpt>
      <trkpt lat="43.37668" lon="2.37061">
        <ele>507.7</ele>
        <time>2013-11-20T10:20:33.000Z</time>
      </trkpt>
      <trkpt lat="43.37675" lon="2.37055">
        <ele>509</ele>
        <time>2013-11-20T10:20:46.000Z</time>
      </trkpt>
      <trkpt lat="43.3768" lon="2.37046">
        <ele>507.6</ele>
        <time>2013-11-20T10:21:2.000Z</time>
      </trkpt>
      <trkpt lat="43.37688" lon="2.37043">
        <ele>507.7</ele>
        <time>2013-11-20T10:21:9.000Z</time>
      </trkpt>
      <trkpt lat="43.37697" lon="2.37042">
        <ele>506.9</ele>
        <time>2013-11-20T10:21:20.000Z</time>
      </trkpt>
      <trkpt lat="43.37705" lon="2.37041">
        <ele>506.1</ele>
        <time>2013-11-20T10:21:31.000Z</time>
      </trkpt>
      <trkpt lat="43.37714" lon="2.3704">
        <ele>506.7</ele>
        <time>2013-11-20T10:21:39.000Z</time>
      </trkpt>
      <trkpt lat="43.37722" lon="2.3704">
        <ele>507.9</ele>
        <time>2013-11-20T10:21:50.000Z</time>
      </trkpt>
      <trkpt lat="43.3773" lon="2.37045">
        <ele>510.8</ele>
        <time>2013-11-20T10:22:5.000Z</time>
      </trkpt>
      <trkpt lat="43.37738" lon="2.3705">
        <ele>513.3</ele>
        <time>2013-11-20T10:22:16.000Z</time>
      </trkpt>
      <trkpt lat="43.37746" lon="2.37051">
        <ele>515.4</ele>
        <time>2013-11-20T10:22:32.000Z</time>
      </trkpt>
      <trkpt lat="43.37755" lon="2.37055">
        <ele>516.9</ele>
        <time>2013-11-20T10:22:45.000Z</time>
      </trkpt>
      <trkpt lat="43.37763" lon="2.37053">
        <ele>518.4</ele>
        <time>2013-11-20T10:23:3.000Z</time>
      </trkpt>
      <trkpt lat="43.37772" lon="2.37055">
        <ele>519.6</ele>
        <time>2013-11-20T10:23:14.000Z</time>
      </trkpt>
      <trkpt lat="43.37781" lon="2.37055">
        <ele>520.6</ele>
        <time>2013-11-20T10:23:29.000Z</time>
      </trkpt>
      <trkpt lat="43.37782" lon="2.37055">
        <ele>522.7</ele>
        <time>2013-11-20T10:23:45.000Z</time>
      </trkpt>
      <trkpt lat="43.3779" lon="2.37062">
        <ele>522.7</ele>
        <time>2013-11-20T10:23:46.000Z</time>
      </trkpt>
      <trkpt lat="43.37798" lon="2.37062">
        <ele>525.8</ele>
        <time>2013-11-20T10:24:4.000Z</time>
      </trkpt>
      <trkpt lat="43.37807" lon="2.37064">
        <ele>529.1</ele>
        <time>2013-11-20T10:24:23.000Z</time>
      </trkpt>
      <trkpt lat="43.37813" lon="2.37065">
        <ele>530.9</ele>
        <time>2013-11-20T10:24:41.000Z</time>
      </trkpt>
      <trkpt lat="43.37821" lon="2.37069">
        <ele>535.2</ele>
        <time>2013-11-20T10:27:6.000Z</time>
      </trkpt>
      <trkpt lat="43.37828" lon="2.37074">
        <ele>538.6</ele>
        <time>2013-11-20T10:27:28.000Z</time>
      </trkpt>
      <trkpt lat="43.37829" lon="2.37089">
        <ele>543</ele>
        <time>2013-11-20T10:28:26.000Z</time>
      </trkpt>
      <trkpt lat="43.37823" lon="2.37096">
        <ele>545.2</ele>
        <time>2013-11-20T10:28:46.000Z</time>
      </trkpt>
      <trkpt lat="43.37831" lon="2.37098">
        <ele>547</ele>
        <time>2013-11-20T10:29:6.000Z</time>
      </trkpt>
      <trkpt lat="43.37838" lon="2.37102">
        <ele>547.2</ele>
        <time>2013-11-20T10:29:19.000Z</time>
      </trkpt>
      <trkpt lat="43.37862" lon="2.37101">
        <ele>553</ele>
        <time>2013-11-20T10:30:28.000Z</time>
      </trkpt>
      <trkpt lat="43.37871" lon="2.371">
        <ele>554.9</ele>
        <time>2013-11-20T10:30:51.000Z</time>
      </trkpt>
      <trkpt lat="43.37866" lon="2.37109">
        <ele>555.7</ele>
        <time>2013-11-20T10:31:6.000Z</time>
      </trkpt>
      <trkpt lat="43.37858" lon="2.37114">
        <ele>556.9</ele>
        <time>2013-11-20T10:31:20.000Z</time>
      </trkpt>
      <trkpt lat="43.37852" lon="2.37123">
        <ele>558.2</ele>
        <time>2013-11-20T10:31:34.000Z</time>
      </trkpt>
      <trkpt lat="43.37843" lon="2.37125">
        <ele>558.4</ele>
        <time>2013-11-20T10:31:46.000Z</time>
      </trkpt>
      <trkpt lat="43.37851" lon="2.37129">
        <ele>562.1</ele>
        <time>2013-11-20T10:33:7.000Z</time>
      </trkpt>
      <trkpt lat="43.3785" lon="2.37141">
        <ele>557.9</ele>
        <time>2013-11-20T10:33:27.000Z</time>
      </trkpt>
      <trkpt lat="43.37845" lon="2.37151">
        <ele>559.5</ele>
        <time>2013-11-20T10:33:42.000Z</time>
      </trkpt>
      <trkpt lat="43.37838" lon="2.37158">
        <ele>561.1</ele>
        <time>2013-11-20T10:33:52.000Z</time>
      </trkpt>
      <trkpt lat="43.37846" lon="2.37156">
        <ele>565.4</ele>
        <time>2013-11-20T10:34:44.000Z</time>
      </trkpt>
      <trkpt lat="43.37855" lon="2.37155">
        <ele>565.4</ele>
        <time>2013-11-20T10:34:54.000Z</time>
      </trkpt>
      <trkpt lat="43.37864" lon="2.37152">
        <ele>567.6</ele>
        <time>2013-11-20T10:35:6.000Z</time>
      </trkpt>
      <trkpt lat="43.37872" lon="2.37153">
        <ele>570.9</ele>
        <time>2013-11-20T10:35:22.000Z</time>
      </trkpt>
      <trkpt lat="43.37881" lon="2.37154">
        <ele>572.7</ele>
        <time>2013-11-20T10:35:38.000Z</time>
      </trkpt>
      <trkpt lat="43.3789" lon="2.37155">
        <ele>574.8</ele>
        <time>2013-11-20T10:35:55.000Z</time>
      </trkpt>
      <trkpt lat="43.37895" lon="2.37154">
        <ele>577.2</ele>
        <time>2013-11-20T10:36:22.000Z</time>
      </trkpt>
      <trkpt lat="43.37904" lon="2.37159">
        <ele>577.9</ele>
        <time>2013-11-20T10:36:32.000Z</time>
      </trkpt>
      <trkpt lat="43.37912" lon="2.3716">
        <ele>579.9</ele>
        <time>2013-11-20T10:37:8.000Z</time>
      </trkpt>
      <trkpt lat="43.3792" lon="2.37164">
        <ele>580.1</ele>
        <time>2013-11-20T10:37:9.000Z</time>
      </trkpt>
      <trkpt lat="43.37913" lon="2.3717">
        <ele>581.5</ele>
        <time>2013-11-20T10:37:38.000Z</time>
      </trkpt>
      <trkpt lat="43.37904" lon="2.37171">
        <ele>581.1</ele>
        <time>2013-11-20T10:37:50.000Z</time>
      </trkpt>
      <trkpt lat="43.37896" lon="2.37173">
        <ele>581.2</ele>
        <time>2013-11-20T10:37:59.000Z</time>
      </trkpt>
      <trkpt lat="43.37889" lon="2.37178">
        <ele>582.4</ele>
        <time>2013-11-20T10:38:10.000Z</time>
      </trkpt>
      <trkpt lat="43.37881" lon="2.37183">
        <ele>583.5</ele>
        <time>2013-11-20T10:38:18.000Z</time>
      </trkpt>
      <trkpt lat="43.37873" lon="2.37187">
        <ele>583.7</ele>
        <time>2013-11-20T10:38:29.000Z</time>
      </trkpt>
      <trkpt lat="43.37865" lon="2.3719">
        <ele>583.7</ele>
        <time>2013-11-20T10:38:38.000Z</time>
      </trkpt>
      <trkpt lat="43.37857" lon="2.37194">
        <ele>582.6</ele>
        <time>2013-11-20T10:38:48.000Z</time>
      </trkpt>
      <trkpt lat="43.37849" lon="2.37199">
        <ele>582.7</ele>
        <time>2013-11-20T10:38:58.000Z</time>
      </trkpt>
      <trkpt lat="43.37841" lon="2.37203">
        <ele>583.2</ele>
        <time>2013-11-20T10:39:9.000Z</time>
      </trkpt>
      <trkpt lat="43.37832" lon="2.37207">
        <ele>583.6</ele>
        <time>2013-11-20T10:39:18.000Z</time>
      </trkpt>
      <trkpt lat="43.37824" lon="2.3721">
        <ele>584.5</ele>
        <time>2013-11-20T10:39:27.000Z</time>
      </trkpt>
      <trkpt lat="43.37816" lon="2.37213">
        <ele>585.2</ele>
        <time>2013-11-20T10:39:37.000Z</time>
      </trkpt>
      <trkpt lat="43.37808" lon="2.37217">
        <ele>586.2</ele>
        <time>2013-11-20T10:39:48.000Z</time>
      </trkpt>
      <trkpt lat="43.378" lon="2.3722">
        <ele>586.1</ele>
        <time>2013-11-20T10:39:58.000Z</time>
      </trkpt>
      <trkpt lat="43.37792" lon="2.37223">
        <ele>586.8</ele>
        <time>2013-11-20T10:40:10.000Z</time>
      </trkpt>
      <trkpt lat="43.37784" lon="2.37228">
        <ele>587.9</ele>
        <time>2013-11-20T10:40:20.000Z</time>
      </trkpt>
      <trkpt lat="43.37777" lon="2.37234">
        <ele>588.4</ele>
        <time>2013-11-20T10:40:31.000Z</time>
      </trkpt>
      <trkpt lat="43.37771" lon="2.37244">
        <ele>589.4</ele>
        <time>2013-11-20T10:40:46.000Z</time>
      </trkpt>
      <trkpt lat="43.37769" lon="2.37252">
        <ele>589</ele>
        <time>2013-11-20T10:41:22.000Z</time>
      </trkpt>
      <trkpt lat="43.37768" lon="2.37264">
        <ele>589.1</ele>
        <time>2013-11-20T10:41:31.000Z</time>
      </trkpt>
      <trkpt lat="43.37766" lon="2.37275">
        <ele>589.9</ele>
        <time>2013-11-20T10:41:42.000Z</time>
      </trkpt>
      <trkpt lat="43.37767" lon="2.37284">
        <ele>587.3</ele>
        <time>2013-11-20T10:43:24.000Z</time>
      </trkpt>
      <trkpt lat="43.37767" lon="2.37297">
        <ele>587.3</ele>
        <time>2013-11-20T10:43:33.000Z</time>
      </trkpt>
      <trkpt lat="43.37766" lon="2.37309">
        <ele>587.8</ele>
        <time>2013-11-20T10:43:44.000Z</time>
      </trkpt>
      <trkpt lat="43.37767" lon="2.3732">
        <ele>588</ele>
        <time>2013-11-20T10:43:53.000Z</time>
      </trkpt>
      <trkpt lat="43.37767" lon="2.37333">
        <ele>587.6</ele>
        <time>2013-11-20T10:44:4.000Z</time>
      </trkpt>
      <trkpt lat="43.37769" lon="2.37344">
        <ele>587.7</ele>
        <time>2013-11-20T10:44:12.000Z</time>
      </trkpt>
      <trkpt lat="43.37774" lon="2.37354">
        <ele>588.2</ele>
        <time>2013-11-20T10:44:22.000Z</time>
      </trkpt>
      <trkpt lat="43.37781" lon="2.37362">
        <ele>587.8</ele>
        <time>2013-11-20T10:44:32.000Z</time>
      </trkpt>
      <trkpt lat="43.37789" lon="2.37362">
        <ele>587.6</ele>
        <time>2013-11-20T10:44:40.000Z</time>
      </trkpt>
      <trkpt lat="43.37796" lon="2.37366">
        <ele>587.8</ele>
        <time>2013-11-20T10:44:49.000Z</time>
      </trkpt>
      <trkpt lat="43.37804" lon="2.37367">
        <ele>587.4</ele>
        <time>2013-11-20T10:44:56.000Z</time>
      </trkpt>
      <trkpt lat="43.37812" lon="2.37369">
        <ele>587.3</ele>
        <time>2013-11-20T10:45:4.000Z</time>
      </trkpt>
      <trkpt lat="43.37821" lon="2.3737">
        <ele>587</ele>
        <time>2013-11-20T10:45:11.000Z</time>
      </trkpt>
      <trkpt lat="43.37828" lon="2.37378">
        <ele>587.3</ele>
        <time>2013-11-20T10:45:21.000Z</time>
      </trkpt>
      <trkpt lat="43.37833" lon="2.37386">
        <ele>587.5</ele>
        <time>2013-11-20T10:45:28.000Z</time>
      </trkpt>
      <trkpt lat="43.37838" lon="2.37396">
        <ele>586.8</ele>
        <time>2013-11-20T10:45:36.000Z</time>
      </trkpt>
      <trkpt lat="43.37844" lon="2.37403">
        <ele>586.2</ele>
        <time>2013-11-20T10:45:45.000Z</time>
      </trkpt>
      <trkpt lat="43.37851" lon="2.37409">
        <ele>586.6</ele>
        <time>2013-11-20T10:45:54.000Z</time>
      </trkpt>
      <trkpt lat="43.37859" lon="2.37414">
        <ele>586.1</ele>
        <time>2013-11-20T10:46:2.000Z</time>
      </trkpt>
      <trkpt lat="43.37867" lon="2.37418">
        <ele>586.2</ele>
        <time>2013-11-20T10:46:10.000Z</time>
      </trkpt>
      <trkpt lat="43.37873" lon="2.37425">
        <ele>584.7</ele>
        <time>2013-11-20T10:46:19.000Z</time>
      </trkpt>
      <trkpt lat="43.3788" lon="2.37432">
        <ele>583.9</ele>
        <time>2013-11-20T10:46:28.000Z</time>
      </trkpt>
      <trkpt lat="43.37889" lon="2.37437">
        <ele>583.3</ele>
        <time>2013-11-20T10:46:37.000Z</time>
      </trkpt>
      <trkpt lat="43.37897" lon="2.37442">
        <ele>583.6</ele>
        <time>2013-11-20T10:46:46.000Z</time>
      </trkpt>
      <trkpt lat="43.37905" lon="2.37443">
        <ele>583.3</ele>
        <time>2013-11-20T10:46:53.000Z</time>
      </trkpt>
      <trkpt lat="43.37913" lon="2.37448">
        <ele>583</ele>
        <time>2013-11-20T10:47:2.000Z</time>
      </trkpt>
      <trkpt lat="43.3792" lon="2.37453">
        <ele>582.9</ele>
        <time>2013-11-20T10:47:10.000Z</time>
      </trkpt>
      <trkpt lat="43.37927" lon="2.3746">
        <ele>583</ele>
        <time>2013-11-20T10:47:17.000Z</time>
      </trkpt>
      <trkpt lat="43.37933" lon="2.37468">
        <ele>583.3</ele>
        <time>2013-11-20T10:47:25.000Z</time>
      </trkpt>
      <trkpt lat="43.37939" lon="2.37476">
        <ele>583.2</ele>
        <time>2013-11-20T10:47:33.000Z</time>
      </trkpt>
      <trkpt lat="43.37947" lon="2.3748">
        <ele>583.2</ele>
        <time>2013-11-20T10:47:41.000Z</time>
      </trkpt>
      <trkpt lat="43.37954" lon="2.37486">
        <ele>583</ele>
        <time>2013-11-20T10:47:49.000Z</time>
      </trkpt>
      <trkpt lat="43.37962" lon="2.3749">
        <ele>582.7</ele>
        <time>2013-11-20T10:47:57.000Z</time>
      </trkpt>
      <trkpt lat="43.3797" lon="2.37493">
        <ele>581.9</ele>
        <time>2013-11-20T10:48:6.000Z</time>
      </trkpt>
      <trkpt lat="43.37977" lon="2.37499">
        <ele>583.2</ele>
        <time>2013-11-20T10:48:15.000Z</time>
      </trkpt>
      <trkpt lat="43.37985" lon="2.37505">
        <ele>584.2</ele>
        <time>2013-11-20T10:48:24.000Z</time>
      </trkpt>
      <trkpt lat="43.3799" lon="2.37514">
        <ele>584</ele>
        <time>2013-11-20T10:48:37.000Z</time>
      </trkpt>
      <trkpt lat="43.37997" lon="2.37523">
        <ele>583</ele>
        <time>2013-11-20T10:49:0.000Z</time>
      </trkpt>
      <trkpt lat="43.38003" lon="2.37531">
        <ele>582.6</ele>
        <time>2013-11-20T10:49:8.000Z</time>
      </trkpt>
      <trkpt lat="43.3801" lon="2.37538">
        <ele>582.9</ele>
        <time>2013-11-20T10:49:19.000Z</time>
      </trkpt>
      <trkpt lat="43.38016" lon="2.37547">
        <ele>582.5</ele>
        <time>2013-11-20T10:49:29.000Z</time>
      </trkpt>
      <trkpt lat="43.38023" lon="2.37549">
        <ele>582.6</ele>
        <time>2013-11-20T10:49:37.000Z</time>
      </trkpt>
      <trkpt lat="43.38029" lon="2.37556">
        <ele>582.2</ele>
        <time>2013-11-20T10:49:42.000Z</time>
      </trkpt>
      <trkpt lat="43.38036" lon="2.37563">
        <ele>581.2</ele>
        <time>2013-11-20T10:49:53.000Z</time>
      </trkpt>
      <trkpt lat="43.38044" lon="2.37566">
        <ele>580.5</ele>
        <time>2013-11-20T10:50:3.000Z</time>
      </trkpt>
      <trkpt lat="43.3805" lon="2.37575">
        <ele>580.4</ele>
        <time>2013-11-20T10:50:12.000Z</time>
      </trkpt>
      <trkpt lat="43.38057" lon="2.37582">
        <ele>580.2</ele>
        <time>2013-11-20T10:50:20.000Z</time>
      </trkpt>
      <trkpt lat="43.38064" lon="2.37589">
        <ele>580.5</ele>
        <time>2013-11-20T10:50:31.000Z</time>
      </trkpt>
      <trkpt lat="43.38071" lon="2.37596">
        <ele>580.5</ele>
        <time>2013-11-20T10:50:42.000Z</time>
      </trkpt>
      <trkpt lat="43.38079" lon="2.37599">
        <ele>580.2</ele>
        <time>2013-11-20T10:50:49.000Z</time>
      </trkpt>
      <trkpt lat="43.38086" lon="2.37606">
        <ele>579.5</ele>
        <time>2013-11-20T10:50:58.000Z</time>
      </trkpt>
      <trkpt lat="43.38079" lon="2.37613">
        <ele>577.5</ele>
        <time>2013-11-20T10:51:16.000Z</time>
      </trkpt>
      <trkpt lat="43.38075" lon="2.37622">
        <ele>577.3</ele>
        <time>2013-11-20T10:51:25.000Z</time>
      </trkpt>
      <trkpt lat="43.3807" lon="2.37633">
        <ele>577.6</ele>
        <time>2013-11-20T10:51:33.000Z</time>
      </trkpt>
      <trkpt lat="43.38067" lon="2.37643">
        <ele>577.3</ele>
        <time>2013-11-20T10:51:40.000Z</time>
      </trkpt>
      <trkpt lat="43.38063" lon="2.37653">
        <ele>577.5</ele>
        <time>2013-11-20T10:51:46.000Z</time>
      </trkpt>
      <trkpt lat="43.38058" lon="2.37662">
        <ele>577.4</ele>
        <time>2013-11-20T10:51:56.000Z</time>
      </trkpt>
      <trkpt lat="43.38054" lon="2.37673">
        <ele>577.4</ele>
        <time>2013-11-20T10:52:3.000Z</time>
      </trkpt>
      <trkpt lat="43.3805" lon="2.37683">
        <ele>577.4</ele>
        <time>2013-11-20T10:52:11.000Z</time>
      </trkpt>
      <trkpt lat="43.38046" lon="2.37693">
        <ele>577.6</ele>
        <time>2013-11-20T10:52:20.000Z</time>
      </trkpt>
      <trkpt lat="43.38041" lon="2.37703">
        <ele>577.2</ele>
        <time>2013-11-20T10:52:28.000Z</time>
      </trkpt>
      <trkpt lat="43.38037" lon="2.37713">
        <ele>576.7</ele>
        <time>2013-11-20T10:52:37.000Z</time>
      </trkpt>
      <trkpt lat="43.38034" lon="2.37724">
        <ele>576.9</ele>
        <time>2013-11-20T10:52:44.000Z</time>
      </trkpt>
      <trkpt lat="43.38032" lon="2.37735">
        <ele>577.1</ele>
        <time>2013-11-20T10:52:52.000Z</time>
      </trkpt>
      <trkpt lat="43.38027" lon="2.37744">
        <ele>577</ele>
        <time>2013-11-20T10:52:59.000Z</time>
      </trkpt>
      <trkpt lat="43.38024" lon="2.37754">
        <ele>577.9</ele>
        <time>2013-11-20T10:53:5.000Z</time>
      </trkpt>
      <trkpt lat="43.38021" lon="2.37764">
        <ele>578.7</ele>
        <time>2013-11-20T10:53:12.000Z</time>
      </trkpt>
      <trkpt lat="43.38016" lon="2.37773">
        <ele>578.9</ele>
        <time>2013-11-20T10:53:22.000Z</time>
      </trkpt>
      <trkpt lat="43.38013" lon="2.37784">
        <ele>578.6</ele>
        <time>2013-11-20T10:53:30.000Z</time>
      </trkpt>
      <trkpt lat="43.38009" lon="2.37794">
        <ele>578.4</ele>
        <time>2013-11-20T10:53:37.000Z</time>
      </trkpt>
      <trkpt lat="43.38007" lon="2.37804">
        <ele>578.2</ele>
        <time>2013-11-20T10:53:44.000Z</time>
      </trkpt>
      <trkpt lat="43.38003" lon="2.37815">
        <ele>578.1</ele>
        <time>2013-11-20T10:53:52.000Z</time>
      </trkpt>
      <trkpt lat="43.38001" lon="2.37827">
        <ele>578.2</ele>
        <time>2013-11-20T10:54:0.000Z</time>
      </trkpt>
      <trkpt lat="43.38" lon="2.37839">
        <ele>578.1</ele>
        <time>2013-11-20T10:54:8.000Z</time>
      </trkpt>
      <trkpt lat="43.38002" lon="2.3785">
        <ele>578.4</ele>
        <time>2013-11-20T10:54:17.000Z</time>
      </trkpt>
      <trkpt lat="43.38006" lon="2.37861">
        <ele>578.4</ele>
        <time>2013-11-20T10:54:28.000Z</time>
      </trkpt>
      <trkpt lat="43.3801" lon="2.37853">
        <ele>576.5</ele>
        <time>2013-11-20T10:56:15.000Z</time>
      </trkpt>
      <trkpt lat="43.38014" lon="2.37842">
        <ele>577.4</ele>
        <time>2013-11-20T10:56:22.000Z</time>
      </trkpt>
      <trkpt lat="43.38015" lon="2.37831">
        <ele>578.1</ele>
        <time>2013-11-20T10:56:30.000Z</time>
      </trkpt>
      <trkpt lat="43.3802" lon="2.37821">
        <ele>578.2</ele>
        <time>2013-11-20T10:56:40.000Z</time>
      </trkpt>
      <trkpt lat="43.38025" lon="2.37813">
        <ele>576</ele>
        <time>2013-11-20T10:56:52.000Z</time>
      </trkpt>
      <trkpt lat="43.38032" lon="2.37807">
        <ele>579.3</ele>
        <time>2013-11-20T10:57:3.000Z</time>
      </trkpt>
      <trkpt lat="43.38039" lon="2.37798">
        <ele>580.8</ele>
        <time>2013-11-20T10:57:21.000Z</time>
      </trkpt>
      <trkpt lat="43.38046" lon="2.37792">
        <ele>583.2</ele>
        <time>2013-11-20T10:57:48.000Z</time>
      </trkpt>
      <trkpt lat="43.38055" lon="2.3779">
        <ele>583.4</ele>
        <time>2013-11-20T10:57:51.000Z</time>
      </trkpt>
      <trkpt lat="43.38058" lon="2.37789">
        <ele>585.7</ele>
        <time>2013-11-20T10:58:13.000Z</time>
      </trkpt>
      <trkpt lat="43.38066" lon="2.37785">
        <ele>587.6</ele>
        <time>2013-11-20T10:58:27.000Z</time>
      </trkpt>
      <trkpt lat="43.38073" lon="2.37782">
        <ele>590.4</ele>
        <time>2013-11-20T10:58:50.000Z</time>
      </trkpt>
      <trkpt lat="43.38079" lon="2.37779">
        <ele>593.3</ele>
        <time>2013-11-20T10:59:12.000Z</time>
      </trkpt>
      <trkpt lat="43.38086" lon="2.37775">
        <ele>595.6</ele>
        <time>2013-11-20T10:59:24.000Z</time>
      </trkpt>
      <trkpt lat="43.38095" lon="2.37774">
        <ele>596.5</ele>
        <time>2013-11-20T10:59:32.000Z</time>
      </trkpt>
      <trkpt lat="43.381" lon="2.37767">
        <ele>599.3</ele>
        <time>2013-11-20T10:59:55.000Z</time>
      </trkpt>
      <trkpt lat="43.38105" lon="2.37758">
        <ele>599.5</ele>
        <time>2013-11-20T11:00:6.000Z</time>
      </trkpt>
      <trkpt lat="43.3811" lon="2.37747">
        <ele>601.3</ele>
        <time>2013-11-20T11:00:23.000Z</time>
      </trkpt>
      <trkpt lat="43.38115" lon="2.37737">
        <ele>602.5</ele>
        <time>2013-11-20T11:00:38.000Z</time>
      </trkpt>
      <trkpt lat="43.3812" lon="2.37728">
        <ele>602.7</ele>
        <time>2013-11-20T11:00:49.000Z</time>
      </trkpt>
      <trkpt lat="43.38126" lon="2.3772">
        <ele>603.3</ele>
        <time>2013-11-20T11:00:59.000Z</time>
      </trkpt>
      <trkpt lat="43.38131" lon="2.37711">
        <ele>605.2</ele>
        <time>2013-11-20T11:01:16.000Z</time>
      </trkpt>
      <trkpt lat="43.38138" lon="2.37704">
        <ele>606.6</ele>
        <time>2013-11-20T11:01:24.000Z</time>
      </trkpt>
      <trkpt lat="43.38143" lon="2.37694">
        <ele>607.7</ele>
        <time>2013-11-20T11:01:38.000Z</time>
      </trkpt>
      <trkpt lat="43.38148" lon="2.37684">
        <ele>609.6</ele>
        <time>2013-11-20T11:01:58.000Z</time>
      </trkpt>
      <trkpt lat="43.38152" lon="2.37674">
        <ele>610.9</ele>
        <time>2013-11-20T11:02:10.000Z</time>
      </trkpt>
      <trkpt lat="43.38158" lon="2.37666">
        <ele>612.6</ele>
        <time>2013-11-20T11:02:21.000Z</time>
      </trkpt>
      <trkpt lat="43.38163" lon="2.37657">
        <ele>613.7</ele>
        <time>2013-11-20T11:02:32.000Z</time>
      </trkpt>
      <trkpt lat="43.38167" lon="2.37646">
        <ele>614.6</ele>
        <time>2013-11-20T11:02:44.000Z</time>
      </trkpt>
      <trkpt lat="43.38171" lon="2.37636">
        <ele>615</ele>
        <time>2013-11-20T11:02:55.000Z</time>
      </trkpt>
      <trkpt lat="43.38172" lon="2.37625">
        <ele>616.5</ele>
        <time>2013-11-20T11:03:6.000Z</time>
      </trkpt>
      <trkpt lat="43.38174" lon="2.37612">
        <ele>617.6</ele>
        <time>2013-11-20T11:03:17.000Z</time>
      </trkpt>
      <trkpt lat="43.38172" lon="2.37604">
        <ele>618.9</ele>
        <time>2013-11-20T11:04:14.000Z</time>
      </trkpt>
      <trkpt lat="43.38172" lon="2.37592">
        <ele>619.2</ele>
        <time>2013-11-20T11:04:19.000Z</time>
      </trkpt>
      <trkpt lat="43.3817" lon="2.37581">
        <ele>619.5</ele>
        <time>2013-11-20T11:04:31.000Z</time>
      </trkpt>
      <trkpt lat="43.3817" lon="2.37569">
        <ele>620.4</ele>
        <time>2013-11-20T11:04:54.000Z</time>
      </trkpt>
      <trkpt lat="43.3817" lon="2.37556">
        <ele>621</ele>
        <time>2013-11-20T11:05:5.000Z</time>
      </trkpt>
      <trkpt lat="43.38168" lon="2.37545">
        <ele>621.8</ele>
        <time>2013-11-20T11:05:28.000Z</time>
      </trkpt>
      <trkpt lat="43.38167" lon="2.37534">
        <ele>622</ele>
        <time>2013-11-20T11:05:32.000Z</time>
      </trkpt>
      <trkpt lat="43.38164" lon="2.37523">
        <ele>622.9</ele>
        <time>2013-11-20T11:05:45.000Z</time>
      </trkpt>
      <trkpt lat="43.38162" lon="2.37512">
        <ele>624.1</ele>
        <time>2013-11-20T11:05:57.000Z</time>
      </trkpt>
      <trkpt lat="43.38161" lon="2.37499">
        <ele>625.4</ele>
        <time>2013-11-20T11:06:8.000Z</time>
      </trkpt>
      <trkpt lat="43.3816" lon="2.37487">
        <ele>626.6</ele>
        <time>2013-11-20T11:06:18.000Z</time>
      </trkpt>
      <trkpt lat="43.38153" lon="2.37462">
        <ele>630</ele>
        <time>2013-11-20T11:08:0.000Z</time>
      </trkpt>
      <trkpt lat="43.38147" lon="2.37454">
        <ele>630.3</ele>
        <time>2013-11-20T11:08:8.000Z</time>
      </trkpt>
      <trkpt lat="43.38141" lon="2.37446">
        <ele>630.7</ele>
        <time>2013-11-20T11:08:17.000Z</time>
      </trkpt>
      <trkpt lat="43.38135" lon="2.37439">
        <ele>632</ele>
        <time>2013-11-20T11:08:25.000Z</time>
      </trkpt>
      <trkpt lat="43.38129" lon="2.37432">
        <ele>632.5</ele>
        <time>2013-11-20T11:08:32.000Z</time>
      </trkpt>
      <trkpt lat="43.38124" lon="2.37423">
        <ele>633.3</ele>
        <time>2013-11-20T11:08:40.000Z</time>
      </trkpt>
      <trkpt lat="43.38117" lon="2.37415">
        <ele>634.3</ele>
        <time>2013-11-20T11:08:48.000Z</time>
      </trkpt>
      <trkpt lat="43.3811" lon="2.37408">
        <ele>635.6</ele>
        <time>2013-11-20T11:09:0.000Z</time>
      </trkpt>
      <trkpt lat="43.38104" lon="2.37398">
        <ele>637.1</ele>
        <time>2013-11-20T11:09:12.000Z</time>
      </trkpt>
      <trkpt lat="43.38098" lon="2.3739">
        <ele>638.7</ele>
        <time>2013-11-20T11:09:23.000Z</time>
      </trkpt>
      <trkpt lat="43.38093" lon="2.3738">
        <ele>640.3</ele>
        <time>2013-11-20T11:09:34.000Z</time>
      </trkpt>
      <trkpt lat="43.38089" lon="2.3737">
        <ele>642.4</ele>
        <time>2013-11-20T11:09:48.000Z</time>
      </trkpt>
      <trkpt lat="43.38091" lon="2.37358">
        <ele>644.4</ele>
        <time>2013-11-20T11:10:2.000Z</time>
      </trkpt>
      <trkpt lat="43.38098" lon="2.37352">
        <ele>644.1</ele>
        <time>2013-11-20T11:10:12.000Z</time>
      </trkpt>
      <trkpt lat="43.38106" lon="2.37347">
        <ele>644.6</ele>
        <time>2013-11-20T11:10:23.000Z</time>
      </trkpt>
      <trkpt lat="43.38113" lon="2.37342">
        <ele>645.2</ele>
        <time>2013-11-20T11:10:32.000Z</time>
      </trkpt>
      <trkpt lat="43.38122" lon="2.37338">
        <ele>645.7</ele>
        <time>2013-11-20T11:10:41.000Z</time>
      </trkpt>
      <trkpt lat="43.3813" lon="2.37333">
        <ele>645.7</ele>
        <time>2013-11-20T11:10:53.000Z</time>
      </trkpt>
      <trkpt lat="43.38136" lon="2.37325">
        <ele>645.6</ele>
        <time>2013-11-20T11:11:2.000Z</time>
      </trkpt>
      <trkpt lat="43.38142" lon="2.37318">
        <ele>645.4</ele>
        <time>2013-11-20T11:11:9.000Z</time>
      </trkpt>
      <trkpt lat="43.38149" lon="2.37313">
        <ele>645.4</ele>
        <time>2013-11-20T11:11:16.000Z</time>
      </trkpt>
      <trkpt lat="43.38156" lon="2.37307">
        <ele>645.6</ele>
        <time>2013-11-20T11:11:24.000Z</time>
      </trkpt>
      <trkpt lat="43.38163" lon="2.37299">
        <ele>645.1</ele>
        <time>2013-11-20T11:11:33.000Z</time>
      </trkpt>
      <trkpt lat="43.3817" lon="2.37292">
        <ele>644.8</ele>
        <time>2013-11-20T11:11:42.000Z</time>
      </trkpt>
      <trkpt lat="43.38175" lon="2.37284">
        <ele>644.8</ele>
        <time>2013-11-20T11:11:50.000Z</time>
      </trkpt>
      <trkpt lat="43.38182" lon="2.37276">
        <ele>645.1</ele>
        <time>2013-11-20T11:11:59.000Z</time>
      </trkpt>
      <trkpt lat="43.38189" lon="2.37269">
        <ele>644.7</ele>
        <time>2013-11-20T11:12:7.000Z</time>
      </trkpt>
      <trkpt lat="43.38196" lon="2.37261">
        <ele>645.4</ele>
        <time>2013-11-20T11:12:16.000Z</time>
      </trkpt>
      <trkpt lat="43.38203" lon="2.37255">
        <ele>645.9</ele>
        <time>2013-11-20T11:12:25.000Z</time>
      </trkpt>
      <trkpt lat="43.38211" lon="2.37249">
        <ele>645.9</ele>
        <time>2013-11-20T11:12:32.000Z</time>
      </trkpt>
      <trkpt lat="43.38218" lon="2.37242">
        <ele>646.2</ele>
        <time>2013-11-20T11:12:42.000Z</time>
      </trkpt>
      <trkpt lat="43.38225" lon="2.37235">
        <ele>647.1</ele>
        <time>2013-11-20T11:12:52.000Z</time>
      </trkpt>
      <trkpt lat="43.38232" lon="2.37232">
        <ele>647.4</ele>
        <time>2013-11-20T11:12:58.000Z</time>
      </trkpt>
      <trkpt lat="43.38239" lon="2.37224">
        <ele>647.9</ele>
        <time>2013-11-20T11:13:8.000Z</time>
      </trkpt>
      <trkpt lat="43.3824" lon="2.37212">
        <ele>646.1</ele>
        <time>2013-11-20T11:13:39.000Z</time>
      </trkpt>
      <trkpt lat="43.38248" lon="2.37209">
        <ele>646.3</ele>
        <time>2013-11-20T11:13:45.000Z</time>
      </trkpt>
      <trkpt lat="43.38256" lon="2.37204">
        <ele>645.8</ele>
        <time>2013-11-20T11:13:55.000Z</time>
      </trkpt>
      <trkpt lat="43.38263" lon="2.37202">
        <ele>646.4</ele>
        <time>2013-11-20T11:14:3.000Z</time>
      </trkpt>
      <trkpt lat="43.38272" lon="2.37199">
        <ele>648</ele>
        <time>2013-11-20T11:14:12.000Z</time>
      </trkpt>
      <trkpt lat="43.3828" lon="2.37196">
        <ele>649.1</ele>
        <time>2013-11-20T11:14:23.000Z</time>
      </trkpt>
      <trkpt lat="43.38289" lon="2.37194">
        <ele>650.6</ele>
        <time>2013-11-20T11:14:39.000Z</time>
      </trkpt>
      <trkpt lat="43.38297" lon="2.37191">
        <ele>650.8</ele>
        <time>2013-11-20T11:14:49.000Z</time>
      </trkpt>
      <trkpt lat="43.38304" lon="2.37183">
        <ele>650.3</ele>
        <time>2013-11-20T11:15:1.000Z</time>
      </trkpt>
      <trkpt lat="43.38312" lon="2.37179">
        <ele>650</ele>
        <time>2013-11-20T11:15:9.000Z</time>
      </trkpt>
      <trkpt lat="43.38318" lon="2.37181">
        <ele>650</ele>
        <time>2013-11-20T11:15:12.000Z</time>
      </trkpt>
      <trkpt lat="43.38326" lon="2.37177">
        <ele>649.6</ele>
        <time>2013-11-20T11:15:19.000Z</time>
      </trkpt>
      <trkpt lat="43.38331" lon="2.37167">
        <ele>650.3</ele>
        <time>2013-11-20T11:15:31.000Z</time>
      </trkpt>
      <trkpt lat="43.38339" lon="2.37161">
        <ele>650.7</ele>
        <time>2013-11-20T11:15:39.000Z</time>
      </trkpt>
      <trkpt lat="43.38345" lon="2.37157">
        <ele>650.5</ele>
        <time>2013-11-20T11:15:47.000Z</time>
      </trkpt>
      <trkpt lat="43.38354" lon="2.37156">
        <ele>650.9</ele>
        <time>2013-11-20T11:15:52.000Z</time>
      </trkpt>
      <trkpt lat="43.38362" lon="2.37155">
        <ele>651.5</ele>
        <time>2013-11-20T11:15:57.000Z</time>
      </trkpt>
      <trkpt lat="43.3837" lon="2.37151">
        <ele>651.1</ele>
        <time>2013-11-20T11:16:4.000Z</time>
      </trkpt>
      <trkpt lat="43.38373" lon="2.37139">
        <ele>650.7</ele>
        <time>2013-11-20T11:16:15.000Z</time>
      </trkpt>
      <trkpt lat="43.38381" lon="2.37136">
        <ele>652.3</ele>
        <time>2013-11-20T11:16:32.000Z</time>
      </trkpt>
      <trkpt lat="43.38389" lon="2.37134">
        <ele>652.9</ele>
        <time>2013-11-20T11:16:46.000Z</time>
      </trkpt>
      <trkpt lat="43.38387" lon="2.37122">
        <ele>654.1</ele>
        <time>2013-11-20T11:18:13.000Z</time>
      </trkpt>
      <trkpt lat="43.3839" lon="2.37114">
        <ele>658.4</ele>
        <time>2013-11-20T11:18:49.000Z</time>
      </trkpt>
      <trkpt lat="43.38395" lon="2.37103">
        <ele>660.2</ele>
        <time>2013-11-20T11:19:5.000Z</time>
      </trkpt>
      <trkpt lat="43.38395" lon="2.37092">
        <ele>662.6</ele>
        <time>2013-11-20T11:19:21.000Z</time>
      </trkpt>
      <trkpt lat="43.38395" lon="2.3708">
        <ele>667</ele>
        <time>2013-11-20T11:19:56.000Z</time>
      </trkpt>
      <trkpt lat="43.38393" lon="2.37068">
        <ele>667.9</ele>
        <time>2013-11-20T11:20:6.000Z</time>
      </trkpt>
      <trkpt lat="43.38387" lon="2.3706">
        <ele>668.7</ele>
        <time>2013-11-20T11:20:26.000Z</time>
      </trkpt>
      <trkpt lat="43.38381" lon="2.37052">
        <ele>668.5</ele>
        <time>2013-11-20T11:20:42.000Z</time>
      </trkpt>
      <trkpt lat="43.38379" lon="2.3704">
        <ele>669.1</ele>
        <time>2013-11-20T11:20:58.000Z</time>
      </trkpt>
      <trkpt lat="43.38374" lon="2.37029">
        <ele>670.7</ele>
        <time>2013-11-20T11:21:13.000Z</time>
      </trkpt>
      <trkpt lat="43.3837" lon="2.37019">
        <ele>671.2</ele>
        <time>2013-11-20T11:21:29.000Z</time>
      </trkpt>
      <trkpt lat="43.38369" lon="2.37007">
        <ele>672.1</ele>
        <time>2013-11-20T11:21:39.000Z</time>
      </trkpt>
      <trkpt lat="43.38368" lon="2.36995">
        <ele>674.6</ele>
        <time>2013-11-20T11:21:55.000Z</time>
      </trkpt>
      <trkpt lat="43.38367" lon="2.36983">
        <ele>678.1</ele>
        <time>2013-11-20T11:22:16.000Z</time>
      </trkpt>
      <trkpt lat="43.38362" lon="2.36976">
        <ele>679.6</ele>
        <time>2013-11-20T11:22:33.000Z</time>
      </trkpt>
      <trkpt lat="43.38357" lon="2.3697">
        <ele>682.1</ele>
        <time>2013-11-20T11:23:1.000Z</time>
      </trkpt>
      <trkpt lat="43.38356" lon="2.36958">
        <ele>682.7</ele>
        <time>2013-11-20T11:23:8.000Z</time>
      </trkpt>
      <trkpt lat="43.38351" lon="2.36949">
        <ele>684.6</ele>
        <time>2013-11-20T11:23:22.000Z</time>
      </trkpt>
      <trkpt lat="43.38347" lon="2.36938">
        <ele>685.7</ele>
        <time>2013-11-20T11:23:32.000Z</time>
      </trkpt>
      <trkpt lat="43.38342" lon="2.36928">
        <ele>686.2</ele>
        <time>2013-11-20T11:23:41.000Z</time>
      </trkpt>
      <trkpt lat="43.38337" lon="2.36919">
        <ele>686.5</ele>
        <time>2013-11-20T11:23:50.000Z</time>
      </trkpt>
      <trkpt lat="43.38331" lon="2.36911">
        <ele>686.3</ele>
        <time>2013-11-20T11:23:59.000Z</time>
      </trkpt>
      <trkpt lat="43.38325" lon="2.36903">
        <ele>686.2</ele>
        <time>2013-11-20T11:24:8.000Z</time>
      </trkpt>
      <trkpt lat="43.38324" lon="2.36891">
        <ele>686.5</ele>
        <time>2013-11-20T11:24:19.000Z</time>
      </trkpt>
      <trkpt lat="43.38331" lon="2.36883">
        <ele>689.5</ele>
        <time>2013-11-20T11:24:43.000Z</time>
      </trkpt>
      <trkpt lat="43.38339" lon="2.36883">
        <ele>691.3</ele>
        <time>2013-11-20T11:24:55.000Z</time>
      </trkpt>
      <trkpt lat="43.38347" lon="2.36889">
        <ele>694</ele>
        <time>2013-11-20T11:25:11.000Z</time>
      </trkpt>
      <trkpt lat="43.38355" lon="2.36891">
        <ele>696.9</ele>
        <time>2013-11-20T11:26:13.000Z</time>
      </trkpt>
      <trkpt lat="43.38363" lon="2.36896">
        <ele>697.8</ele>
        <time>2013-11-20T11:26:24.000Z</time>
      </trkpt>
      <trkpt lat="43.38372" lon="2.36894">
        <ele>697.5</ele>
        <time>2013-11-20T11:26:35.000Z</time>
      </trkpt>
      <trkpt lat="43.3838" lon="2.36899">
        <ele>699.5</ele>
        <time>2013-11-20T11:26:45.000Z</time>
      </trkpt>
      <trkpt lat="43.38386" lon="2.36906">
        <ele>701.2</ele>
        <time>2013-11-20T11:26:58.000Z</time>
      </trkpt>
      <trkpt lat="43.38393" lon="2.36911">
        <ele>701.9</ele>
        <time>2013-11-20T11:27:8.000Z</time>
      </trkpt>
      <trkpt lat="43.384" lon="2.36918">
        <ele>703.4</ele>
        <time>2013-11-20T11:27:17.000Z</time>
      </trkpt>
      <trkpt lat="43.38407" lon="2.36923">
        <ele>704.8</ele>
        <time>2013-11-20T11:27:27.000Z</time>
      </trkpt>
      <trkpt lat="43.38415" lon="2.36929">
        <ele>707.4</ele>
        <time>2013-11-20T11:27:38.000Z</time>
      </trkpt>
      <trkpt lat="43.38421" lon="2.36937">
        <ele>709.1</ele>
        <time>2013-11-20T11:27:48.000Z</time>
      </trkpt>
      <trkpt lat="43.38429" lon="2.36941">
        <ele>711.7</ele>
        <time>2013-11-20T11:27:58.000Z</time>
      </trkpt>
      <trkpt lat="43.38436" lon="2.36947">
        <ele>713.7</ele>
        <time>2013-11-20T11:28:9.000Z</time>
      </trkpt>
      <trkpt lat="43.38445" lon="2.36947">
        <ele>715.3</ele>
        <time>2013-11-20T11:28:18.000Z</time>
      </trkpt>
      <trkpt lat="43.38453" lon="2.36948">
        <ele>716.8</ele>
        <time>2013-11-20T11:28:27.000Z</time>
      </trkpt>
      <trkpt lat="43.38462" lon="2.36951">
        <ele>718.5</ele>
        <time>2013-11-20T11:28:37.000Z</time>
      </trkpt>
      <trkpt lat="43.3847" lon="2.36953">
        <ele>720.8</ele>
        <time>2013-11-20T11:28:47.000Z</time>
      </trkpt>
      <trkpt lat="43.38479" lon="2.36955">
        <ele>722.6</ele>
        <time>2013-11-20T11:28:57.000Z</time>
      </trkpt>
      <trkpt lat="43.38487" lon="2.36957">
        <ele>724.1</ele>
        <time>2013-11-20T11:29:6.000Z</time>
      </trkpt>
      <trkpt lat="43.38495" lon="2.36962">
        <ele>726.2</ele>
        <time>2013-11-20T11:29:14.000Z</time>
      </trkpt>
      <trkpt lat="43.38502" lon="2.36968">
        <ele>730.1</ele>
        <time>2013-11-20T11:29:26.000Z</time>
      </trkpt>
      <trkpt lat="43.38509" lon="2.36976">
        <ele>731.8</ele>
        <time>2013-11-20T11:29:38.000Z</time>
      </trkpt>
      <trkpt lat="43.38517" lon="2.3698">
        <ele>733.7</ele>
        <time>2013-11-20T11:29:48.000Z</time>
      </trkpt>
      <trkpt lat="43.38526" lon="2.36979">
        <ele>735.3</ele>
        <time>2013-11-20T11:29:59.000Z</time>
      </trkpt>
      <trkpt lat="43.38534" lon="2.36976">
        <ele>738.1</ele>
        <time>2013-11-20T11:30:9.000Z</time>
      </trkpt>
      <trkpt lat="43.38543" lon="2.36973">
        <ele>740.9</ele>
        <time>2013-11-20T11:30:20.000Z</time>
      </trkpt>
      <trkpt lat="43.38551" lon="2.36971">
        <ele>744.2</ele>
        <time>2013-11-20T11:30:31.000Z</time>
      </trkpt>
      <trkpt lat="43.3856" lon="2.36971">
        <ele>747.8</ele>
        <time>2013-11-20T11:30:47.000Z</time>
      </trkpt>
      <trkpt lat="43.38567" lon="2.36976">
        <ele>748.5</ele>
        <time>2013-11-20T11:30:54.000Z</time>
      </trkpt>
      <trkpt lat="43.38572" lon="2.36984">
        <ele>751.7</ele>
        <time>2013-11-20T11:31:1.000Z</time>
      </trkpt>
      <trkpt lat="43.38576" lon="2.36995">
        <ele>753.9</ele>
        <time>2013-11-20T11:31:9.000Z</time>
      </trkpt>
      <trkpt lat="43.38578" lon="2.37007">
        <ele>754</ele>
        <time>2013-11-20T11:31:18.000Z</time>
      </trkpt>
      <trkpt lat="43.38585" lon="2.37013">
        <ele>754</ele>
        <time>2013-11-20T11:31:25.000Z</time>
      </trkpt>
      <trkpt lat="43.38593" lon="2.37017">
        <ele>754.7</ele>
        <time>2013-11-20T11:31:31.000Z</time>
      </trkpt>
      <trkpt lat="43.386" lon="2.37024">
        <ele>755.2</ele>
        <time>2013-11-20T11:31:38.000Z</time>
      </trkpt>
      <trkpt lat="43.38607" lon="2.37029">
        <ele>756.2</ele>
        <time>2013-11-20T11:31:45.000Z</time>
      </trkpt>
      <trkpt lat="43.38614" lon="2.37037">
        <ele>756.5</ele>
        <time>2013-11-20T11:31:53.000Z</time>
      </trkpt>
      <trkpt lat="43.3862" lon="2.37045">
        <ele>758.3</ele>
        <time>2013-11-20T11:32:4.000Z</time>
      </trkpt>
      <trkpt lat="43.38627" lon="2.37052">
        <ele>757</ele>
        <time>2013-11-20T11:32:11.000Z</time>
      </trkpt>
      <trkpt lat="43.38633" lon="2.37059">
        <ele>756.2</ele>
        <time>2013-11-20T11:32:17.000Z</time>
      </trkpt>
      <trkpt lat="43.3864" lon="2.37066">
        <ele>756.3</ele>
        <time>2013-11-20T11:32:24.000Z</time>
      </trkpt>
      <trkpt lat="43.38647" lon="2.37074">
        <ele>756.3</ele>
        <time>2013-11-20T11:32:31.000Z</time>
      </trkpt>
      <trkpt lat="43.38653" lon="2.3708">
        <ele>756.3</ele>
        <time>2013-11-20T11:32:38.000Z</time>
      </trkpt>
      <trkpt lat="43.38661" lon="2.37086">
        <ele>757</ele>
        <time>2013-11-20T11:32:46.000Z</time>
      </trkpt>
      <trkpt lat="43.38669" lon="2.37087">
        <ele>757.2</ele>
        <time>2013-11-20T11:33:3.000Z</time>
      </trkpt>
      <trkpt lat="43.38669" lon="2.37075">
        <ele>757.5</ele>
        <time>2013-11-20T11:37:26.000Z</time>
      </trkpt>
      <trkpt lat="43.38679" lon="2.37089">
        <ele>759</ele>
        <time>2013-11-20T11:39:35.000Z</time>
      </trkpt>
      <trkpt lat="43.38687" lon="2.37087">
        <ele>760</ele>
        <time>2013-11-20T11:39:43.000Z</time>
      </trkpt>
      <trkpt lat="43.38696" lon="2.37084">
        <ele>761.4</ele>
        <time>2013-11-20T11:39:55.000Z</time>
      </trkpt>
      <trkpt lat="43.38704" lon="2.37083">
        <ele>762.6</ele>
        <time>2013-11-20T11:40:7.000Z</time>
      </trkpt>
      <trkpt lat="43.38711" lon="2.37084">
        <ele>764.9</ele>
        <time>2013-11-20T11:40:22.000Z</time>
      </trkpt>
      <trkpt lat="43.38719" lon="2.37083">
        <ele>767.1</ele>
        <time>2013-11-20T11:40:34.000Z</time>
      </trkpt>
      <trkpt lat="43.38728" lon="2.37082">
        <ele>769.4</ele>
        <time>2013-11-20T11:40:57.000Z</time>
      </trkpt>
      <trkpt lat="43.38737" lon="2.37082">
        <ele>772.7</ele>
        <time>2013-11-20T11:41:33.000Z</time>
      </trkpt>
      <trkpt lat="43.38745" lon="2.37085">
        <ele>775.8</ele>
        <time>2013-11-20T11:41:52.000Z</time>
      </trkpt>
      <trkpt lat="43.38754" lon="2.37086">
        <ele>778</ele>
        <time>2013-11-20T11:42:10.000Z</time>
      </trkpt>
      <trkpt lat="43.38762" lon="2.37088">
        <ele>779.5</ele>
        <time>2013-11-20T11:42:25.000Z</time>
      </trkpt>
      <trkpt lat="43.38766" lon="2.37099">
        <ele>784.8</ele>
        <time>2013-11-20T11:42:40.000Z</time>
      </trkpt>
      <trkpt lat="43.3877" lon="2.37109">
        <ele>783.1</ele>
        <time>2013-11-20T11:42:48.000Z</time>
      </trkpt>
      <trkpt lat="43.38774" lon="2.37119">
        <ele>779.6</ele>
        <time>2013-11-20T11:42:59.000Z</time>
      </trkpt>
      <trkpt lat="43.3878" lon="2.37128">
        <ele>777.4</ele>
        <time>2013-11-20T11:43:12.000Z</time>
      </trkpt>
      <trkpt lat="43.38786" lon="2.37136">
        <ele>778.2</ele>
        <time>2013-11-20T11:43:22.000Z</time>
      </trkpt>
      <trkpt lat="43.38785" lon="2.37148">
        <ele>777.5</ele>
        <time>2013-11-20T11:43:32.000Z</time>
      </trkpt>
      <trkpt lat="43.38783" lon="2.3716">
        <ele>774.6</ele>
        <time>2013-11-20T11:43:42.000Z</time>
      </trkpt>
      <trkpt lat="43.38784" lon="2.37172">
        <ele>780.4</ele>
        <time>2013-11-20T11:43:53.000Z</time>
      </trkpt>
      <trkpt lat="43.38787" lon="2.37183">
        <ele>780.1</ele>
        <time>2013-11-20T11:44:8.000Z</time>
      </trkpt>
      <trkpt lat="43.38793" lon="2.37187">
        <ele>781.2</ele>
        <time>2013-11-20T11:44:13.000Z</time>
      </trkpt>
      <trkpt lat="43.388" lon="2.37191">
        <ele>781.4</ele>
        <time>2013-11-20T11:44:17.000Z</time>
      </trkpt>
      <trkpt lat="43.38807" lon="2.37197">
        <ele>781.3</ele>
        <time>2013-11-20T11:44:23.000Z</time>
      </trkpt>
      <trkpt lat="43.38806" lon="2.37209">
        <ele>781.4</ele>
        <time>2013-11-20T11:44:46.000Z</time>
      </trkpt>
      <trkpt lat="43.38805" lon="2.3722">
        <ele>781.4</ele>
        <time>2013-11-20T11:44:56.000Z</time>
      </trkpt>
      <trkpt lat="43.38805" lon="2.37231">
        <ele>781.2</ele>
        <time>2013-11-20T11:45:3.000Z</time>
      </trkpt>
      <trkpt lat="43.38803" lon="2.37241">
        <ele>781.1</ele>
        <time>2013-11-20T11:45:8.000Z</time>
      </trkpt>
      <trkpt lat="43.388" lon="2.37251">
        <ele>780.9</ele>
        <time>2013-11-20T11:45:15.000Z</time>
      </trkpt>
      <trkpt lat="43.38797" lon="2.37261">
        <ele>780.9</ele>
        <time>2013-11-20T11:45:20.000Z</time>
      </trkpt>
      <trkpt lat="43.38793" lon="2.37271">
        <ele>780.8</ele>
        <time>2013-11-20T11:45:28.000Z</time>
      </trkpt>
      <trkpt lat="43.38787" lon="2.37279">
        <ele>780.3</ele>
        <time>2013-11-20T11:45:37.000Z</time>
      </trkpt>
      <trkpt lat="43.38779" lon="2.37285">
        <ele>779.5</ele>
        <time>2013-11-20T11:45:48.000Z</time>
      </trkpt>
      <trkpt lat="43.38772" lon="2.37282">
        <ele>778.4</ele>
        <time>2013-11-20T11:45:56.000Z</time>
      </trkpt>
      <trkpt lat="43.38764" lon="2.37278">
        <ele>777.4</ele>
        <time>2013-11-20T11:46:2.000Z</time>
      </trkpt>
      <trkpt lat="43.38758" lon="2.37287">
        <ele>776.1</ele>
        <time>2013-11-20T11:46:50.000Z</time>
      </trkpt>
      <trkpt lat="43.38755" lon="2.37297">
        <ele>776.4</ele>
        <time>2013-11-20T11:46:59.000Z</time>
      </trkpt>
      <trkpt lat="43.38751" lon="2.37307">
        <ele>775.5</ele>
        <time>2013-11-20T11:47:10.000Z</time>
      </trkpt>
      <trkpt lat="43.38745" lon="2.37316">
        <ele>775.3</ele>
        <time>2013-11-20T11:47:19.000Z</time>
      </trkpt>
      <trkpt lat="43.38739" lon="2.37324">
        <ele>775.6</ele>
        <time>2013-11-20T11:47:27.000Z</time>
      </trkpt>
      <trkpt lat="43.38733" lon="2.37332">
        <ele>775.6</ele>
        <time>2013-11-20T11:47:35.000Z</time>
      </trkpt>
      <trkpt lat="43.38727" lon="2.37341">
        <ele>775.6</ele>
        <time>2013-11-20T11:47:43.000Z</time>
      </trkpt>
      <trkpt lat="43.38721" lon="2.37348">
        <ele>775.6</ele>
        <time>2013-11-20T11:47:51.000Z</time>
      </trkpt>
      <trkpt lat="43.38716" lon="2.37357">
        <ele>775.5</ele>
        <time>2013-11-20T11:47:58.000Z</time>
      </trkpt>
      <trkpt lat="43.3871" lon="2.37366">
        <ele>774.1</ele>
        <time>2013-11-20T11:48:6.000Z</time>
      </trkpt>
      <trkpt lat="43.38705" lon="2.37375">
        <ele>774.1</ele>
        <time>2013-11-20T11:48:13.000Z</time>
      </trkpt>
      <trkpt lat="43.387" lon="2.37383">
        <ele>774.1</ele>
        <time>2013-11-20T11:48:20.000Z</time>
      </trkpt>
      <trkpt lat="43.38696" lon="2.37394">
        <ele>774</ele>
        <time>2013-11-20T11:48:28.000Z</time>
      </trkpt>
      <trkpt lat="43.38696" lon="2.37406">
        <ele>774.1</ele>
        <time>2013-11-20T11:48:37.000Z</time>
      </trkpt>
      <trkpt lat="43.38699" lon="2.37417">
        <ele>774.1</ele>
        <time>2013-11-20T11:48:45.000Z</time>
      </trkpt>
      <trkpt lat="43.38703" lon="2.37428">
        <ele>774.6</ele>
        <time>2013-11-20T11:48:52.000Z</time>
      </trkpt>
      <trkpt lat="43.38705" lon="2.3744">
        <ele>774.3</ele>
        <time>2013-11-20T11:49:0.000Z</time>
      </trkpt>
      <trkpt lat="43.38708" lon="2.3745">
        <ele>775.2</ele>
        <time>2013-11-20T11:49:7.000Z</time>
      </trkpt>
      <trkpt lat="43.3871" lon="2.37461">
        <ele>775</ele>
        <time>2013-11-20T11:49:15.000Z</time>
      </trkpt>
      <trkpt lat="43.38712" lon="2.37473">
        <ele>775.2</ele>
        <time>2013-11-20T11:49:23.000Z</time>
      </trkpt>
      <trkpt lat="43.38716" lon="2.37483">
        <ele>775.5</ele>
        <time>2013-11-20T11:49:31.000Z</time>
      </trkpt>
      <trkpt lat="43.38718" lon="2.37495">
        <ele>775.5</ele>
        <time>2013-11-20T11:49:39.000Z</time>
      </trkpt>
      <trkpt lat="43.3872" lon="2.37506">
        <ele>775.7</ele>
        <time>2013-11-20T11:49:47.000Z</time>
      </trkpt>
      <trkpt lat="43.38723" lon="2.37517">
        <ele>775.5</ele>
        <time>2013-11-20T11:49:53.000Z</time>
      </trkpt>
      <trkpt lat="43.38725" lon="2.37529">
        <ele>775.6</ele>
        <time>2013-11-20T11:50:1.000Z</time>
      </trkpt>
      <trkpt lat="43.38728" lon="2.3754">
        <ele>775.8</ele>
        <time>2013-11-20T11:50:9.000Z</time>
      </trkpt>
      <trkpt lat="43.38731" lon="2.37551">
        <ele>775.6</ele>
        <time>2013-11-20T11:50:18.000Z</time>
      </trkpt>
      <trkpt lat="43.38732" lon="2.37562">
        <ele>775.4</ele>
        <time>2013-11-20T11:50:26.000Z</time>
      </trkpt>
      <trkpt lat="43.38733" lon="2.37574">
        <ele>775.5</ele>
        <time>2013-11-20T11:50:33.000Z</time>
      </trkpt>
      <trkpt lat="43.38735" lon="2.37585">
        <ele>775.2</ele>
        <time>2013-11-20T11:50:40.000Z</time>
      </trkpt>
      <trkpt lat="43.3874" lon="2.37595">
        <ele>774.8</ele>
        <time>2013-11-20T11:50:47.000Z</time>
      </trkpt>
      <trkpt lat="43.38748" lon="2.376">
        <ele>774</ele>
        <time>2013-11-20T11:50:57.000Z</time>
      </trkpt>
      <trkpt lat="43.38756" lon="2.37595">
        <ele>773.4</ele>
        <time>2013-11-20T11:51:4.000Z</time>
      </trkpt>
      <trkpt lat="43.3876" lon="2.37585">
        <ele>774.4</ele>
        <time>2013-11-20T11:51:13.000Z</time>
      </trkpt>
      <trkpt lat="43.38762" lon="2.37574">
        <ele>776.4</ele>
        <time>2013-11-20T11:51:23.000Z</time>
      </trkpt>
      <trkpt lat="43.38766" lon="2.37563">
        <ele>777.6</ele>
        <time>2013-11-20T11:51:32.000Z</time>
      </trkpt>
      <trkpt lat="43.3877" lon="2.37553">
        <ele>778.2</ele>
        <time>2013-11-20T11:51:41.000Z</time>
      </trkpt>
      <trkpt lat="43.38772" lon="2.37541">
        <ele>778.7</ele>
        <time>2013-11-20T11:51:49.000Z</time>
      </trkpt>
      <trkpt lat="43.38778" lon="2.37532">
        <ele>779.5</ele>
        <time>2013-11-20T11:51:57.000Z</time>
      </trkpt>
      <trkpt lat="43.3878" lon="2.3752">
        <ele>779.8</ele>
        <time>2013-11-20T11:52:5.000Z</time>
      </trkpt>
      <trkpt lat="43.38784" lon="2.37509">
        <ele>780.5</ele>
        <time>2013-11-20T11:52:14.000Z</time>
      </trkpt>
      <trkpt lat="43.38789" lon="2.37499">
        <ele>781.4</ele>
        <time>2013-11-20T11:52:21.000Z</time>
      </trkpt>
      <trkpt lat="43.38793" lon="2.37489">
        <ele>781.9</ele>
        <time>2013-11-20T11:52:28.000Z</time>
      </trkpt>
      <trkpt lat="43.38795" lon="2.37478">
        <ele>782.1</ele>
        <time>2013-11-20T11:52:36.000Z</time>
      </trkpt>
      <trkpt lat="43.38798" lon="2.37468">
        <ele>783</ele>
        <time>2013-11-20T11:52:43.000Z</time>
      </trkpt>
      <trkpt lat="43.38801" lon="2.37458">
        <ele>783.5</ele>
        <time>2013-11-20T11:52:50.000Z</time>
      </trkpt>
      <trkpt lat="43.38806" lon="2.37448">
        <ele>784.5</ele>
        <time>2013-11-20T11:52:58.000Z</time>
      </trkpt>
      <trkpt lat="43.3881" lon="2.37438">
        <ele>784.9</ele>
        <time>2013-11-20T11:53:6.000Z</time>
      </trkpt>
      <trkpt lat="43.38815" lon="2.37429">
        <ele>785.3</ele>
        <time>2013-11-20T11:53:13.000Z</time>
      </trkpt>
      <trkpt lat="43.38818" lon="2.37419">
        <ele>786.1</ele>
        <time>2013-11-20T11:53:20.000Z</time>
      </trkpt>
      <trkpt lat="43.38821" lon="2.37409">
        <ele>786.6</ele>
        <time>2013-11-20T11:53:26.000Z</time>
      </trkpt>
      <trkpt lat="43.38826" lon="2.374">
        <ele>786.4</ele>
        <time>2013-11-20T11:53:32.000Z</time>
      </trkpt>
      <trkpt lat="43.3883" lon="2.3739">
        <ele>786.6</ele>
        <time>2013-11-20T11:53:39.000Z</time>
      </trkpt>
      <trkpt lat="43.38835" lon="2.37381">
        <ele>786.7</ele>
        <time>2013-11-20T11:53:45.000Z</time>
      </trkpt>
      <trkpt lat="43.3884" lon="2.37374">
        <ele>786.9</ele>
        <time>2013-11-20T11:53:51.000Z</time>
      </trkpt>
      <trkpt lat="43.38846" lon="2.37365">
        <ele>787.1</ele>
        <time>2013-11-20T11:53:58.000Z</time>
      </trkpt>
      <trkpt lat="43.38852" lon="2.37358">
        <ele>787</ele>
        <time>2013-11-20T11:54:4.000Z</time>
      </trkpt>
      <trkpt lat="43.38858" lon="2.3735">
        <ele>787</ele>
        <time>2013-11-20T11:54:10.000Z</time>
      </trkpt>
      <trkpt lat="43.38864" lon="2.37343">
        <ele>787.6</ele>
        <time>2013-11-20T11:54:16.000Z</time>
      </trkpt>
      <trkpt lat="43.3887" lon="2.37334">
        <ele>787.8</ele>
        <time>2013-11-20T11:54:23.000Z</time>
      </trkpt>
      <trkpt lat="43.38877" lon="2.37327">
        <ele>787.7</ele>
        <time>2013-11-20T11:54:31.000Z</time>
      </trkpt>
      <trkpt lat="43.38882" lon="2.37319">
        <ele>787.7</ele>
        <time>2013-11-20T11:54:37.000Z</time>
      </trkpt>
      <trkpt lat="43.38886" lon="2.37308">
        <ele>787.9</ele>
        <time>2013-11-20T11:54:43.000Z</time>
      </trkpt>
      <trkpt lat="43.38892" lon="2.37301">
        <ele>787.9</ele>
        <time>2013-11-20T11:54:51.000Z</time>
      </trkpt>
      <trkpt lat="43.389" lon="2.37297">
        <ele>787.3</ele>
        <time>2013-11-20T11:54:58.000Z</time>
      </trkpt>
      <trkpt lat="43.38907" lon="2.3729">
        <ele>787.9</ele>
        <time>2013-11-20T11:55:6.000Z</time>
      </trkpt>
      <trkpt lat="43.38914" lon="2.37282">
        <ele>788</ele>
        <time>2013-11-20T11:55:14.000Z</time>
      </trkpt>
      <trkpt lat="43.3892" lon="2.37275">
        <ele>787.9</ele>
        <time>2013-11-20T11:55:22.000Z</time>
      </trkpt>
      <trkpt lat="43.38926" lon="2.37266">
        <ele>787.9</ele>
        <time>2013-11-20T11:55:30.000Z</time>
      </trkpt>
      <trkpt lat="43.38933" lon="2.3726">
        <ele>788.5</ele>
        <time>2013-11-20T11:55:36.000Z</time>
      </trkpt>
      <trkpt lat="43.38939" lon="2.37253">
        <ele>788.7</ele>
        <time>2013-11-20T11:55:43.000Z</time>
      </trkpt>
      <trkpt lat="43.38946" lon="2.37245">
        <ele>788.9</ele>
        <time>2013-11-20T11:55:50.000Z</time>
      </trkpt>
      <trkpt lat="43.38953" lon="2.3724">
        <ele>788.9</ele>
        <time>2013-11-20T11:55:56.000Z</time>
      </trkpt>
      <trkpt lat="43.3896" lon="2.37234">
        <ele>788.7</ele>
        <time>2013-11-20T11:56:3.000Z</time>
      </trkpt>
      <trkpt lat="43.38966" lon="2.37226">
        <ele>789.1</ele>
        <time>2013-11-20T11:56:10.000Z</time>
      </trkpt>
      <trkpt lat="43.38973" lon="2.3722">
        <ele>789.2</ele>
        <time>2013-11-20T11:56:17.000Z</time>
      </trkpt>
      <trkpt lat="43.3898" lon="2.37212">
        <ele>788.9</ele>
        <time>2013-11-20T11:56:24.000Z</time>
      </trkpt>
      <trkpt lat="43.38986" lon="2.37205">
        <ele>789.4</ele>
        <time>2013-11-20T11:56:31.000Z</time>
      </trkpt>
      <trkpt lat="43.38993" lon="2.37198">
        <ele>789.3</ele>
        <time>2013-11-20T11:56:38.000Z</time>
      </trkpt>
      <trkpt lat="43.38999" lon="2.3719">
        <ele>790</ele>
        <time>2013-11-20T11:56:45.000Z</time>
      </trkpt>
      <trkpt lat="43.39006" lon="2.37184">
        <ele>790.2</ele>
        <time>2013-11-20T11:56:52.000Z</time>
      </trkpt>
      <trkpt lat="43.39014" lon="2.37179">
        <ele>790.4</ele>
        <time>2013-11-20T11:56:59.000Z</time>
      </trkpt>
      <trkpt lat="43.39021" lon="2.37173">
        <ele>790.2</ele>
        <time>2013-11-20T11:57:6.000Z</time>
      </trkpt>
      <trkpt lat="43.39029" lon="2.37168">
        <ele>789.9</ele>
        <time>2013-11-20T11:57:11.000Z</time>
      </trkpt>
      <trkpt lat="43.39035" lon="2.37162">
        <ele>789.8</ele>
        <time>2013-11-20T11:57:17.000Z</time>
      </trkpt>
      <trkpt lat="43.39042" lon="2.37156">
        <ele>790</ele>
        <time>2013-11-20T11:57:23.000Z</time>
      </trkpt>
      <trkpt lat="43.39048" lon="2.37149">
        <ele>789.3</ele>
        <time>2013-11-20T11:57:30.000Z</time>
      </trkpt>
      <trkpt lat="43.39055" lon="2.37143">
        <ele>789.4</ele>
        <time>2013-11-20T11:57:37.000Z</time>
      </trkpt>
      <trkpt lat="43.39062" lon="2.37137">
        <ele>788.9</ele>
        <time>2013-11-20T11:57:44.000Z</time>
      </trkpt>
      <trkpt lat="43.3907" lon="2.3713">
        <ele>788.9</ele>
        <time>2013-11-20T11:57:51.000Z</time>
      </trkpt>
      <trkpt lat="43.39077" lon="2.37124">
        <ele>788.4</ele>
        <time>2013-11-20T11:57:58.000Z</time>
      </trkpt>
      <trkpt lat="43.39083" lon="2.37117">
        <ele>787.9</ele>
        <time>2013-11-20T11:58:5.000Z</time>
      </trkpt>
      <trkpt lat="43.39091" lon="2.37114">
        <ele>787.6</ele>
        <time>2013-11-20T11:58:12.000Z</time>
      </trkpt>
      <trkpt lat="43.39097" lon="2.37109">
        <ele>787.5</ele>
        <time>2013-11-20T11:58:18.000Z</time>
      </trkpt>
      <trkpt lat="43.39105" lon="2.37104">
        <ele>786.7</ele>
        <time>2013-11-20T11:58:24.000Z</time>
      </trkpt>
      <trkpt lat="43.39112" lon="2.37098">
        <ele>786.4</ele>
        <time>2013-11-20T11:58:31.000Z</time>
      </trkpt>
      <trkpt lat="43.39119" lon="2.37094">
        <ele>786.1</ele>
        <time>2013-11-20T11:58:38.000Z</time>
      </trkpt>
      <trkpt lat="43.39127" lon="2.37091">
        <ele>785.4</ele>
        <time>2013-11-20T11:58:44.000Z</time>
      </trkpt>
      <trkpt lat="43.39135" lon="2.37088">
        <ele>785</ele>
        <time>2013-11-20T11:58:50.000Z</time>
      </trkpt>
      <trkpt lat="43.39143" lon="2.37084">
        <ele>784.3</ele>
        <time>2013-11-20T11:58:57.000Z</time>
      </trkpt>
      <trkpt lat="43.39151" lon="2.37081">
        <ele>784.2</ele>
        <time>2013-11-20T11:59:3.000Z</time>
      </trkpt>
      <trkpt lat="43.39159" lon="2.37077">
        <ele>783.6</ele>
        <time>2013-11-20T11:59:10.000Z</time>
      </trkpt>
      <trkpt lat="43.39167" lon="2.37072">
        <ele>783.3</ele>
        <time>2013-11-20T11:59:17.000Z</time>
      </trkpt>
      <trkpt lat="43.39174" lon="2.37066">
        <ele>782.9</ele>
        <time>2013-11-20T11:59:23.000Z</time>
      </trkpt>
      <trkpt lat="43.39181" lon="2.37062">
        <ele>782.5</ele>
        <time>2013-11-20T11:59:29.000Z</time>
      </trkpt>
      <trkpt lat="43.39189" lon="2.37057">
        <ele>782.3</ele>
        <time>2013-11-20T11:59:35.000Z</time>
      </trkpt>
      <trkpt lat="43.39196" lon="2.3705">
        <ele>781.6</ele>
        <time>2013-11-20T11:59:42.000Z</time>
      </trkpt>
      <trkpt lat="43.39203" lon="2.37044">
        <ele>781.3</ele>
        <time>2013-11-20T11:59:48.000Z</time>
      </trkpt>
      <trkpt lat="43.39211" lon="2.3704">
        <ele>781.2</ele>
        <time>2013-11-20T11:59:55.000Z</time>
      </trkpt>
      <trkpt lat="43.39219" lon="2.37037">
        <ele>781.6</ele>
        <time>2013-11-20T12:00:1.000Z</time>
      </trkpt>
      <trkpt lat="43.39227" lon="2.37032">
        <ele>781.6</ele>
        <time>2013-11-20T12:00:8.000Z</time>
      </trkpt>
      <trkpt lat="43.39235" lon="2.3703">
        <ele>781.4</ele>
        <time>2013-11-20T12:00:15.000Z</time>
      </trkpt>
      <trkpt lat="43.39243" lon="2.37026">
        <ele>781</ele>
        <time>2013-11-20T12:00:21.000Z</time>
      </trkpt>
      <trkpt lat="43.39251" lon="2.37022">
        <ele>781</ele>
        <time>2013-11-20T12:00:28.000Z</time>
      </trkpt>
      <trkpt lat="43.39258" lon="2.37017">
        <ele>781.1</ele>
        <time>2013-11-20T12:00:35.000Z</time>
      </trkpt>
      <trkpt lat="43.39265" lon="2.37012">
        <ele>781.2</ele>
        <time>2013-11-20T12:00:42.000Z</time>
      </trkpt>
      <trkpt lat="43.39272" lon="2.37007">
        <ele>781.8</ele>
        <time>2013-11-20T12:00:49.000Z</time>
      </trkpt>
      <trkpt lat="43.3928" lon="2.37002">
        <ele>782.2</ele>
        <time>2013-11-20T12:00:56.000Z</time>
      </trkpt>
      <trkpt lat="43.39288" lon="2.36999">
        <ele>782.1</ele>
        <time>2013-11-20T12:01:3.000Z</time>
      </trkpt>
      <trkpt lat="43.39296" lon="2.36995">
        <ele>782.1</ele>
        <time>2013-11-20T12:01:10.000Z</time>
      </trkpt>
      <trkpt lat="43.39303" lon="2.36992">
        <ele>782.3</ele>
        <time>2013-11-20T12:01:16.000Z</time>
      </trkpt>
      <trkpt lat="43.39311" lon="2.36988">
        <ele>782.7</ele>
        <time>2013-11-20T12:01:22.000Z</time>
      </trkpt>
      <trkpt lat="43.3932" lon="2.36985">
        <ele>782.8</ele>
        <time>2013-11-20T12:01:29.000Z</time>
      </trkpt>
      <trkpt lat="43.39327" lon="2.36981">
        <ele>782.5</ele>
        <time>2013-11-20T12:01:36.000Z</time>
      </trkpt>
      <trkpt lat="43.39334" lon="2.36976">
        <ele>782.6</ele>
        <time>2013-11-20T12:01:43.000Z</time>
      </trkpt>
      <trkpt lat="43.39342" lon="2.3697">
        <ele>783.4</ele>
        <time>2013-11-20T12:01:51.000Z</time>
      </trkpt>
      <trkpt lat="43.3935" lon="2.36966">
        <ele>783.7</ele>
        <time>2013-11-20T12:01:59.000Z</time>
      </trkpt>
      <trkpt lat="43.39357" lon="2.36961">
        <ele>783.8</ele>
        <time>2013-11-20T12:02:6.000Z</time>
      </trkpt>
      <trkpt lat="43.39365" lon="2.36956">
        <ele>784.4</ele>
        <time>2013-11-20T12:02:14.000Z</time>
      </trkpt>
      <trkpt lat="43.39373" lon="2.3695">
        <ele>784.4</ele>
        <time>2013-11-20T12:02:22.000Z</time>
      </trkpt>
      <trkpt lat="43.39381" lon="2.36946">
        <ele>785.1</ele>
        <time>2013-11-20T12:02:32.000Z</time>
      </trkpt>
      <trkpt lat="43.39389" lon="2.3695">
        <ele>786.1</ele>
        <time>2013-11-20T12:02:44.000Z</time>
      </trkpt>
      <trkpt lat="43.39395" lon="2.36959">
        <ele>787.8</ele>
        <time>2013-11-20T12:03:28.000Z</time>
      </trkpt>
      <trkpt lat="43.39402" lon="2.36965">
        <ele>787.8</ele>
        <time>2013-11-20T12:03:38.000Z</time>
      </trkpt>
      <trkpt lat="43.3941" lon="2.3697">
        <ele>787.4</ele>
        <time>2013-11-20T12:03:47.000Z</time>
      </trkpt>
      <trkpt lat="43.39417" lon="2.36975">
        <ele>788.1</ele>
        <time>2013-11-20T12:03:56.000Z</time>
      </trkpt>
      <trkpt lat="43.39425" lon="2.3698">
        <ele>788.1</ele>
        <time>2013-11-20T12:04:4.000Z</time>
      </trkpt>
      <trkpt lat="43.39433" lon="2.36985">
        <ele>788.1</ele>
        <time>2013-11-20T12:04:14.000Z</time>
      </trkpt>
      <trkpt lat="43.39441" lon="2.36991">
        <ele>788.6</ele>
        <time>2013-11-20T12:04:22.000Z</time>
      </trkpt>
      <trkpt lat="43.39449" lon="2.36995">
        <ele>787.7</ele>
        <time>2013-11-20T12:04:30.000Z</time>
      </trkpt>
      <trkpt lat="43.39457" lon="2.36999">
        <ele>787.6</ele>
        <time>2013-11-20T12:04:38.000Z</time>
      </trkpt>
      <trkpt lat="43.39465" lon="2.37004">
        <ele>788.2</ele>
        <time>2013-11-20T12:04:46.000Z</time>
      </trkpt>
      <trkpt lat="43.39474" lon="2.37008">
        <ele>788.8</ele>
        <time>2013-11-20T12:04:54.000Z</time>
      </trkpt>
      <trkpt lat="43.39482" lon="2.37012">
        <ele>788.8</ele>
        <time>2013-11-20T12:05:2.000Z</time>
      </trkpt>
      <trkpt lat="43.3949" lon="2.37016">
        <ele>788.5</ele>
        <time>2013-11-20T12:05:11.000Z</time>
      </trkpt>
      <trkpt lat="43.39497" lon="2.37022">
        <ele>788</ele>
        <time>2013-11-20T12:05:18.000Z</time>
      </trkpt>
      <trkpt lat="43.39505" lon="2.37026">
        <ele>787.5</ele>
        <time>2013-11-20T12:05:25.000Z</time>
      </trkpt>
      <trkpt lat="43.39513" lon="2.3703">
        <ele>788.3</ele>
        <time>2013-11-20T12:05:33.000Z</time>
      </trkpt>
      <trkpt lat="43.39521" lon="2.37036">
        <ele>787.7</ele>
        <time>2013-11-20T12:05:41.000Z</time>
      </trkpt>
      <trkpt lat="43.39528" lon="2.37042">
        <ele>787.2</ele>
        <time>2013-11-20T12:05:48.000Z</time>
      </trkpt>
      <trkpt lat="43.39536" lon="2.37045">
        <ele>786.2</ele>
        <time>2013-11-20T12:05:59.000Z</time>
      </trkpt>
      <trkpt lat="43.39545" lon="2.37048">
        <ele>785.6</ele>
        <time>2013-11-20T12:06:9.000Z</time>
      </trkpt>
      <trkpt lat="43.39552" lon="2.37053">
        <ele>785.6</ele>
        <time>2013-11-20T12:06:14.000Z</time>
      </trkpt>
      <trkpt lat="43.3956" lon="2.37055">
        <ele>785.2</ele>
        <time>2013-11-20T12:06:21.000Z</time>
      </trkpt>
      <trkpt lat="43.39568" lon="2.37058">
        <ele>784</ele>
        <time>2013-11-20T12:06:29.000Z</time>
      </trkpt>
      <trkpt lat="43.39576" lon="2.37061">
        <ele>783</ele>
        <time>2013-11-20T12:06:36.000Z</time>
      </trkpt>
      <trkpt lat="43.39584" lon="2.37064">
        <ele>782.6</ele>
        <time>2013-11-20T12:06:44.000Z</time>
      </trkpt>
      <trkpt lat="43.39593" lon="2.37067">
        <ele>782.9</ele>
        <time>2013-11-20T12:06:52.000Z</time>
      </trkpt>
      <trkpt lat="43.39601" lon="2.37069">
        <ele>782.5</ele>
        <time>2013-11-20T12:06:59.000Z</time>
      </trkpt>
      <trkpt lat="43.3961" lon="2.37068">
        <ele>781.7</ele>
        <time>2013-11-20T12:07:7.000Z</time>
      </trkpt>
      <trkpt lat="43.39618" lon="2.37065">
        <ele>781</ele>
        <time>2013-11-20T12:07:15.000Z</time>
      </trkpt>
      <trkpt lat="43.39625" lon="2.3706">
        <ele>779.2</ele>
        <time>2013-11-20T12:07:44.000Z</time>
      </trkpt>
      <trkpt lat="43.39633" lon="2.37055">
        <ele>778.5</ele>
        <time>2013-11-20T12:07:50.000Z</time>
      </trkpt>
      <trkpt lat="43.39641" lon="2.37051">
        <ele>777.3</ele>
        <time>2013-11-20T12:07:58.000Z</time>
      </trkpt>
      <trkpt lat="43.39648" lon="2.37047">
        <ele>775.5</ele>
        <time>2013-11-20T12:08:6.000Z</time>
      </trkpt>
      <trkpt lat="43.39656" lon="2.37041">
        <ele>774.3</ele>
        <time>2013-11-20T12:08:15.000Z</time>
      </trkpt>
      <trkpt lat="43.39663" lon="2.37035">
        <ele>773.7</ele>
        <time>2013-11-20T12:08:22.000Z</time>
      </trkpt>
      <trkpt lat="43.39671" lon="2.37029">
        <ele>773</ele>
        <time>2013-11-20T12:08:32.000Z</time>
      </trkpt>
      <trkpt lat="43.39678" lon="2.37023">
        <ele>771.8</ele>
        <time>2013-11-20T12:08:42.000Z</time>
      </trkpt>
      <trkpt lat="43.39684" lon="2.37015">
        <ele>771.2</ele>
        <time>2013-11-20T12:08:48.000Z</time>
      </trkpt>
      <trkpt lat="43.39689" lon="2.37006">
        <ele>770.7</ele>
        <time>2013-11-20T12:08:55.000Z</time>
      </trkpt>
      <trkpt lat="43.39695" lon="2.36998">
        <ele>769.5</ele>
        <time>2013-11-20T12:09:2.000Z</time>
      </trkpt>
      <trkpt lat="43.39702" lon="2.36993">
        <ele>769.3</ele>
        <time>2013-11-20T12:09:9.000Z</time>
      </trkpt>
      <trkpt lat="43.39709" lon="2.36987">
        <ele>768</ele>
        <time>2013-11-20T12:09:17.000Z</time>
      </trkpt>
      <trkpt lat="43.39715" lon="2.36978">
        <ele>766.5</ele>
        <time>2013-11-20T12:09:24.000Z</time>
      </trkpt>
      <trkpt lat="43.39723" lon="2.36971">
        <ele>763.5</ele>
        <time>2013-11-20T12:09:35.000Z</time>
      </trkpt>
      <trkpt lat="43.39729" lon="2.36964">
        <ele>762.2</ele>
        <time>2013-11-20T12:09:43.000Z</time>
      </trkpt>
      <trkpt lat="43.39737" lon="2.36958">
        <ele>761.4</ele>
        <time>2013-11-20T12:09:51.000Z</time>
      </trkpt>
      <trkpt lat="43.39744" lon="2.36953">
        <ele>760.3</ele>
        <time>2013-11-20T12:09:59.000Z</time>
      </trkpt>
      <trkpt lat="43.39743" lon="2.36964">
        <ele>758.2</ele>
        <time>2013-11-20T12:10:18.000Z</time>
      </trkpt>
      <trkpt lat="43.39742" lon="2.36975">
        <ele>757.6</ele>
        <time>2013-11-20T12:10:25.000Z</time>
      </trkpt>
      <trkpt lat="43.39742" lon="2.36986">
        <ele>757.1</ele>
        <time>2013-11-20T12:10:31.000Z</time>
      </trkpt>
      <trkpt lat="43.39738" lon="2.36996">
        <ele>756.6</ele>
        <time>2013-11-20T12:10:39.000Z</time>
      </trkpt>
      <trkpt lat="43.39733" lon="2.37006">
        <ele>755.9</ele>
        <time>2013-11-20T12:10:47.000Z</time>
      </trkpt>
      <trkpt lat="43.39729" lon="2.37015">
        <ele>755.5</ele>
        <time>2013-11-20T12:10:55.000Z</time>
      </trkpt>
      <trkpt lat="43.39725" lon="2.37026">
        <ele>754.6</ele>
        <time>2013-11-20T12:11:3.000Z</time>
      </trkpt>
      <trkpt lat="43.39718" lon="2.37035">
        <ele>754.2</ele>
        <time>2013-11-20T12:11:11.000Z</time>
      </trkpt>
      <trkpt lat="43.39712" lon="2.37042">
        <ele>754</ele>
        <time>2013-11-20T12:11:17.000Z</time>
      </trkpt>
      <trkpt lat="43.39706" lon="2.37049">
        <ele>753.8</ele>
        <time>2013-11-20T12:11:24.000Z</time>
      </trkpt>
      <trkpt lat="43.39699" lon="2.37055">
        <ele>753.8</ele>
        <time>2013-11-20T12:11:30.000Z</time>
      </trkpt>
      <trkpt lat="43.39695" lon="2.37066">
        <ele>753.3</ele>
        <time>2013-11-20T12:11:38.000Z</time>
      </trkpt>
      <trkpt lat="43.39694" lon="2.37077">
        <ele>753</ele>
        <time>2013-11-20T12:11:46.000Z</time>
      </trkpt>
      <trkpt lat="43.39704" lon="2.37096">
        <ele>751</ele>
        <time>2013-11-20T12:13:53.000Z</time>
      </trkpt>
      <trkpt lat="43.39713" lon="2.37098">
        <ele>749.9</ele>
        <time>2013-11-20T12:14:17.000Z</time>
      </trkpt>
      <trkpt lat="43.39715" lon="2.3711">
        <ele>750.7</ele>
        <time>2013-11-20T12:15:18.000Z</time>
      </trkpt>
      <trkpt lat="43.39711" lon="2.37121">
        <ele>750.4</ele>
        <time>2013-11-20T12:15:27.000Z</time>
      </trkpt>
      <trkpt lat="43.39705" lon="2.3713">
        <ele>750.3</ele>
        <time>2013-11-20T12:15:43.000Z</time>
      </trkpt>
      <trkpt lat="43.39699" lon="2.37139">
        <ele>749.2</ele>
        <time>2013-11-20T12:16:0.000Z</time>
      </trkpt>
      <trkpt lat="43.39705" lon="2.37148">
        <ele>747.9</ele>
        <time>2013-11-20T12:16:24.000Z</time>
      </trkpt>
      <trkpt lat="43.39702" lon="2.37151">
        <ele>747.8</ele>
        <time>2013-11-20T12:17:44.000Z</time>
      </trkpt>
      <trkpt lat="43.39702" lon="2.37149">
        <ele>747.6</ele>
        <time>2013-11-20T12:17:46.000Z</time>
      </trkpt>
      <trkpt lat="43.39695" lon="2.37159">
        <ele>734</ele>
        <time>2013-11-20T12:44:8.000Z</time>
      </trkpt>
      <trkpt lat="43.39695" lon="2.3717">
        <ele>735.5</ele>
        <time>2013-11-20T12:44:16.000Z</time>
      </trkpt>
      <trkpt lat="43.39703" lon="2.37167">
        <ele>735.8</ele>
        <time>2013-11-20T12:44:30.000Z</time>
      </trkpt>
      <trkpt lat="43.3971" lon="2.37165">
        <ele>735.8</ele>
        <time>2013-11-20T12:44:36.000Z</time>
      </trkpt>
      <trkpt lat="43.39713" lon="2.37166">
        <ele>735.6</ele>
        <time>2013-11-20T12:44:37.000Z</time>
      </trkpt>
      <trkpt lat="43.39709" lon="2.37163">
        <ele>735.8</ele>
        <time>2013-11-20T12:44:46.000Z</time>
      </trkpt>
      <trkpt lat="43.39701" lon="2.37159">
        <ele>736.1</ele>
        <time>2013-11-20T12:44:49.000Z</time>
      </trkpt>
      <trkpt lat="43.39695" lon="2.3715">
        <ele>736.9</ele>
        <time>2013-11-20T12:45:4.000Z</time>
      </trkpt>
      <trkpt lat="43.39691" lon="2.37141">
        <ele>737</ele>
        <time>2013-11-20T12:45:12.000Z</time>
      </trkpt>
      <trkpt lat="43.39686" lon="2.37132">
        <ele>737.1</ele>
        <time>2013-11-20T12:45:16.000Z</time>
      </trkpt>
      <trkpt lat="43.39681" lon="2.37123">
        <ele>737.8</ele>
        <time>2013-11-20T12:45:23.000Z</time>
      </trkpt>
      <trkpt lat="43.39673" lon="2.37118">
        <ele>738.3</ele>
        <time>2013-11-20T12:45:30.000Z</time>
      </trkpt>
      <trkpt lat="43.39666" lon="2.37111">
        <ele>741.2</ele>
        <time>2013-11-20T12:45:51.000Z</time>
      </trkpt>
      <trkpt lat="43.39666" lon="2.37111">
        <ele>741.3</ele>
        <time>2013-11-20T12:45:52.000Z</time>
      </trkpt>
      <trkpt lat="43.39682" lon="2.37103">
        <ele>743.9</ele>
        <time>2013-11-20T12:46:21.000Z</time>
      </trkpt>
      <trkpt lat="43.39689" lon="2.37097">
        <ele>744.2</ele>
        <time>2013-11-20T12:46:28.000Z</time>
      </trkpt>
      <trkpt lat="43.3969" lon="2.37086">
        <ele>744.3</ele>
        <time>2013-11-20T12:46:35.000Z</time>
      </trkpt>
      <trkpt lat="43.39691" lon="2.37074">
        <ele>746.1</ele>
        <time>2013-11-20T12:46:44.000Z</time>
      </trkpt>
      <trkpt lat="43.3969" lon="2.37062">
        <ele>746.7</ele>
        <time>2013-11-20T12:46:51.000Z</time>
      </trkpt>
      <trkpt lat="43.39695" lon="2.37053">
        <ele>746.4</ele>
        <time>2013-11-20T12:46:57.000Z</time>
      </trkpt>
      <trkpt lat="43.39696" lon="2.37052">
        <ele>746.3</ele>
        <time>2013-11-20T12:46:58.000Z</time>
      </trkpt>
      <trkpt lat="43.39706" lon="2.37036">
        <ele>746.9</ele>
        <time>2013-11-20T12:47:14.000Z</time>
      </trkpt>
      <trkpt lat="43.39713" lon="2.37028">
        <ele>747.1</ele>
        <time>2013-11-20T12:47:23.000Z</time>
      </trkpt>
      <trkpt lat="43.39716" lon="2.37017">
        <ele>747.7</ele>
        <time>2013-11-20T12:47:33.000Z</time>
      </trkpt>
      <trkpt lat="43.39721" lon="2.37008">
        <ele>748.3</ele>
        <time>2013-11-20T12:47:39.000Z</time>
      </trkpt>
      <trkpt lat="43.39724" lon="2.36999">
        <ele>748</ele>
        <time>2013-11-20T12:47:45.000Z</time>
      </trkpt>
      <trkpt lat="43.39728" lon="2.36989">
        <ele>748.1</ele>
        <time>2013-11-20T12:47:50.000Z</time>
      </trkpt>
      <trkpt lat="43.39734" lon="2.36982">
        <ele>748.6</ele>
        <time>2013-11-20T12:47:56.000Z</time>
      </trkpt>
      <trkpt lat="43.39739" lon="2.36973">
        <ele>749.5</ele>
        <time>2013-11-20T12:48:4.000Z</time>
      </trkpt>
      <trkpt lat="43.3974" lon="2.36972">
        <ele>749.5</ele>
        <time>2013-11-20T12:48:5.000Z</time>
      </trkpt>
      <trkpt lat="43.39751" lon="2.36957">
        <ele>747.5</ele>
        <time>2013-11-20T12:48:24.000Z</time>
      </trkpt>
      <trkpt lat="43.39757" lon="2.36949">
        <ele>746.6</ele>
        <time>2013-11-20T12:48:30.000Z</time>
      </trkpt>
      <trkpt lat="43.39762" lon="2.3694">
        <ele>744.8</ele>
        <time>2013-11-20T12:48:38.000Z</time>
      </trkpt>
      <trkpt lat="43.39769" lon="2.36933">
        <ele>743.5</ele>
        <time>2013-11-20T12:48:46.000Z</time>
      </trkpt>
      <trkpt lat="43.39775" lon="2.36925">
        <ele>742.6</ele>
        <time>2013-11-20T12:48:55.000Z</time>
      </trkpt>
      <trkpt lat="43.39782" lon="2.36919">
        <ele>741.6</ele>
        <time>2013-11-20T12:49:1.000Z</time>
      </trkpt>
      <trkpt lat="43.39787" lon="2.3691">
        <ele>740</ele>
        <time>2013-11-20T12:49:9.000Z</time>
      </trkpt>
      <trkpt lat="43.39788" lon="2.36909">
        <ele>740</ele>
        <time>2013-11-20T12:49:10.000Z</time>
      </trkpt>
      <trkpt lat="43.39799" lon="2.36893">
        <ele>737.9</ele>
        <time>2013-11-20T12:49:23.000Z</time>
      </trkpt>
      <trkpt lat="43.39805" lon="2.36885">
        <ele>736.6</ele>
        <time>2013-11-20T12:49:30.000Z</time>
      </trkpt>
      <trkpt lat="43.39809" lon="2.36875">
        <ele>735.6</ele>
        <time>2013-11-20T12:49:37.000Z</time>
      </trkpt>
      <trkpt lat="43.39814" lon="2.36865">
        <ele>734.7</ele>
        <time>2013-11-20T12:49:44.000Z</time>
      </trkpt>
      <trkpt lat="43.39819" lon="2.36856">
        <ele>733.6</ele>
        <time>2013-11-20T12:49:52.000Z</time>
      </trkpt>
      <trkpt lat="43.39823" lon="2.36845">
        <ele>733</ele>
        <time>2013-11-20T12:49:58.000Z</time>
      </trkpt>
      <trkpt lat="43.39827" lon="2.36835">
        <ele>731.9</ele>
        <time>2013-11-20T12:50:8.000Z</time>
      </trkpt>
      <trkpt lat="43.39833" lon="2.36828">
        <ele>730.7</ele>
        <time>2013-11-20T12:50:16.000Z</time>
      </trkpt>
      <trkpt lat="43.39834" lon="2.36827">
        <ele>730.6</ele>
        <time>2013-11-20T12:50:17.000Z</time>
      </trkpt>
      <trkpt lat="43.39849" lon="2.3682">
        <ele>728.8</ele>
        <time>2013-11-20T12:50:31.000Z</time>
      </trkpt>
      <trkpt lat="43.39856" lon="2.36826">
        <ele>728.2</ele>
        <time>2013-11-20T12:50:37.000Z</time>
      </trkpt>
      <trkpt lat="43.3986" lon="2.36836">
        <ele>728.1</ele>
        <time>2013-11-20T12:50:42.000Z</time>
      </trkpt>
      <trkpt lat="43.39863" lon="2.36846">
        <ele>728.6</ele>
        <time>2013-11-20T12:50:49.000Z</time>
      </trkpt>
      <trkpt lat="43.39863" lon="2.36857">
        <ele>729.2</ele>
        <time>2013-11-20T12:50:56.000Z</time>
      </trkpt>
      <trkpt lat="43.39862" lon="2.36869">
        <ele>730.8</ele>
        <time>2013-11-20T12:51:4.000Z</time>
      </trkpt>
      <trkpt lat="43.3986" lon="2.36881">
        <ele>732.4</ele>
        <time>2013-11-20T12:51:13.000Z</time>
      </trkpt>
      <trkpt lat="43.39859" lon="2.36892">
        <ele>733.8</ele>
        <time>2013-11-20T12:51:21.000Z</time>
      </trkpt>
      <trkpt lat="43.39859" lon="2.36893">
        <ele>733.9</ele>
        <time>2013-11-20T12:51:22.000Z</time>
      </trkpt>
      <trkpt lat="43.39856" lon="2.36915">
        <ele>737.4</ele>
        <time>2013-11-20T12:51:39.000Z</time>
      </trkpt>
      <trkpt lat="43.39854" lon="2.36927">
        <ele>739.4</ele>
        <time>2013-11-20T12:51:50.000Z</time>
      </trkpt>
      <trkpt lat="43.39852" lon="2.36939">
        <ele>741.5</ele>
        <time>2013-11-20T12:52:5.000Z</time>
      </trkpt>
      <trkpt lat="43.39853" lon="2.3695">
        <ele>742.9</ele>
        <time>2013-11-20T12:52:18.000Z</time>
      </trkpt>
      <trkpt lat="43.39853" lon="2.36961">
        <ele>744.2</ele>
        <time>2013-11-20T12:52:28.000Z</time>
      </trkpt>
      <trkpt lat="43.39853" lon="2.36963">
        <ele>744.2</ele>
        <time>2013-11-20T12:52:29.000Z</time>
      </trkpt>
      <trkpt lat="43.39853" lon="2.36986">
        <ele>746.8</ele>
        <time>2013-11-20T12:52:50.000Z</time>
      </trkpt>
      <trkpt lat="43.39852" lon="2.36997">
        <ele>748.5</ele>
        <time>2013-11-20T12:53:1.000Z</time>
      </trkpt>
      <trkpt lat="43.39851" lon="2.37009">
        <ele>749.9</ele>
        <time>2013-11-20T12:53:11.000Z</time>
      </trkpt>
      <trkpt lat="43.39852" lon="2.37021">
        <ele>751.4</ele>
        <time>2013-11-20T12:53:21.000Z</time>
      </trkpt>
      <trkpt lat="43.39853" lon="2.37032">
        <ele>752.7</ele>
        <time>2013-11-20T12:53:31.000Z</time>
      </trkpt>
      <trkpt lat="43.39854" lon="2.37034">
        <ele>752.8</ele>
        <time>2013-11-20T12:53:32.000Z</time>
      </trkpt>
      <trkpt lat="43.3986" lon="2.37055">
        <ele>755.4</ele>
        <time>2013-11-20T12:53:50.000Z</time>
      </trkpt>
      <trkpt lat="43.39865" lon="2.37065">
        <ele>757.3</ele>
        <time>2013-11-20T12:54:4.000Z</time>
      </trkpt>
      <trkpt lat="43.39871" lon="2.37073">
        <ele>758.2</ele>
        <time>2013-11-20T12:54:14.000Z</time>
      </trkpt>
      <trkpt lat="43.39877" lon="2.37081">
        <ele>759.1</ele>
        <time>2013-11-20T12:54:23.000Z</time>
      </trkpt>
      <trkpt lat="43.39884" lon="2.37086">
        <ele>759.8</ele>
        <time>2013-11-20T12:54:32.000Z</time>
      </trkpt>
      <trkpt lat="43.39885" lon="2.37087">
        <ele>759.8</ele>
        <time>2013-11-20T12:54:33.000Z</time>
      </trkpt>
      <trkpt lat="43.399" lon="2.37095">
        <ele>759.6</ele>
        <time>2013-11-20T12:54:48.000Z</time>
      </trkpt>
      <trkpt lat="43.39906" lon="2.37101">
        <ele>759.6</ele>
        <time>2013-11-20T12:54:56.000Z</time>
      </trkpt>
      <trkpt lat="43.39913" lon="2.37108">
        <ele>759.3</ele>
        <time>2013-11-20T12:55:8.000Z</time>
      </trkpt>
      <trkpt lat="43.39919" lon="2.37115">
        <ele>759</ele>
        <time>2013-11-20T12:55:17.000Z</time>
      </trkpt>
      <trkpt lat="43.39925" lon="2.37124">
        <ele>758.4</ele>
        <time>2013-11-20T12:55:24.000Z</time>
      </trkpt>
      <trkpt lat="43.39928" lon="2.37134">
        <ele>757.6</ele>
        <time>2013-11-20T12:55:31.000Z</time>
      </trkpt>
      <trkpt lat="43.39933" lon="2.37143">
        <ele>757.1</ele>
        <time>2013-11-20T12:55:38.000Z</time>
      </trkpt>
      <trkpt lat="43.39934" lon="2.37144">
        <ele>757.1</ele>
        <time>2013-11-20T12:55:39.000Z</time>
      </trkpt>
      <trkpt lat="43.39943" lon="2.37163">
        <ele>756</ele>
        <time>2013-11-20T12:55:53.000Z</time>
      </trkpt>
      <trkpt lat="43.3995" lon="2.37169">
        <ele>755.4</ele>
        <time>2013-11-20T12:56:1.000Z</time>
      </trkpt>
      <trkpt lat="43.39957" lon="2.37173">
        <ele>755.2</ele>
        <time>2013-11-20T12:56:8.000Z</time>
      </trkpt>
      <trkpt lat="43.39966" lon="2.37174">
        <ele>754.7</ele>
        <time>2013-11-20T12:56:15.000Z</time>
      </trkpt>
      <trkpt lat="43.39974" lon="2.37173">
        <ele>754.4</ele>
        <time>2013-11-20T12:56:22.000Z</time>
      </trkpt>
      <trkpt lat="43.39983" lon="2.37171">
        <ele>754</ele>
        <time>2013-11-20T12:56:29.000Z</time>
      </trkpt>
      <trkpt lat="43.3999" lon="2.37175">
        <ele>752.3</ele>
        <time>2013-11-20T12:56:36.000Z</time>
      </trkpt>
      <trkpt lat="43.39997" lon="2.37181">
        <ele>751.5</ele>
        <time>2013-11-20T12:56:43.000Z</time>
      </trkpt>
      <trkpt lat="43.39998" lon="2.37181">
        <ele>751.4</ele>
        <time>2013-11-20T12:56:44.000Z</time>
      </trkpt>
      <trkpt lat="43.40012" lon="2.37187">
        <ele>749.1</ele>
        <time>2013-11-20T12:56:55.000Z</time>
      </trkpt>
      <trkpt lat="43.4002" lon="2.3719">
        <ele>747.5</ele>
        <time>2013-11-20T12:57:2.000Z</time>
      </trkpt>
      <trkpt lat="43.40027" lon="2.37196">
        <ele>746</ele>
        <time>2013-11-20T12:57:9.000Z</time>
      </trkpt>
      <trkpt lat="43.40035" lon="2.37202">
        <ele>745.1</ele>
        <time>2013-11-20T12:57:15.000Z</time>
      </trkpt>
      <trkpt lat="43.40041" lon="2.37207">
        <ele>744.3</ele>
        <time>2013-11-20T12:57:20.000Z</time>
      </trkpt>
      <trkpt lat="43.40047" lon="2.37215">
        <ele>743.3</ele>
        <time>2013-11-20T12:57:26.000Z</time>
      </trkpt>
      <trkpt lat="43.40052" lon="2.37225">
        <ele>742.8</ele>
        <time>2013-11-20T12:57:33.000Z</time>
      </trkpt>
      <trkpt lat="43.40056" lon="2.37235">
        <ele>742.5</ele>
        <time>2013-11-20T12:57:39.000Z</time>
      </trkpt>
      <trkpt lat="43.4006" lon="2.37245">
        <ele>741.2</ele>
        <time>2013-11-20T12:57:46.000Z</time>
      </trkpt>
      <trkpt lat="43.40061" lon="2.37247">
        <ele>741.1</ele>
        <time>2013-11-20T12:57:47.000Z</time>
      </trkpt>
      <trkpt lat="43.40071" lon="2.37264">
        <ele>739.4</ele>
        <time>2013-11-20T12:58:0.000Z</time>
      </trkpt>
      <trkpt lat="43.40078" lon="2.37271">
        <ele>737.6</ele>
        <time>2013-11-20T12:58:8.000Z</time>
      </trkpt>
      <trkpt lat="43.40085" lon="2.37276">
        <ele>737.1</ele>
        <time>2013-11-20T12:58:14.000Z</time>
      </trkpt>
      <trkpt lat="43.40091" lon="2.37284">
        <ele>736.3</ele>
        <time>2013-11-20T12:58:20.000Z</time>
      </trkpt>
      <trkpt lat="43.40092" lon="2.37294">
        <ele>735.9</ele>
        <time>2013-11-20T12:58:24.000Z</time>
      </trkpt>
      <trkpt lat="43.40086" lon="2.37302">
        <ele>736.2</ele>
        <time>2013-11-20T12:58:29.000Z</time>
      </trkpt>
      <trkpt lat="43.40079" lon="2.37309">
        <ele>736.2</ele>
        <time>2013-11-20T12:58:36.000Z</time>
      </trkpt>
      <trkpt lat="43.40073" lon="2.37315">
        <ele>735.6</ele>
        <time>2013-11-20T12:58:43.000Z</time>
      </trkpt>
      <trkpt lat="43.40067" lon="2.37325">
        <ele>734.1</ele>
        <time>2013-11-20T12:58:51.000Z</time>
      </trkpt>
      <trkpt lat="43.40066" lon="2.37326">
        <ele>734</ele>
        <time>2013-11-20T12:58:52.000Z</time>
      </trkpt>
      <trkpt lat="43.40055" lon="2.3734">
        <ele>731.6</ele>
        <time>2013-11-20T12:59:5.000Z</time>
      </trkpt>
      <trkpt lat="43.4005" lon="2.3735">
        <ele>730.6</ele>
        <time>2013-11-20T12:59:13.000Z</time>
      </trkpt>
      <trkpt lat="43.40044" lon="2.37359">
        <ele>729.1</ele>
        <time>2013-11-20T12:59:22.000Z</time>
      </trkpt>
      <trkpt lat="43.40039" lon="2.37368">
        <ele>728</ele>
        <time>2013-11-20T12:59:29.000Z</time>
      </trkpt>
      <trkpt lat="43.40034" lon="2.37377">
        <ele>726.5</ele>
        <time>2013-11-20T12:59:38.000Z</time>
      </trkpt>
      <trkpt lat="43.40029" lon="2.37386">
        <ele>724.9</ele>
        <time>2013-11-20T12:59:46.000Z</time>
      </trkpt>
      <trkpt lat="43.40024" lon="2.37396">
        <ele>723.8</ele>
        <time>2013-11-20T12:59:54.000Z</time>
      </trkpt>
      <trkpt lat="43.40023" lon="2.37397">
        <ele>723.6</ele>
        <time>2013-11-20T12:59:55.000Z</time>
      </trkpt>
      <trkpt lat="43.40014" lon="2.37414">
        <ele>721.9</ele>
        <time>2013-11-20T13:00:8.000Z</time>
      </trkpt>
      <trkpt lat="43.40009" lon="2.37424">
        <ele>719.9</ele>
        <time>2013-11-20T13:00:16.000Z</time>
      </trkpt>
      <trkpt lat="43.40004" lon="2.37434">
        <ele>718.6</ele>
        <time>2013-11-20T13:00:25.000Z</time>
      </trkpt>
      <trkpt lat="43.39999" lon="2.37443">
        <ele>717.8</ele>
        <time>2013-11-20T13:00:32.000Z</time>
      </trkpt>
      <trkpt lat="43.39996" lon="2.37453">
        <ele>717.5</ele>
        <time>2013-11-20T13:00:39.000Z</time>
      </trkpt>
      <trkpt lat="43.39992" lon="2.37463">
        <ele>716</ele>
        <time>2013-11-20T13:00:47.000Z</time>
      </trkpt>
      <trkpt lat="43.39986" lon="2.37473">
        <ele>714.4</ele>
        <time>2013-11-20T13:00:56.000Z</time>
      </trkpt>
      <trkpt lat="43.39986" lon="2.37474">
        <ele>714.3</ele>
        <time>2013-11-20T13:00:57.000Z</time>
      </trkpt>
      <trkpt lat="43.39978" lon="2.37492">
        <ele>713.3</ele>
        <time>2013-11-20T13:01:11.000Z</time>
      </trkpt>
      <trkpt lat="43.3997" lon="2.37498">
        <ele>712.5</ele>
        <time>2013-11-20T13:01:19.000Z</time>
      </trkpt>
      <trkpt lat="43.39964" lon="2.37506">
        <ele>711.5</ele>
        <time>2013-11-20T13:01:27.000Z</time>
      </trkpt>
      <trkpt lat="43.39959" lon="2.37515">
        <ele>710.1</ele>
        <time>2013-11-20T13:01:34.000Z</time>
      </trkpt>
      <trkpt lat="43.39954" lon="2.37525">
        <ele>709.9</ele>
        <time>2013-11-20T13:01:43.000Z</time>
      </trkpt>
      <trkpt lat="43.39952" lon="2.37537">
        <ele>709.6</ele>
        <time>2013-11-20T13:01:51.000Z</time>
      </trkpt>
      <trkpt lat="43.39947" lon="2.37509">
        <ele>704</ele>
        <time>2013-11-20T13:04:39.000Z</time>
      </trkpt>
      <trkpt lat="43.39947" lon="2.37507">
        <ele>704.4</ele>
        <time>2013-11-20T13:04:42.000Z</time>
      </trkpt>
      <trkpt lat="43.39947" lon="2.37497">
        <ele>703.4</ele>
        <time>2013-11-20T13:07:1.000Z</time>
      </trkpt>
      <trkpt lat="43.39951" lon="2.37473">
        <ele>701.3</ele>
        <time>2013-11-20T13:07:54.000Z</time>
      </trkpt>
      <trkpt lat="43.39945" lon="2.37481">
        <ele>700.5</ele>
        <time>2013-11-20T13:10:58.000Z</time>
      </trkpt>
      <trkpt lat="43.39944" lon="2.37482">
        <ele>700.4</ele>
        <time>2013-11-20T13:10:59.000Z</time>
      </trkpt>
      <trkpt lat="43.39937" lon="2.37502">
        <ele>698.8</ele>
        <time>2013-11-20T13:11:22.000Z</time>
      </trkpt>
      <trkpt lat="43.39935" lon="2.37514">
        <ele>697.9</ele>
        <time>2013-11-20T13:11:30.000Z</time>
      </trkpt>
      <trkpt lat="43.39931" lon="2.37525">
        <ele>697.7</ele>
        <time>2013-11-20T13:11:38.000Z</time>
      </trkpt>
      <trkpt lat="43.39927" lon="2.37535">
        <ele>697</ele>
        <time>2013-11-20T13:11:45.000Z</time>
      </trkpt>
      <trkpt lat="43.39924" lon="2.37545">
        <ele>696.6</ele>
        <time>2013-11-20T13:11:53.000Z</time>
      </trkpt>
      <trkpt lat="43.3992" lon="2.37556">
        <ele>696.2</ele>
        <time>2013-11-20T13:12:4.000Z</time>
      </trkpt>
      <trkpt lat="43.3992" lon="2.37557">
        <ele>696.2</ele>
        <time>2013-11-20T13:12:5.000Z</time>
      </trkpt>
      <trkpt lat="43.39917" lon="2.37578">
        <ele>695.3</ele>
        <time>2013-11-20T13:12:18.000Z</time>
      </trkpt>
      <trkpt lat="43.39916" lon="2.3759">
        <ele>694.3</ele>
        <time>2013-11-20T13:12:24.000Z</time>
      </trkpt>
      <trkpt lat="43.39915" lon="2.37601">
        <ele>693.8</ele>
        <time>2013-11-20T13:12:29.000Z</time>
      </trkpt>
      <trkpt lat="43.39914" lon="2.37613">
        <ele>692.9</ele>
        <time>2013-11-20T13:12:35.000Z</time>
      </trkpt>
      <trkpt lat="43.39914" lon="2.37625">
        <ele>691.3</ele>
        <time>2013-11-20T13:12:43.000Z</time>
      </trkpt>
      <trkpt lat="43.39912" lon="2.37637">
        <ele>690.6</ele>
        <time>2013-11-20T13:12:50.000Z</time>
      </trkpt>
      <trkpt lat="43.39911" lon="2.37649">
        <ele>690.2</ele>
        <time>2013-11-20T13:12:57.000Z</time>
      </trkpt>
      <trkpt lat="43.39913" lon="2.3766">
        <ele>690.1</ele>
        <time>2013-11-20T13:13:4.000Z</time>
      </trkpt>
      <trkpt lat="43.39916" lon="2.37669">
        <ele>689.9</ele>
        <time>2013-11-20T13:13:9.000Z</time>
      </trkpt>
      <trkpt lat="43.39917" lon="2.37671">
        <ele>689.9</ele>
        <time>2013-11-20T13:13:10.000Z</time>
      </trkpt>
      <trkpt lat="43.3992" lon="2.37693">
        <ele>688.7</ele>
        <time>2013-11-20T13:13:21.000Z</time>
      </trkpt>
      <trkpt lat="43.39921" lon="2.37704">
        <ele>688.1</ele>
        <time>2013-11-20T13:13:28.000Z</time>
      </trkpt>
      <trkpt lat="43.39921" lon="2.37716">
        <ele>685.7</ele>
        <time>2013-11-20T13:13:51.000Z</time>
      </trkpt>
      <trkpt lat="43.39919" lon="2.37726">
        <ele>685.6</ele>
        <time>2013-11-20T13:13:58.000Z</time>
      </trkpt>
      <trkpt lat="43.39917" lon="2.37737">
        <ele>685.4</ele>
        <time>2013-11-20T13:14:7.000Z</time>
      </trkpt>
      <trkpt lat="43.39915" lon="2.37749">
        <ele>685.6</ele>
        <time>2013-11-20T13:14:15.000Z</time>
      </trkpt>
      <trkpt lat="43.39915" lon="2.3775">
        <ele>685.6</ele>
        <time>2013-11-20T13:14:16.000Z</time>
      </trkpt>
      <trkpt lat="43.3991" lon="2.37771">
        <ele>686.3</ele>
        <time>2013-11-20T13:14:33.000Z</time>
      </trkpt>
      <trkpt lat="43.39904" lon="2.37779">
        <ele>685.9</ele>
        <time>2013-11-20T13:14:41.000Z</time>
      </trkpt>
      <trkpt lat="43.39899" lon="2.37787">
        <ele>685.1</ele>
        <time>2013-11-20T13:14:49.000Z</time>
      </trkpt>
      <trkpt lat="43.39895" lon="2.37798">
        <ele>684.9</ele>
        <time>2013-11-20T13:14:57.000Z</time>
      </trkpt>
      <trkpt lat="43.39891" lon="2.37808">
        <ele>684.8</ele>
        <time>2013-11-20T13:15:4.000Z</time>
      </trkpt>
      <trkpt lat="43.39886" lon="2.37818">
        <ele>684.5</ele>
        <time>2013-11-20T13:15:11.000Z</time>
      </trkpt>
      <trkpt lat="43.39881" lon="2.37826">
        <ele>684.5</ele>
        <time>2013-11-20T13:15:19.000Z</time>
      </trkpt>
      <trkpt lat="43.3988" lon="2.37827">
        <ele>684.7</ele>
        <time>2013-11-20T13:15:20.000Z</time>
      </trkpt>
      <trkpt lat="43.39869" lon="2.37839">
        <ele>684.8</ele>
        <time>2013-11-20T13:15:31.000Z</time>
      </trkpt>
      <trkpt lat="43.39864" lon="2.37849">
        <ele>684.9</ele>
        <time>2013-11-20T13:15:39.000Z</time>
      </trkpt>
      <trkpt lat="43.39858" lon="2.37857">
        <ele>684.9</ele>
        <time>2013-11-20T13:15:47.000Z</time>
      </trkpt>
      <trkpt lat="43.39852" lon="2.37865">
        <ele>684.4</ele>
        <time>2013-11-20T13:15:53.000Z</time>
      </trkpt>
      <trkpt lat="43.39847" lon="2.37875">
        <ele>684.6</ele>
        <time>2013-11-20T13:16:2.000Z</time>
      </trkpt>
      <trkpt lat="43.39844" lon="2.37886">
        <ele>685.6</ele>
        <time>2013-11-20T13:16:12.000Z</time>
      </trkpt>
      <trkpt lat="43.3984" lon="2.37897">
        <ele>686.4</ele>
        <time>2013-11-20T13:16:21.000Z</time>
      </trkpt>
      <trkpt lat="43.3984" lon="2.37898">
        <ele>686.5</ele>
        <time>2013-11-20T13:16:22.000Z</time>
      </trkpt>
      <trkpt lat="43.39832" lon="2.37917">
        <ele>687.7</ele>
        <time>2013-11-20T13:16:36.000Z</time>
      </trkpt>
      <trkpt lat="43.39827" lon="2.37927">
        <ele>688.1</ele>
        <time>2013-11-20T13:16:46.000Z</time>
      </trkpt>
      <trkpt lat="43.39822" lon="2.37937">
        <ele>688.3</ele>
        <time>2013-11-20T13:16:55.000Z</time>
      </trkpt>
      <trkpt lat="43.39817" lon="2.37947">
        <ele>688</ele>
        <time>2013-11-20T13:17:1.000Z</time>
      </trkpt>
      <trkpt lat="43.39816" lon="2.37958">
        <ele>688.4</ele>
        <time>2013-11-20T13:17:7.000Z</time>
      </trkpt>
      <trkpt lat="43.39814" lon="2.3797">
        <ele>688.5</ele>
        <time>2013-11-20T13:17:15.000Z</time>
      </trkpt>
      <trkpt lat="43.39811" lon="2.37981">
        <ele>688</ele>
        <time>2013-11-20T13:17:24.000Z</time>
      </trkpt>
      <trkpt lat="43.39811" lon="2.37982">
        <ele>688</ele>
        <time>2013-11-20T13:17:25.000Z</time>
      </trkpt>
      <trkpt lat="43.3981" lon="2.38004">
        <ele>686.4</ele>
        <time>2013-11-20T13:17:41.000Z</time>
      </trkpt>
      <trkpt lat="43.39809" lon="2.38015">
        <ele>684.3</ele>
        <time>2013-11-20T13:17:52.000Z</time>
      </trkpt>
      <trkpt lat="43.39811" lon="2.38027">
        <ele>683.3</ele>
        <time>2013-11-20T13:18:0.000Z</time>
      </trkpt>
      <trkpt lat="43.39815" lon="2.38038">
        <ele>682.6</ele>
        <time>2013-11-20T13:18:8.000Z</time>
      </trkpt>
      <trkpt lat="43.39821" lon="2.38046">
        <ele>681.5</ele>
        <time>2013-11-20T13:18:19.000Z</time>
      </trkpt>
      <trkpt lat="43.39827" lon="2.38055">
        <ele>680.4</ele>
        <time>2013-11-20T13:18:28.000Z</time>
      </trkpt>
      <trkpt lat="43.39828" lon="2.38056">
        <ele>680.4</ele>
        <time>2013-11-20T13:18:29.000Z</time>
      </trkpt>
      <trkpt lat="43.39838" lon="2.38073">
        <ele>678.3</ele>
        <time>2013-11-20T13:18:49.000Z</time>
      </trkpt>
      <trkpt lat="43.39841" lon="2.38084">
        <ele>676.6</ele>
        <time>2013-11-20T13:18:59.000Z</time>
      </trkpt>
      <trkpt lat="43.39842" lon="2.38096">
        <ele>674.3</ele>
        <time>2013-11-20T13:19:11.000Z</time>
      </trkpt>
      <trkpt lat="43.39846" lon="2.38106">
        <ele>673.2</ele>
        <time>2013-11-20T13:19:26.000Z</time>
      </trkpt>
      <trkpt lat="43.39845" lon="2.38118">
        <ele>672.9</ele>
        <time>2013-11-20T13:21:34.000Z</time>
      </trkpt>
      <trkpt lat="43.39845" lon="2.38119">
        <ele>673</ele>
        <time>2013-11-20T13:21:35.000Z</time>
      </trkpt>
      <trkpt lat="43.39831" lon="2.38131">
        <ele>673</ele>
        <time>2013-11-20T13:21:54.000Z</time>
      </trkpt>
      <trkpt lat="43.39827" lon="2.3814">
        <ele>673.4</ele>
        <time>2013-11-20T13:22:7.000Z</time>
      </trkpt>
      <trkpt lat="43.39821" lon="2.38147">
        <ele>674.4</ele>
        <time>2013-11-20T13:22:15.000Z</time>
      </trkpt>
      <trkpt lat="43.39815" lon="2.38155">
        <ele>673.8</ele>
        <time>2013-11-20T13:22:22.000Z</time>
      </trkpt>
      <trkpt lat="43.39809" lon="2.38163">
        <ele>673.6</ele>
        <time>2013-11-20T13:22:30.000Z</time>
      </trkpt>
      <trkpt lat="43.39803" lon="2.38171">
        <ele>672.8</ele>
        <time>2013-11-20T13:22:40.000Z</time>
      </trkpt>
      <trkpt lat="43.39802" lon="2.38172">
        <ele>672.6</ele>
        <time>2013-11-20T13:22:41.000Z</time>
      </trkpt>
      <trkpt lat="43.39792" lon="2.38189">
        <ele>669.6</ele>
        <time>2013-11-20T13:23:5.000Z</time>
      </trkpt>
      <trkpt lat="43.39785" lon="2.38195">
        <ele>667.5</ele>
        <time>2013-11-20T13:23:18.000Z</time>
      </trkpt>
      <trkpt lat="43.39779" lon="2.38203">
        <ele>665.9</ele>
        <time>2013-11-20T13:23:27.000Z</time>
      </trkpt>
      <trkpt lat="43.39772" lon="2.38209">
        <ele>664.7</ele>
        <time>2013-11-20T13:23:36.000Z</time>
      </trkpt>
      <trkpt lat="43.39765" lon="2.38217">
        <ele>663.7</ele>
        <time>2013-11-20T13:23:59.000Z</time>
      </trkpt>
      <trkpt lat="43.39765" lon="2.38217">
        <ele>663.6</ele>
        <time>2013-11-20T13:24:0.000Z</time>
      </trkpt>
      <trkpt lat="43.39752" lon="2.38228">
        <ele>661.8</ele>
        <time>2013-11-20T13:24:15.000Z</time>
      </trkpt>
      <trkpt lat="43.39744" lon="2.38233">
        <ele>660.8</ele>
        <time>2013-11-20T13:24:25.000Z</time>
      </trkpt>
      <trkpt lat="43.39736" lon="2.38237">
        <ele>659.6</ele>
        <time>2013-11-20T13:24:38.000Z</time>
      </trkpt>
      <trkpt lat="43.39728" lon="2.38238">
        <ele>659.1</ele>
        <time>2013-11-20T13:24:50.000Z</time>
      </trkpt>
      <trkpt lat="43.39719" lon="2.38242">
        <ele>658.2</ele>
        <time>2013-11-20T13:25:3.000Z</time>
      </trkpt>
      <trkpt lat="43.39719" lon="2.38242">
        <ele>658</ele>
        <time>2013-11-20T13:25:4.000Z</time>
      </trkpt>
      <trkpt lat="43.39703" lon="2.3825">
        <ele>658.7</ele>
        <time>2013-11-20T13:25:24.000Z</time>
      </trkpt>
      <trkpt lat="43.39695" lon="2.38252">
        <ele>659.2</ele>
        <time>2013-11-20T13:25:33.000Z</time>
      </trkpt>
      <trkpt lat="43.39687" lon="2.38256">
        <ele>659.4</ele>
        <time>2013-11-20T13:25:42.000Z</time>
      </trkpt>
      <trkpt lat="43.39679" lon="2.38261">
        <ele>659.4</ele>
        <time>2013-11-20T13:25:51.000Z</time>
      </trkpt>
      <trkpt lat="43.39672" lon="2.38267">
        <ele>659.3</ele>
        <time>2013-11-20T13:26:2.000Z</time>
      </trkpt>
      <trkpt lat="43.39664" lon="2.3827">
        <ele>659.3</ele>
        <time>2013-11-20T13:26:11.000Z</time>
      </trkpt>
      <trkpt lat="43.39663" lon="2.3827">
        <ele>659.2</ele>
        <time>2013-11-20T13:26:12.000Z</time>
      </trkpt>
      <trkpt lat="43.39648" lon="2.38277">
        <ele>658.6</ele>
        <time>2013-11-20T13:26:28.000Z</time>
      </trkpt>
      <trkpt lat="43.3964" lon="2.38276">
        <ele>657.6</ele>
        <time>2013-11-20T13:26:34.000Z</time>
      </trkpt>
      <trkpt lat="43.39632" lon="2.38282">
        <ele>656.3</ele>
        <time>2013-11-20T13:26:41.000Z</time>
      </trkpt>
      <trkpt lat="43.39625" lon="2.38286">
        <ele>655</ele>
        <time>2013-11-20T13:26:52.000Z</time>
      </trkpt>
      <trkpt lat="43.3962" lon="2.38296">
        <ele>654</ele>
        <time>2013-11-20T13:27:1.000Z</time>
      </trkpt>
      <trkpt lat="43.39617" lon="2.38307">
        <ele>652.7</ele>
        <time>2013-11-20T13:27:20.000Z</time>
      </trkpt>
      <trkpt lat="43.39616" lon="2.38309">
        <ele>652.8</ele>
        <time>2013-11-20T13:27:21.000Z</time>
      </trkpt>
      <trkpt lat="43.39611" lon="2.38329">
        <ele>652.6</ele>
        <time>2013-11-20T13:27:42.000Z</time>
      </trkpt>
      <trkpt lat="43.39607" lon="2.3834">
        <ele>651.5</ele>
        <time>2013-11-20T13:27:53.000Z</time>
      </trkpt>
      <trkpt lat="43.39603" lon="2.3835">
        <ele>650.4</ele>
        <time>2013-11-20T13:28:2.000Z</time>
      </trkpt>
      <trkpt lat="43.39598" lon="2.3836">
        <ele>650.2</ele>
        <time>2013-11-20T13:28:10.000Z</time>
      </trkpt>
      <trkpt lat="43.39595" lon="2.3837">
        <ele>650</ele>
        <time>2013-11-20T13:28:19.000Z</time>
      </trkpt>
      <trkpt lat="43.39591" lon="2.3838">
        <ele>650.3</ele>
        <time>2013-11-20T13:28:28.000Z</time>
      </trkpt>
      <trkpt lat="43.3959" lon="2.38382">
        <ele>650.4</ele>
        <time>2013-11-20T13:28:29.000Z</time>
      </trkpt>
      <trkpt lat="43.39582" lon="2.38399">
        <ele>650.8</ele>
        <time>2013-11-20T13:28:44.000Z</time>
      </trkpt>
      <trkpt lat="43.39578" lon="2.38409">
        <ele>651.5</ele>
        <time>2013-11-20T13:28:52.000Z</time>
      </trkpt>
      <trkpt lat="43.39571" lon="2.38417">
        <ele>652.4</ele>
        <time>2013-11-20T13:29:2.000Z</time>
      </trkpt>
      <trkpt lat="43.39565" lon="2.38425">
        <ele>653.1</ele>
        <time>2013-11-20T13:29:10.000Z</time>
      </trkpt>
      <trkpt lat="43.39559" lon="2.38433">
        <ele>651.7</ele>
        <time>2013-11-20T13:29:18.000Z</time>
      </trkpt>
      <trkpt lat="43.39553" lon="2.3844">
        <ele>650.8</ele>
        <time>2013-11-20T13:29:26.000Z</time>
      </trkpt>
      <trkpt lat="43.39548" lon="2.3845">
        <ele>649.5</ele>
        <time>2013-11-20T13:29:37.000Z</time>
      </trkpt>
      <trkpt lat="43.39547" lon="2.38451">
        <ele>649.4</ele>
        <time>2013-11-20T13:29:38.000Z</time>
      </trkpt>
      <trkpt lat="43.39536" lon="2.38467">
        <ele>646.2</ele>
        <time>2013-11-20T13:29:54.000Z</time>
      </trkpt>
      <trkpt lat="43.39533" lon="2.38478">
        <ele>645.5</ele>
        <time>2013-11-20T13:30:1.000Z</time>
      </trkpt>
      <trkpt lat="43.3953" lon="2.38488">
        <ele>644.4</ele>
        <time>2013-11-20T13:30:8.000Z</time>
      </trkpt>
      <trkpt lat="43.39528" lon="2.385">
        <ele>643.9</ele>
        <time>2013-11-20T13:30:16.000Z</time>
      </trkpt>
      <trkpt lat="43.39528" lon="2.38512">
        <ele>643.9</ele>
        <time>2013-11-20T13:30:23.000Z</time>
      </trkpt>
      <trkpt lat="43.39527" lon="2.38523">
        <ele>643.7</ele>
        <time>2013-11-20T13:30:29.000Z</time>
      </trkpt>
      <trkpt lat="43.39526" lon="2.38535">
        <ele>643.5</ele>
        <time>2013-11-20T13:30:37.000Z</time>
      </trkpt>
      <trkpt lat="43.39525" lon="2.38547">
        <ele>642.6</ele>
        <time>2013-11-20T13:30:46.000Z</time>
      </trkpt>
      <trkpt lat="43.39525" lon="2.38548">
        <ele>642.4</ele>
        <time>2013-11-20T13:30:47.000Z</time>
      </trkpt>
      <trkpt lat="43.39518" lon="2.38568">
        <ele>641.2</ele>
        <time>2013-11-20T13:31:2.000Z</time>
      </trkpt>
      <trkpt lat="43.39512" lon="2.38577">
        <ele>640.2</ele>
        <time>2013-11-20T13:31:14.000Z</time>
      </trkpt>
      <trkpt lat="43.39511" lon="2.38589">
        <ele>640.1</ele>
        <time>2013-11-20T13:32:0.000Z</time>
      </trkpt>
      <trkpt lat="43.3951" lon="2.3859">
        <ele>640</ele>
        <time>2013-11-20T13:32:1.000Z</time>
      </trkpt>
      <trkpt lat="43.395" lon="2.38605">
        <ele>638.8</ele>
        <time>2013-11-20T13:32:11.000Z</time>
      </trkpt>
      <trkpt lat="43.39495" lon="2.38614">
        <ele>638.3</ele>
        <time>2013-11-20T13:32:16.000Z</time>
      </trkpt>
      <trkpt lat="43.3949" lon="2.38622">
        <ele>637.5</ele>
        <time>2013-11-20T13:32:21.000Z</time>
      </trkpt>
      <trkpt lat="43.39483" lon="2.38628">
        <ele>637.5</ele>
        <time>2013-11-20T13:32:27.000Z</time>
      </trkpt>
      <trkpt lat="43.39477" lon="2.38637">
        <ele>637.1</ele>
        <time>2013-11-20T13:32:33.000Z</time>
      </trkpt>
      <trkpt lat="43.39475" lon="2.38648">
        <ele>637.3</ele>
        <time>2013-11-20T13:32:38.000Z</time>
      </trkpt>
      <trkpt lat="43.39472" lon="2.38659">
        <ele>637.6</ele>
        <time>2013-11-20T13:32:45.000Z</time>
      </trkpt>
      <trkpt lat="43.39468" lon="2.3867">
        <ele>637.5</ele>
        <time>2013-11-20T13:32:51.000Z</time>
      </trkpt>
      <trkpt lat="43.39462" lon="2.38678">
        <ele>637.2</ele>
        <time>2013-11-20T13:32:57.000Z</time>
      </trkpt>
      <trkpt lat="43.39457" lon="2.38688">
        <ele>637.1</ele>
        <time>2013-11-20T13:33:3.000Z</time>
      </trkpt>
      <trkpt lat="43.39455" lon="2.38692">
        <ele>637.3</ele>
        <time>2013-11-20T13:33:4.000Z</time>
      </trkpt>
      <trkpt lat="43.3945" lon="2.38707">
        <ele>637.1</ele>
        <time>2013-11-20T13:33:11.000Z</time>
      </trkpt>
      <trkpt lat="43.39445" lon="2.38717">
        <ele>637.4</ele>
        <time>2013-11-20T13:33:19.000Z</time>
      </trkpt>
      <trkpt lat="43.39443" lon="2.38728">
        <ele>637.7</ele>
        <time>2013-11-20T13:33:26.000Z</time>
      </trkpt>
      <trkpt lat="43.39441" lon="2.38739">
        <ele>637.4</ele>
        <time>2013-11-20T13:33:33.000Z</time>
      </trkpt>
      <trkpt lat="43.39438" lon="2.3875">
        <ele>637.4</ele>
        <time>2013-11-20T13:33:38.000Z</time>
      </trkpt>
      <trkpt lat="43.39437" lon="2.38761">
        <ele>637.2</ele>
        <time>2013-11-20T13:33:51.000Z</time>
      </trkpt>
      <trkpt lat="43.39432" lon="2.3877">
        <ele>637</ele>
        <time>2013-11-20T13:34:2.000Z</time>
      </trkpt>
      <trkpt lat="43.39428" lon="2.38778">
        <ele>637</ele>
        <time>2013-11-20T13:34:7.000Z</time>
      </trkpt>
      <trkpt lat="43.39428" lon="2.38781">
        <ele>637</ele>
        <time>2013-11-20T13:34:8.000Z</time>
      </trkpt>
      <trkpt lat="43.39418" lon="2.38795">
        <ele>635.8</ele>
        <time>2013-11-20T13:34:25.000Z</time>
      </trkpt>
      <trkpt lat="43.39411" lon="2.38803">
        <ele>635.2</ele>
        <time>2013-11-20T13:34:32.000Z</time>
      </trkpt>
      <trkpt lat="43.39407" lon="2.38812">
        <ele>634.4</ele>
        <time>2013-11-20T13:34:40.000Z</time>
      </trkpt>
      <trkpt lat="43.39402" lon="2.38821">
        <ele>633.4</ele>
        <time>2013-11-20T13:34:45.000Z</time>
      </trkpt>
      <trkpt lat="43.39397" lon="2.38832">
        <ele>632.7</ele>
        <time>2013-11-20T13:34:53.000Z</time>
      </trkpt>
      <trkpt lat="43.39393" lon="2.38842">
        <ele>632.1</ele>
        <time>2013-11-20T13:35:2.000Z</time>
      </trkpt>
      <trkpt lat="43.39388" lon="2.38851">
        <ele>632</ele>
        <time>2013-11-20T13:35:10.000Z</time>
      </trkpt>
      <trkpt lat="43.39387" lon="2.38852">
        <ele>631.9</ele>
        <time>2013-11-20T13:35:11.000Z</time>
      </trkpt>
      <trkpt lat="43.39383" lon="2.38874">
        <ele>631.5</ele>
        <time>2013-11-20T13:35:24.000Z</time>
      </trkpt>
      <trkpt lat="43.39377" lon="2.38883">
        <ele>631.3</ele>
        <time>2013-11-20T13:35:32.000Z</time>
      </trkpt>
      <trkpt lat="43.39372" lon="2.38891">
        <ele>631.9</ele>
        <time>2013-11-20T13:35:53.000Z</time>
      </trkpt>
      <trkpt lat="43.39366" lon="2.389">
        <ele>631.2</ele>
        <time>2013-11-20T13:36:2.000Z</time>
      </trkpt>
      <trkpt lat="43.39362" lon="2.38911">
        <ele>630.9</ele>
        <time>2013-11-20T13:36:13.000Z</time>
      </trkpt>
      <trkpt lat="43.39361" lon="2.38912">
        <ele>631</ele>
        <time>2013-11-20T13:36:14.000Z</time>
      </trkpt>
      <trkpt lat="43.39353" lon="2.38929">
        <ele>630.2</ele>
        <time>2013-11-20T13:36:28.000Z</time>
      </trkpt>
      <trkpt lat="43.39348" lon="2.38939">
        <ele>629.8</ele>
        <time>2013-11-20T13:36:39.000Z</time>
      </trkpt>
      <trkpt lat="43.39342" lon="2.38946">
        <ele>629.8</ele>
        <time>2013-11-20T13:36:47.000Z</time>
      </trkpt>
      <trkpt lat="43.39335" lon="2.38953">
        <ele>629.6</ele>
        <time>2013-11-20T13:36:55.000Z</time>
      </trkpt>
      <trkpt lat="43.39329" lon="2.38962">
        <ele>629.5</ele>
        <time>2013-11-20T13:37:1.000Z</time>
      </trkpt>
      <trkpt lat="43.39323" lon="2.38969">
        <ele>629.3</ele>
        <time>2013-11-20T13:37:10.000Z</time>
      </trkpt>
      <trkpt lat="43.39315" lon="2.38973">
        <ele>628.1</ele>
        <time>2013-11-20T13:37:19.000Z</time>
      </trkpt>
      <trkpt lat="43.39314" lon="2.38974">
        <ele>628.1</ele>
        <time>2013-11-20T13:37:20.000Z</time>
      </trkpt>
      <trkpt lat="43.39299" lon="2.38983">
        <ele>626.4</ele>
        <time>2013-11-20T13:37:33.000Z</time>
      </trkpt>
      <trkpt lat="43.39293" lon="2.38991">
        <ele>624.9</ele>
        <time>2013-11-20T13:37:46.000Z</time>
      </trkpt>
      <trkpt lat="43.39285" lon="2.38989">
        <ele>625.2</ele>
        <time>2013-11-20T13:37:48.000Z</time>
      </trkpt>
      <trkpt lat="43.39277" lon="2.38992">
        <ele>625.5</ele>
        <time>2013-11-20T13:37:55.000Z</time>
      </trkpt>
      <trkpt lat="43.39269" lon="2.38995">
        <ele>624.9</ele>
        <time>2013-11-20T13:38:4.000Z</time>
      </trkpt>
      <trkpt lat="43.39262" lon="2.39002">
        <ele>624.4</ele>
        <time>2013-11-20T13:38:13.000Z</time>
      </trkpt>
      <trkpt lat="43.39253" lon="2.39005">
        <ele>623.9</ele>
        <time>2013-11-20T13:38:22.000Z</time>
      </trkpt>
      <trkpt lat="43.39253" lon="2.39005">
        <ele>623.8</ele>
        <time>2013-11-20T13:38:23.000Z</time>
      </trkpt>
      <trkpt lat="43.3924" lon="2.39015">
        <ele>621.6</ele>
        <time>2013-11-20T13:38:37.000Z</time>
      </trkpt>
      <trkpt lat="43.39239" lon="2.39021">
        <ele>621.3</ele>
        <time>2013-11-20T13:38:41.000Z</time>
      </trkpt>
      <trkpt lat="43.39234" lon="2.39026">
        <ele>620.5</ele>
        <time>2013-11-20T13:38:48.000Z</time>
      </trkpt>
      <trkpt lat="43.39227" lon="2.39032">
        <ele>619.7</ele>
        <time>2013-11-20T13:38:53.000Z</time>
      </trkpt>
      <trkpt lat="43.39221" lon="2.39041">
        <ele>618.9</ele>
        <time>2013-11-20T13:39:1.000Z</time>
      </trkpt>
      <trkpt lat="43.39219" lon="2.39052">
        <ele>617.9</ele>
        <time>2013-11-20T13:39:7.000Z</time>
      </trkpt>
      <trkpt lat="43.39217" lon="2.39062">
        <ele>617.4</ele>
        <time>2013-11-20T13:39:14.000Z</time>
      </trkpt>
      <trkpt lat="43.39212" lon="2.39071">
        <ele>616.2</ele>
        <time>2013-11-20T13:39:22.000Z</time>
      </trkpt>
      <trkpt lat="43.39205" lon="2.39077">
        <ele>614.9</ele>
        <time>2013-11-20T13:39:30.000Z</time>
      </trkpt>
      <trkpt lat="43.39204" lon="2.39077">
        <ele>614.6</ele>
        <time>2013-11-20T13:39:31.000Z</time>
      </trkpt>
      <trkpt lat="43.39201" lon="2.39083">
        <ele>611.8</ele>
        <time>2013-11-20T13:40:8.000Z</time>
      </trkpt>
      <trkpt lat="43.39207" lon="2.3909">
        <ele>611.7</ele>
        <time>2013-11-20T13:40:11.000Z</time>
      </trkpt>
      <trkpt lat="43.39211" lon="2.39082">
        <ele>615.5</ele>
        <time>2013-11-20T13:40:27.000Z</time>
      </trkpt>
      <trkpt lat="43.39202" lon="2.39079">
        <ele>613.4</ele>
        <time>2013-11-20T13:41:13.000Z</time>
      </trkpt>
      <trkpt lat="43.39202" lon="2.3908">
        <ele>613.4</ele>
        <time>2013-11-20T13:41:14.000Z</time>
      </trkpt>
      <trkpt lat="43.39196" lon="2.39068">
        <ele>612</ele>
        <time>2013-11-20T13:44:13.000Z</time>
      </trkpt>
      <trkpt lat="43.39196" lon="2.39066">
        <ele>611.9</ele>
        <time>2013-11-20T13:44:14.000Z</time>
      </trkpt>
      <trkpt lat="43.39193" lon="2.39046">
        <ele>611.3</ele>
        <time>2013-11-20T13:44:23.000Z</time>
      </trkpt>
      <trkpt lat="43.39191" lon="2.39037">
        <ele>611.1</ele>
        <time>2013-11-20T13:44:27.000Z</time>
      </trkpt>
      <trkpt lat="43.3919" lon="2.39025">
        <ele>610.3</ele>
        <time>2013-11-20T13:44:32.000Z</time>
      </trkpt>
      <trkpt lat="43.39191" lon="2.39014">
        <ele>609.6</ele>
        <time>2013-11-20T13:44:38.000Z</time>
      </trkpt>
      <trkpt lat="43.39192" lon="2.39002">
        <ele>609.3</ele>
        <time>2013-11-20T13:44:44.000Z</time>
      </trkpt>
      <trkpt lat="43.39197" lon="2.38992">
        <ele>608.5</ele>
        <time>2013-11-20T13:44:52.000Z</time>
      </trkpt>
      <trkpt lat="43.39196" lon="2.38981">
        <ele>607.7</ele>
        <time>2013-11-20T13:44:59.000Z</time>
      </trkpt>
      <trkpt lat="43.39198" lon="2.3897">
        <ele>606.4</ele>
        <time>2013-11-20T13:45:8.000Z</time>
      </trkpt>
      <trkpt lat="43.3919" lon="2.38968">
        <ele>605.5</ele>
        <time>2013-11-20T13:45:17.000Z</time>
      </trkpt>
      <trkpt lat="43.39189" lon="2.38969">
        <ele>605.3</ele>
        <time>2013-11-20T13:45:18.000Z</time>
      </trkpt>
      <trkpt lat="43.39187" lon="2.38982">
        <ele>602.7</ele>
        <time>2013-11-20T13:45:49.000Z</time>
      </trkpt>
      <trkpt lat="43.39193" lon="2.38976">
        <ele>602.7</ele>
        <time>2013-11-20T13:45:51.000Z</time>
      </trkpt>
      <trkpt lat="43.39199" lon="2.38968">
        <ele>602.8</ele>
        <time>2013-11-20T13:45:56.000Z</time>
      </trkpt>
      <trkpt lat="43.39191" lon="2.38972">
        <ele>604.5</ele>
        <time>2013-11-20T13:46:26.000Z</time>
      </trkpt>
      <trkpt lat="43.3919" lon="2.38972">
        <ele>604.4</ele>
        <time>2013-11-20T13:46:27.000Z</time>
      </trkpt>
      <trkpt lat="43.39181" lon="2.38991">
        <ele>602.1</ele>
        <time>2013-11-20T13:46:42.000Z</time>
      </trkpt>
      <trkpt lat="43.39174" lon="2.38999">
        <ele>600.5</ele>
        <time>2013-11-20T13:46:59.000Z</time>
      </trkpt>
      <trkpt lat="43.39168" lon="2.39008">
        <ele>599.2</ele>
        <time>2013-11-20T13:47:11.000Z</time>
      </trkpt>
      <trkpt lat="43.39163" lon="2.39018">
        <ele>597.6</ele>
        <time>2013-11-20T13:47:21.000Z</time>
      </trkpt>
      <trkpt lat="43.39157" lon="2.39027">
        <ele>596.3</ele>
        <time>2013-11-20T13:47:34.000Z</time>
      </trkpt>
      <trkpt lat="43.39156" lon="2.39028">
        <ele>596.1</ele>
        <time>2013-11-20T13:47:35.000Z</time>
      </trkpt>
      <trkpt lat="43.39147" lon="2.39046">
        <ele>594</ele>
        <time>2013-11-20T13:47:49.000Z</time>
      </trkpt>
      <trkpt lat="43.39142" lon="2.39054">
        <ele>593.3</ele>
        <time>2013-11-20T13:47:57.000Z</time>
      </trkpt>
      <trkpt lat="43.39137" lon="2.39065">
        <ele>592.9</ele>
        <time>2013-11-20T13:48:3.000Z</time>
      </trkpt>
      <trkpt lat="43.39133" lon="2.39074">
        <ele>592.3</ele>
        <time>2013-11-20T13:48:11.000Z</time>
      </trkpt>
      <trkpt lat="43.39128" lon="2.39084">
        <ele>591.4</ele>
        <time>2013-11-20T13:48:19.000Z</time>
      </trkpt>
      <trkpt lat="43.39125" lon="2.39093">
        <ele>590.4</ele>
        <time>2013-11-20T13:48:25.000Z</time>
      </trkpt>
      <trkpt lat="43.39124" lon="2.39105">
        <ele>588.3</ele>
        <time>2013-11-20T13:48:33.000Z</time>
      </trkpt>
      <trkpt lat="43.39122" lon="2.39116">
        <ele>587.9</ele>
        <time>2013-11-20T13:48:39.000Z</time>
      </trkpt>
      <trkpt lat="43.39121" lon="2.39118">
        <ele>587.9</ele>
        <time>2013-11-20T13:48:40.000Z</time>
      </trkpt>
      <trkpt lat="43.39116" lon="2.39095">
        <ele>585.9</ele>
        <time>2013-11-20T13:48:55.000Z</time>
      </trkpt>
      <trkpt lat="43.39114" lon="2.39084">
        <ele>585.4</ele>
        <time>2013-11-20T13:49:3.000Z</time>
      </trkpt>
      <trkpt lat="43.39112" lon="2.39073">
        <ele>584.7</ele>
        <time>2013-11-20T13:49:9.000Z</time>
      </trkpt>
      <trkpt lat="43.39114" lon="2.39063">
        <ele>583.8</ele>
        <time>2013-11-20T13:49:16.000Z</time>
      </trkpt>
      <trkpt lat="43.39114" lon="2.39051">
        <ele>582</ele>
        <time>2013-11-20T13:49:22.000Z</time>
      </trkpt>
      <trkpt lat="43.39114" lon="2.39039">
        <ele>580.6</ele>
        <time>2013-11-20T13:49:29.000Z</time>
      </trkpt>
      <trkpt lat="43.39118" lon="2.39028">
        <ele>579.8</ele>
        <time>2013-11-20T13:49:39.000Z</time>
      </trkpt>
      <trkpt lat="43.39123" lon="2.39019">
        <ele>579</ele>
        <time>2013-11-20T13:49:43.000Z</time>
      </trkpt>
      <trkpt lat="43.39123" lon="2.39017">
        <ele>578.7</ele>
        <time>2013-11-20T13:49:44.000Z</time>
      </trkpt>
      <trkpt lat="43.39127" lon="2.38998">
        <ele>576.9</ele>
        <time>2013-11-20T13:49:58.000Z</time>
      </trkpt>
      <trkpt lat="43.39127" lon="2.38987">
        <ele>575.8</ele>
        <time>2013-11-20T13:50:6.000Z</time>
      </trkpt>
      <trkpt lat="43.39128" lon="2.38975">
        <ele>574.6</ele>
        <time>2013-11-20T13:50:15.000Z</time>
      </trkpt>
      <trkpt lat="43.39129" lon="2.38963">
        <ele>573.2</ele>
        <time>2013-11-20T13:50:26.000Z</time>
      </trkpt>
      <trkpt lat="43.39128" lon="2.38951">
        <ele>571.8</ele>
        <time>2013-11-20T13:50:37.000Z</time>
      </trkpt>
      <trkpt lat="43.39131" lon="2.3894">
        <ele>570.9</ele>
        <time>2013-11-20T13:50:44.000Z</time>
      </trkpt>
      <trkpt lat="43.39131" lon="2.38938">
        <ele>570.8</ele>
        <time>2013-11-20T13:50:45.000Z</time>
      </trkpt>
      <trkpt lat="43.39129" lon="2.38917">
        <ele>568.3</ele>
        <time>2013-11-20T13:51:3.000Z</time>
      </trkpt>
      <trkpt lat="43.39129" lon="2.38906">
        <ele>567.2</ele>
        <time>2013-11-20T13:51:9.000Z</time>
      </trkpt>
      <trkpt lat="43.39131" lon="2.38896">
        <ele>566.3</ele>
        <time>2013-11-20T13:51:15.000Z</time>
      </trkpt>
      <trkpt lat="43.39139" lon="2.38891">
        <ele>565.8</ele>
        <time>2013-11-20T13:51:19.000Z</time>
      </trkpt>
      <trkpt lat="43.39145" lon="2.38884">
        <ele>565.1</ele>
        <time>2013-11-20T13:51:27.000Z</time>
      </trkpt>
      <trkpt lat="43.39152" lon="2.38877">
        <ele>564.8</ele>
        <time>2013-11-20T13:51:34.000Z</time>
      </trkpt>
      <trkpt lat="43.39159" lon="2.3887">
        <ele>563.8</ele>
        <time>2013-11-20T13:51:42.000Z</time>
      </trkpt>
      <trkpt lat="43.39165" lon="2.38866">
        <ele>562.8</ele>
        <time>2013-11-20T13:51:48.000Z</time>
      </trkpt>
      <trkpt lat="43.39167" lon="2.38864">
        <ele>562.7</ele>
        <time>2013-11-20T13:51:49.000Z</time>
      </trkpt>
      <trkpt lat="43.39176" lon="2.38849">
        <ele>560.3</ele>
        <time>2013-11-20T13:52:5.000Z</time>
      </trkpt>
      <trkpt lat="43.39182" lon="2.3884">
        <ele>558.7</ele>
        <time>2013-11-20T13:52:14.000Z</time>
      </trkpt>
      <trkpt lat="43.39189" lon="2.38833">
        <ele>557.5</ele>
        <time>2013-11-20T13:52:22.000Z</time>
      </trkpt>
      <trkpt lat="43.39195" lon="2.38825">
        <ele>556.3</ele>
        <time>2013-11-20T13:52:30.000Z</time>
      </trkpt>
      <trkpt lat="43.39203" lon="2.38821">
        <ele>556.2</ele>
        <time>2013-11-20T13:52:40.000Z</time>
      </trkpt>
      <trkpt lat="43.39199" lon="2.38831">
        <ele>557.1</ele>
        <time>2013-11-20T13:54:3.000Z</time>
      </trkpt>
      <trkpt lat="43.39198" lon="2.38835">
        <ele>556.9</ele>
        <time>2013-11-20T13:54:4.000Z</time>
      </trkpt>
      <trkpt lat="43.39185" lon="2.38845">
        <ele>558.3</ele>
        <time>2013-11-20T13:55:0.000Z</time>
      </trkpt>
      <trkpt lat="43.39179" lon="2.38853">
        <ele>559.8</ele>
        <time>2013-11-20T13:55:12.000Z</time>
      </trkpt>
      <trkpt lat="43.39178" lon="2.38853">
        <ele>559.9</ele>
        <time>2013-11-20T13:55:13.000Z</time>
      </trkpt>
      <trkpt lat="43.39165" lon="2.38867">
        <ele>562.2</ele>
        <time>2013-11-20T13:55:33.000Z</time>
      </trkpt>
      <trkpt lat="43.39157" lon="2.38873">
        <ele>563.7</ele>
        <time>2013-11-20T13:55:43.000Z</time>
      </trkpt>
      <trkpt lat="43.39151" lon="2.38881">
        <ele>564</ele>
        <time>2013-11-20T13:55:51.000Z</time>
      </trkpt>
      <trkpt lat="43.39143" lon="2.38888">
        <ele>565</ele>
        <time>2013-11-20T13:56:1.000Z</time>
      </trkpt>
      <trkpt lat="43.39138" lon="2.38896">
        <ele>566.3</ele>
        <time>2013-11-20T13:56:12.000Z</time>
      </trkpt>
      <trkpt lat="43.39136" lon="2.38906">
        <ele>567.5</ele>
        <time>2013-11-20T13:56:21.000Z</time>
      </trkpt>
      <trkpt lat="43.39136" lon="2.38909">
        <ele>567.7</ele>
        <time>2013-11-20T13:56:22.000Z</time>
      </trkpt>
      <trkpt lat="43.39134" lon="2.38929">
        <ele>569.1</ele>
        <time>2013-11-20T13:56:34.000Z</time>
      </trkpt>
      <trkpt lat="43.39135" lon="2.38941">
        <ele>570</ele>
        <time>2013-11-20T13:56:41.000Z</time>
      </trkpt>
      <trkpt lat="43.39135" lon="2.38953">
        <ele>570.9</ele>
        <time>2013-11-20T13:56:51.000Z</time>
      </trkpt>
      <trkpt lat="43.39136" lon="2.38965">
        <ele>572.7</ele>
        <time>2013-11-20T13:57:2.000Z</time>
      </trkpt>
      <trkpt lat="43.39135" lon="2.38977">
        <ele>573.7</ele>
        <time>2013-11-20T13:57:11.000Z</time>
      </trkpt>
      <trkpt lat="43.39136" lon="2.38989">
        <ele>574.5</ele>
        <time>2013-11-20T13:57:17.000Z</time>
      </trkpt>
      <trkpt lat="43.39135" lon="2.39001">
        <ele>575.5</ele>
        <time>2013-11-20T13:57:23.000Z</time>
      </trkpt>
      <trkpt lat="43.39135" lon="2.39002">
        <ele>575.5</ele>
        <time>2013-11-20T13:57:24.000Z</time>
      </trkpt>
      <trkpt lat="43.39133" lon="2.39025">
        <ele>578.9</ele>
        <time>2013-11-20T13:57:51.000Z</time>
      </trkpt>
      <trkpt lat="43.39131" lon="2.39037">
        <ele>580.1</ele>
        <time>2013-11-20T13:58:3.000Z</time>
      </trkpt>
      <trkpt lat="43.39131" lon="2.39049">
        <ele>581.4</ele>
        <time>2013-11-20T13:58:17.000Z</time>
      </trkpt>
      <trkpt lat="43.39129" lon="2.39061">
        <ele>582.8</ele>
        <time>2013-11-20T13:58:27.000Z</time>
      </trkpt>
      <trkpt lat="43.39128" lon="2.39062">
        <ele>582.9</ele>
        <time>2013-11-20T13:58:28.000Z</time>
      </trkpt>
      <trkpt lat="43.39127" lon="2.39083">
        <ele>584.8</ele>
        <time>2013-11-20T13:58:43.000Z</time>
      </trkpt>
      <trkpt lat="43.39129" lon="2.39093">
        <ele>586.3</ele>
        <time>2013-11-20T13:58:55.000Z</time>
      </trkpt>
      <trkpt lat="43.39128" lon="2.39104">
        <ele>586.7</ele>
        <time>2013-11-20T13:59:2.000Z</time>
      </trkpt>
      <trkpt lat="43.39128" lon="2.39117">
        <ele>586.9</ele>
        <time>2013-11-20T13:59:11.000Z</time>
      </trkpt>
      <trkpt lat="43.39134" lon="2.39107">
        <ele>590.4</ele>
        <time>2013-11-20T13:59:38.000Z</time>
      </trkpt>
      <trkpt lat="43.39135" lon="2.39106">
        <ele>590.6</ele>
        <time>2013-11-20T13:59:39.000Z</time>
      </trkpt>
      <trkpt lat="43.39144" lon="2.39089">
        <ele>594.1</ele>
        <time>2013-11-20T13:59:57.000Z</time>
      </trkpt>
      <trkpt lat="43.3915" lon="2.39081">
        <ele>595.1</ele>
        <time>2013-11-20T14:00:7.000Z</time>
      </trkpt>
      <trkpt lat="43.39157" lon="2.39073">
        <ele>595.8</ele>
        <time>2013-11-20T14:00:18.000Z</time>
      </trkpt>
      <trkpt lat="43.39164" lon="2.39068">
        <ele>597</ele>
        <time>2013-11-20T14:00:28.000Z</time>
      </trkpt>
      <trkpt lat="43.39169" lon="2.39058">
        <ele>598.1</ele>
        <time>2013-11-20T14:00:39.000Z</time>
      </trkpt>
      <trkpt lat="43.3917" lon="2.39057">
        <ele>598.2</ele>
        <time>2013-11-20T14:00:40.000Z</time>
      </trkpt>
      <trkpt lat="43.39179" lon="2.39039">
        <ele>601.2</ele>
        <time>2013-11-20T14:01:2.000Z</time>
      </trkpt>
      <trkpt lat="43.39182" lon="2.39028">
        <ele>601.8</ele>
        <time>2013-11-20T14:01:13.000Z</time>
      </trkpt>
      <trkpt lat="43.39187" lon="2.39018">
        <ele>603.9</ele>
        <time>2013-11-20T14:01:24.000Z</time>
      </trkpt>
      <trkpt lat="43.39191" lon="2.39007">
        <ele>605.1</ele>
        <time>2013-11-20T14:01:35.000Z</time>
      </trkpt>
      <trkpt lat="43.39194" lon="2.38996">
        <ele>606.5</ele>
        <time>2013-11-20T14:01:47.000Z</time>
      </trkpt>
      <trkpt lat="43.39195" lon="2.38996">
        <ele>606.6</ele>
        <time>2013-11-20T14:01:48.000Z</time>
      </trkpt>
      <trkpt lat="43.39205" lon="2.38991">
        <ele>609.3</ele>
        <time>2013-11-20T14:02:16.000Z</time>
      </trkpt>
      <trkpt lat="43.39212" lon="2.38998">
        <ele>610.1</ele>
        <time>2013-11-20T14:02:19.000Z</time>
      </trkpt>
      <trkpt lat="43.39215" lon="2.3901">
        <ele>610.8</ele>
        <time>2013-11-20T14:02:29.000Z</time>
      </trkpt>
      <trkpt lat="43.39213" lon="2.3902">
        <ele>611.5</ele>
        <time>2013-11-20T14:02:40.000Z</time>
      </trkpt>
      <trkpt lat="43.39214" lon="2.39032">
        <ele>612.3</ele>
        <time>2013-11-20T14:02:52.000Z</time>
      </trkpt>
      <trkpt lat="43.39213" lon="2.39034">
        <ele>612.4</ele>
        <time>2013-11-20T14:02:53.000Z</time>
      </trkpt>
      <trkpt lat="43.39208" lon="2.39055">
        <ele>614</ele>
        <time>2013-11-20T14:03:11.000Z</time>
      </trkpt>
      <trkpt lat="43.39205" lon="2.39066">
        <ele>614.1</ele>
        <time>2013-11-20T14:03:18.000Z</time>
      </trkpt>
      <trkpt lat="43.39202" lon="2.39077">
        <ele>614.8</ele>
        <time>2013-11-20T14:03:27.000Z</time>
      </trkpt>
      <trkpt lat="43.39207" lon="2.39067">
        <ele>618.2</ele>
        <time>2013-11-20T14:03:54.000Z</time>
      </trkpt>
      <trkpt lat="43.39208" lon="2.39066">
        <ele>618.4</ele>
        <time>2013-11-20T14:03:55.000Z</time>
      </trkpt>
      <trkpt lat="43.39218" lon="2.39049">
        <ele>621</ele>
        <time>2013-11-20T14:04:12.000Z</time>
      </trkpt>
      <trkpt lat="43.39223" lon="2.3904">
        <ele>622.8</ele>
        <time>2013-11-20T14:04:23.000Z</time>
      </trkpt>
      <trkpt lat="43.39227" lon="2.3903">
        <ele>624.6</ele>
        <time>2013-11-20T14:04:33.000Z</time>
      </trkpt>
      <trkpt lat="43.39233" lon="2.39021">
        <ele>625.6</ele>
        <time>2013-11-20T14:04:45.000Z</time>
      </trkpt>
      <trkpt lat="43.39241" lon="2.39017">
        <ele>626.4</ele>
        <time>2013-11-20T14:04:55.000Z</time>
      </trkpt>
      <trkpt lat="43.39242" lon="2.39016">
        <ele>626.4</ele>
        <time>2013-11-20T14:04:56.000Z</time>
      </trkpt>
      <trkpt lat="43.39254" lon="2.39002">
        <ele>628</ele>
        <time>2013-11-20T14:05:16.000Z</time>
      </trkpt>
      <trkpt lat="43.39263" lon="2.39">
        <ele>628.9</ele>
        <time>2013-11-20T14:05:25.000Z</time>
      </trkpt>
      <trkpt lat="43.39271" lon="2.38994">
        <ele>629.6</ele>
        <time>2013-11-20T14:05:34.000Z</time>
      </trkpt>
      <trkpt lat="43.39279" lon="2.38991">
        <ele>630.3</ele>
        <time>2013-11-20T14:05:42.000Z</time>
      </trkpt>
      <trkpt lat="43.39284" lon="2.38983">
        <ele>631.4</ele>
        <time>2013-11-20T14:05:55.000Z</time>
      </trkpt>
      <trkpt lat="43.39293" lon="2.38981">
        <ele>631.3</ele>
        <time>2013-11-20T14:06:3.000Z</time>
      </trkpt>
      <trkpt lat="43.39294" lon="2.38981">
        <ele>631.4</ele>
        <time>2013-11-20T14:06:4.000Z</time>
      </trkpt>
      <trkpt lat="43.39308" lon="2.3897">
        <ele>632.9</ele>
        <time>2013-11-20T14:06:21.000Z</time>
      </trkpt>
      <trkpt lat="43.39316" lon="2.38965">
        <ele>633.4</ele>
        <time>2013-11-20T14:06:28.000Z</time>
      </trkpt>
      <trkpt lat="43.39322" lon="2.38958">
        <ele>634.1</ele>
        <time>2013-11-20T14:06:36.000Z</time>
      </trkpt>
      <trkpt lat="43.39329" lon="2.3895">
        <ele>634.9</ele>
        <time>2013-11-20T14:06:43.000Z</time>
      </trkpt>
      <trkpt lat="43.39335" lon="2.38945">
        <ele>635.2</ele>
        <time>2013-11-20T14:06:49.000Z</time>
      </trkpt>
      <trkpt lat="43.39342" lon="2.38938">
        <ele>635.4</ele>
        <time>2013-11-20T14:06:57.000Z</time>
      </trkpt>
      <trkpt lat="43.39349" lon="2.3893">
        <ele>635.8</ele>
        <time>2013-11-20T14:07:6.000Z</time>
      </trkpt>
      <trkpt lat="43.39349" lon="2.38929">
        <ele>635.6</ele>
        <time>2013-11-20T14:07:7.000Z</time>
      </trkpt>
      <trkpt lat="43.39361" lon="2.38912">
        <ele>636.5</ele>
        <time>2013-11-20T14:07:23.000Z</time>
      </trkpt>
      <trkpt lat="43.39366" lon="2.38903">
        <ele>636.6</ele>
        <time>2013-11-20T14:07:33.000Z</time>
      </trkpt>
      <trkpt lat="43.39369" lon="2.38892">
        <ele>637.2</ele>
        <time>2013-11-20T14:07:41.000Z</time>
      </trkpt>
      <trkpt lat="43.39374" lon="2.38882">
        <ele>637.3</ele>
        <time>2013-11-20T14:07:48.000Z</time>
      </trkpt>
      <trkpt lat="43.39379" lon="2.38873">
        <ele>637.3</ele>
        <time>2013-11-20T14:07:57.000Z</time>
      </trkpt>
      <trkpt lat="43.39385" lon="2.38865">
        <ele>637.4</ele>
        <time>2013-11-20T14:08:3.000Z</time>
      </trkpt>
      <trkpt lat="43.3939" lon="2.38856">
        <ele>638</ele>
        <time>2013-11-20T14:08:13.000Z</time>
      </trkpt>
      <trkpt lat="43.3939" lon="2.38855">
        <ele>638</ele>
        <time>2013-11-20T14:08:14.000Z</time>
      </trkpt>
      <trkpt lat="43.39396" lon="2.38834">
        <ele>638.6</ele>
        <time>2013-11-20T14:08:30.000Z</time>
      </trkpt>
      <trkpt lat="43.39402" lon="2.38826">
        <ele>638.8</ele>
        <time>2013-11-20T14:08:38.000Z</time>
      </trkpt>
      <trkpt lat="43.3941" lon="2.38822">
        <ele>638.5</ele>
        <time>2013-11-20T14:08:46.000Z</time>
      </trkpt>
      <trkpt lat="43.39415" lon="2.38812">
        <ele>640.1</ele>
        <time>2013-11-20T14:08:57.000Z</time>
      </trkpt>
      <trkpt lat="43.39418" lon="2.38802">
        <ele>640.9</ele>
        <time>2013-11-20T14:09:6.000Z</time>
      </trkpt>
      <trkpt lat="43.39422" lon="2.38791">
        <ele>642.2</ele>
        <time>2013-11-20T14:09:15.000Z</time>
      </trkpt>
      <trkpt lat="43.39422" lon="2.38789">
        <ele>642.3</ele>
        <time>2013-11-20T14:09:16.000Z</time>
      </trkpt>
      <trkpt lat="43.39435" lon="2.38776">
        <ele>643.4</ele>
        <time>2013-11-20T14:09:31.000Z</time>
      </trkpt>
      <trkpt lat="43.39439" lon="2.38766">
        <ele>643.8</ele>
        <time>2013-11-20T14:09:38.000Z</time>
      </trkpt>
      <trkpt lat="43.39441" lon="2.38755">
        <ele>644.6</ele>
        <time>2013-11-20T14:09:47.000Z</time>
      </trkpt>
      <trkpt lat="43.39443" lon="2.38744">
        <ele>644.4</ele>
        <time>2013-11-20T14:09:55.000Z</time>
      </trkpt>
      <trkpt lat="43.39447" lon="2.38735">
        <ele>644.5</ele>
        <time>2013-11-20T14:10:4.000Z</time>
      </trkpt>
      <trkpt lat="43.39448" lon="2.38724">
        <ele>644.1</ele>
        <time>2013-11-20T14:10:10.000Z</time>
      </trkpt>
      <trkpt lat="43.3945" lon="2.38712">
        <ele>644.9</ele>
        <time>2013-11-20T14:10:19.000Z</time>
      </trkpt>
      <trkpt lat="43.3945" lon="2.38711">
        <ele>644.8</ele>
        <time>2013-11-20T14:10:20.000Z</time>
      </trkpt>
      <trkpt lat="43.39458" lon="2.38692">
        <ele>644.4</ele>
        <time>2013-11-20T14:10:39.000Z</time>
      </trkpt>
      <trkpt lat="43.39464" lon="2.38683">
        <ele>644.6</ele>
        <time>2013-11-20T14:10:48.000Z</time>
      </trkpt>
      <trkpt lat="43.39469" lon="2.38673">
        <ele>645.2</ele>
        <time>2013-11-20T14:10:57.000Z</time>
      </trkpt>
      <trkpt lat="43.39473" lon="2.38663">
        <ele>645.4</ele>
        <time>2013-11-20T14:11:6.000Z</time>
      </trkpt>
      <trkpt lat="43.39476" lon="2.38654">
        <ele>645.3</ele>
        <time>2013-11-20T14:11:13.000Z</time>
      </trkpt>
      <trkpt lat="43.39478" lon="2.38643">
        <ele>645</ele>
        <time>2013-11-20T14:11:20.000Z</time>
      </trkpt>
      <trkpt lat="43.39479" lon="2.38641">
        <ele>644.9</ele>
        <time>2013-11-20T14:11:21.000Z</time>
      </trkpt>
      <trkpt lat="43.39489" lon="2.38626">
        <ele>644.7</ele>
        <time>2013-11-20T14:11:38.000Z</time>
      </trkpt>
      <trkpt lat="43.39493" lon="2.38616">
        <ele>645.5</ele>
        <time>2013-11-20T14:11:47.000Z</time>
      </trkpt>
      <trkpt lat="43.39498" lon="2.38606">
        <ele>646.1</ele>
        <time>2013-11-20T14:11:56.000Z</time>
      </trkpt>
      <trkpt lat="43.39504" lon="2.38597">
        <ele>646.7</ele>
        <time>2013-11-20T14:12:5.000Z</time>
      </trkpt>
      <trkpt lat="43.39511" lon="2.3859">
        <ele>647.2</ele>
        <time>2013-11-20T14:12:13.000Z</time>
      </trkpt>
      <trkpt lat="43.39514" lon="2.38579">
        <ele>647.7</ele>
        <time>2013-11-20T14:12:22.000Z</time>
      </trkpt>
      <trkpt lat="43.39515" lon="2.38578">
        <ele>647.8</ele>
        <time>2013-11-20T14:12:23.000Z</time>
      </trkpt>
      <trkpt lat="43.39522" lon="2.38559">
        <ele>648.6</ele>
        <time>2013-11-20T14:12:39.000Z</time>
      </trkpt>
      <trkpt lat="43.39526" lon="2.38549">
        <ele>649.7</ele>
        <time>2013-11-20T14:12:47.000Z</time>
      </trkpt>
      <trkpt lat="43.3953" lon="2.38539">
        <ele>649.7</ele>
        <time>2013-11-20T14:12:55.000Z</time>
      </trkpt>
      <trkpt lat="43.39532" lon="2.38527">
        <ele>650.3</ele>
        <time>2013-11-20T14:13:2.000Z</time>
      </trkpt>
      <trkpt lat="43.39533" lon="2.38515">
        <ele>650.9</ele>
        <time>2013-11-20T14:13:12.000Z</time>
      </trkpt>
      <trkpt lat="43.39535" lon="2.38505">
        <ele>651</ele>
        <time>2013-11-20T14:13:21.000Z</time>
      </trkpt>
      <trkpt lat="43.39538" lon="2.38494">
        <ele>651.5</ele>
        <time>2013-11-20T14:13:29.000Z</time>
      </trkpt>
      <trkpt lat="43.39538" lon="2.38492">
        <ele>651.8</ele>
        <time>2013-11-20T14:13:30.000Z</time>
      </trkpt>
      <trkpt lat="43.39549" lon="2.38476">
        <ele>654</ele>
        <time>2013-11-20T14:13:46.000Z</time>
      </trkpt>
      <trkpt lat="43.39555" lon="2.38466">
        <ele>655.5</ele>
        <time>2013-11-20T14:14:2.000Z</time>
      </trkpt>
      <trkpt lat="43.3956" lon="2.38457">
        <ele>656.9</ele>
        <time>2013-11-20T14:14:14.000Z</time>
      </trkpt>
      <trkpt lat="43.39567" lon="2.38451">
        <ele>657.5</ele>
        <time>2013-11-20T14:14:24.000Z</time>
      </trkpt>
      <trkpt lat="43.39573" lon="2.38443">
        <ele>658.2</ele>
        <time>2013-11-20T14:14:32.000Z</time>
      </trkpt>
      <trkpt lat="43.39574" lon="2.38442">
        <ele>658.3</ele>
        <time>2013-11-20T14:14:33.000Z</time>
      </trkpt>
      <trkpt lat="43.39587" lon="2.38429">
        <ele>662.1</ele>
        <time>2013-11-20T14:14:55.000Z</time>
      </trkpt>
      <trkpt lat="43.39587" lon="2.38419">
        <ele>662.2</ele>
        <time>2013-11-20T14:15:13.000Z</time>
      </trkpt>
      <trkpt lat="43.39592" lon="2.3841">
        <ele>660.7</ele>
        <time>2013-11-20T14:15:22.000Z</time>
      </trkpt>
      <trkpt lat="43.39595" lon="2.38398">
        <ele>659.1</ele>
        <time>2013-11-20T14:15:33.000Z</time>
      </trkpt>
      <trkpt lat="43.39594" lon="2.38395">
        <ele>658.5</ele>
        <time>2013-11-20T14:15:34.000Z</time>
      </trkpt>
      <trkpt lat="43.39604" lon="2.38386">
        <ele>654</ele>
        <time>2013-11-20T14:15:49.000Z</time>
      </trkpt>
      <trkpt lat="43.39611" lon="2.3838">
        <ele>654.5</ele>
        <time>2013-11-20T14:15:57.000Z</time>
      </trkpt>
      <trkpt lat="43.39615" lon="2.3837">
        <ele>654.1</ele>
        <time>2013-11-20T14:16:1.000Z</time>
      </trkpt>
      <trkpt lat="43.39623" lon="2.38365">
        <ele>654.9</ele>
        <time>2013-11-20T14:16:7.000Z</time>
      </trkpt>
      <trkpt lat="43.39614" lon="2.38367">
        <ele>654.8</ele>
        <time>2013-11-20T14:16:13.000Z</time>
      </trkpt>
      <trkpt lat="43.39614" lon="2.38355">
        <ele>654.8</ele>
        <time>2013-11-20T14:16:15.000Z</time>
      </trkpt>
      <trkpt lat="43.39612" lon="2.38366">
        <ele>653.7</ele>
        <time>2013-11-20T14:16:40.000Z</time>
      </trkpt>
      <trkpt lat="43.39611" lon="2.38368">
        <ele>653.6</ele>
        <time>2013-11-20T14:16:41.000Z</time>
      </trkpt>
      <trkpt lat="43.39616" lon="2.38386">
        <ele>652.9</ele>
        <time>2013-11-20T14:17:27.000Z</time>
      </trkpt>
      <trkpt lat="43.39615" lon="2.38373">
        <ele>652.6</ele>
        <time>2013-11-20T14:17:42.000Z</time>
      </trkpt>
      <trkpt lat="43.39611" lon="2.38374">
        <ele>652.4</ele>
        <time>2013-11-20T14:17:43.000Z</time>
      </trkpt>
      <trkpt lat="43.39608" lon="2.38355">
        <ele>651.4</ele>
        <time>2013-11-20T14:17:57.000Z</time>
      </trkpt>
      <trkpt lat="43.39602" lon="2.38346">
        <ele>650.9</ele>
        <time>2013-11-20T14:18:2.000Z</time>
      </trkpt>
      <trkpt lat="43.39594" lon="2.38351">
        <ele>648.1</ele>
        <time>2013-11-20T14:18:14.000Z</time>
      </trkpt>
      <trkpt lat="43.39589" lon="2.38359">
        <ele>645.6</ele>
        <time>2013-11-20T14:18:23.000Z</time>
      </trkpt>
      <trkpt lat="43.39585" lon="2.38369">
        <ele>645</ele>
        <time>2013-11-20T14:18:27.000Z</time>
      </trkpt>
      <trkpt lat="43.39581" lon="2.38379">
        <ele>645.2</ele>
        <time>2013-11-20T14:18:31.000Z</time>
      </trkpt>
      <trkpt lat="43.39573" lon="2.38385">
        <ele>644.9</ele>
        <time>2013-11-20T14:18:42.000Z</time>
      </trkpt>
      <trkpt lat="43.39565" lon="2.38385">
        <ele>644.1</ele>
        <time>2013-11-20T14:18:51.000Z</time>
      </trkpt>
      <trkpt lat="43.39564" lon="2.38385">
        <ele>643.9</ele>
        <time>2013-11-20T14:18:52.000Z</time>
      </trkpt>
      <trkpt lat="43.3955" lon="2.38389">
        <ele>639.9</ele>
        <time>2013-11-20T14:19:6.000Z</time>
      </trkpt>
      <trkpt lat="43.39544" lon="2.38398">
        <ele>640.6</ele>
        <time>2013-11-20T14:19:17.000Z</time>
      </trkpt>
      <trkpt lat="43.39549" lon="2.38391">
        <ele>635.7</ele>
        <time>2013-11-20T14:19:32.000Z</time>
      </trkpt>
      <trkpt lat="43.3955" lon="2.38401">
        <ele>634.8</ele>
        <time>2013-11-20T14:19:42.000Z</time>
      </trkpt>
      <trkpt lat="43.39544" lon="2.38408">
        <ele>636.6</ele>
        <time>2013-11-20T14:19:50.000Z</time>
      </trkpt>
      <trkpt lat="43.39542" lon="2.3842">
        <ele>635.1</ele>
        <time>2013-11-20T14:20:3.000Z</time>
      </trkpt>
      <trkpt lat="43.39542" lon="2.38421">
        <ele>634.9</ele>
        <time>2013-11-20T14:20:4.000Z</time>
      </trkpt>
      <trkpt lat="43.39534" lon="2.38436">
        <ele>632.3</ele>
        <time>2013-11-20T14:20:19.000Z</time>
      </trkpt>
      <trkpt lat="43.39531" lon="2.38444">
        <ele>632</ele>
        <time>2013-11-20T14:20:22.000Z</time>
      </trkpt>
      <trkpt lat="43.39524" lon="2.38451">
        <ele>631.2</ele>
        <time>2013-11-20T14:20:26.000Z</time>
      </trkpt>
      <trkpt lat="43.39516" lon="2.38457">
        <ele>630.3</ele>
        <time>2013-11-20T14:20:31.000Z</time>
      </trkpt>
      <trkpt lat="43.39509" lon="2.38464">
        <ele>628.9</ele>
        <time>2013-11-20T14:20:37.000Z</time>
      </trkpt>
      <trkpt lat="43.39503" lon="2.3847">
        <ele>628.2</ele>
        <time>2013-11-20T14:20:43.000Z</time>
      </trkpt>
      <trkpt lat="43.39497" lon="2.38478">
        <ele>627.1</ele>
        <time>2013-11-20T14:20:50.000Z</time>
      </trkpt>
      <trkpt lat="43.39493" lon="2.38486">
        <ele>626.1</ele>
        <time>2013-11-20T14:20:55.000Z</time>
      </trkpt>
      <trkpt lat="43.39488" lon="2.38494">
        <ele>625.6</ele>
        <time>2013-11-20T14:20:59.000Z</time>
      </trkpt>
      <trkpt lat="43.39482" lon="2.38503">
        <ele>624.2</ele>
        <time>2013-11-20T14:21:5.000Z</time>
      </trkpt>
      <trkpt lat="43.39482" lon="2.38505">
        <ele>624.2</ele>
        <time>2013-11-20T14:21:6.000Z</time>
      </trkpt>
      <trkpt lat="43.39472" lon="2.3852">
        <ele>622.2</ele>
        <time>2013-11-20T14:21:19.000Z</time>
      </trkpt>
      <trkpt lat="43.39467" lon="2.38529">
        <ele>620.8</ele>
        <time>2013-11-20T14:21:26.000Z</time>
      </trkpt>
      <trkpt lat="43.39461" lon="2.38537">
        <ele>619.4</ele>
        <time>2013-11-20T14:21:32.000Z</time>
      </trkpt>
      <trkpt lat="43.39455" lon="2.38545">
        <ele>617.4</ele>
        <time>2013-11-20T14:21:42.000Z</time>
      </trkpt>
      <trkpt lat="43.3945" lon="2.38554">
        <ele>616.4</ele>
        <time>2013-11-20T14:21:50.000Z</time>
      </trkpt>
      <trkpt lat="43.39446" lon="2.38564">
        <ele>615.3</ele>
        <time>2013-11-20T14:21:57.000Z</time>
      </trkpt>
      <trkpt lat="43.39442" lon="2.38575">
        <ele>613.3</ele>
        <time>2013-11-20T14:22:6.000Z</time>
      </trkpt>
      <trkpt lat="43.39442" lon="2.38576">
        <ele>613</ele>
        <time>2013-11-20T14:22:7.000Z</time>
      </trkpt>
      <trkpt lat="43.39428" lon="2.38581">
        <ele>609.5</ele>
        <time>2013-11-20T14:22:24.000Z</time>
      </trkpt>
      <trkpt lat="43.3942" lon="2.38581">
        <ele>608.8</ele>
        <time>2013-11-20T14:22:29.000Z</time>
      </trkpt>
      <trkpt lat="43.39413" lon="2.38584">
        <ele>607.5</ele>
        <time>2013-11-20T14:22:34.000Z</time>
      </trkpt>
      <trkpt lat="43.39406" lon="2.38591">
        <ele>606.3</ele>
        <time>2013-11-20T14:22:40.000Z</time>
      </trkpt>
      <trkpt lat="43.39398" lon="2.38597">
        <ele>604.2</ele>
        <time>2013-11-20T14:22:50.000Z</time>
      </trkpt>
      <trkpt lat="43.3939" lon="2.38599">
        <ele>602.8</ele>
        <time>2013-11-20T14:22:58.000Z</time>
      </trkpt>
      <trkpt lat="43.39382" lon="2.38605">
        <ele>601</ele>
        <time>2013-11-20T14:23:7.000Z</time>
      </trkpt>
      <trkpt lat="43.39382" lon="2.38607">
        <ele>600.9</ele>
        <time>2013-11-20T14:23:8.000Z</time>
      </trkpt>
      <trkpt lat="43.39368" lon="2.38617">
        <ele>598</ele>
        <time>2013-11-20T14:23:24.000Z</time>
      </trkpt>
      <trkpt lat="43.3936" lon="2.3862">
        <ele>596.4</ele>
        <time>2013-11-20T14:23:33.000Z</time>
      </trkpt>
      <trkpt lat="43.39355" lon="2.38629">
        <ele>595.2</ele>
        <time>2013-11-20T14:23:39.000Z</time>
      </trkpt>
      <trkpt lat="43.39349" lon="2.38638">
        <ele>594.1</ele>
        <time>2013-11-20T14:23:45.000Z</time>
      </trkpt>
      <trkpt lat="43.39342" lon="2.38644">
        <ele>592.1</ele>
        <time>2013-11-20T14:23:55.000Z</time>
      </trkpt>
      <trkpt lat="43.39335" lon="2.38647">
        <ele>591.4</ele>
        <time>2013-11-20T14:24:1.000Z</time>
      </trkpt>
      <trkpt lat="43.39327" lon="2.3865">
        <ele>591</ele>
        <time>2013-11-20T14:24:5.000Z</time>
      </trkpt>
      <trkpt lat="43.39318" lon="2.38653">
        <ele>589.9</ele>
        <time>2013-11-20T14:24:13.000Z</time>
      </trkpt>
      <trkpt lat="43.39317" lon="2.38653">
        <ele>589.6</ele>
        <time>2013-11-20T14:24:14.000Z</time>
      </trkpt>
      <trkpt lat="43.39301" lon="2.38655">
        <ele>588.1</ele>
        <time>2013-11-20T14:24:27.000Z</time>
      </trkpt>
      <trkpt lat="43.39293" lon="2.38653">
        <ele>587.3</ele>
        <time>2013-11-20T14:24:33.000Z</time>
      </trkpt>
      <trkpt lat="43.39285" lon="2.38651">
        <ele>585.8</ele>
        <time>2013-11-20T14:24:39.000Z</time>
      </trkpt>
      <trkpt lat="43.39277" lon="2.38653">
        <ele>584.3</ele>
        <time>2013-11-20T14:24:45.000Z</time>
      </trkpt>
      <trkpt lat="43.3927" lon="2.3866">
        <ele>582.4</ele>
        <time>2013-11-20T14:24:54.000Z</time>
      </trkpt>
      <trkpt lat="43.39262" lon="2.38661">
        <ele>578.9</ele>
        <time>2013-11-20T14:25:6.000Z</time>
      </trkpt>
      <trkpt lat="43.39253" lon="2.3866">
        <ele>577.1</ele>
        <time>2013-11-20T14:25:13.000Z</time>
      </trkpt>
      <trkpt lat="43.39246" lon="2.38665">
        <ele>574.6</ele>
        <time>2013-11-20T14:25:23.000Z</time>
      </trkpt>
      <trkpt lat="43.39245" lon="2.38667">
        <ele>574.5</ele>
        <time>2013-11-20T14:25:24.000Z</time>
      </trkpt>
      <trkpt lat="43.39237" lon="2.38686">
        <ele>571.7</ele>
        <time>2013-11-20T14:25:42.000Z</time>
      </trkpt>
      <trkpt lat="43.39244" lon="2.38678">
        <ele>569.4</ele>
        <time>2013-11-20T14:26:38.000Z</time>
      </trkpt>
      <trkpt lat="43.39245" lon="2.38678">
        <ele>569.3</ele>
        <time>2013-11-20T14:26:39.000Z</time>
      </trkpt>
      <trkpt lat="43.3925" lon="2.38655">
        <ele>567.9</ele>
        <time>2013-11-20T14:27:9.000Z</time>
      </trkpt>
      <trkpt lat="43.39248" lon="2.38643">
        <ele>567.5</ele>
        <time>2013-11-20T14:27:20.000Z</time>
      </trkpt>
      <trkpt lat="43.39256" lon="2.38641">
        <ele>566.8</ele>
        <time>2013-11-20T14:27:36.000Z</time>
      </trkpt>
      <trkpt lat="43.39257" lon="2.38629">
        <ele>565.5</ele>
        <time>2013-11-20T14:27:47.000Z</time>
      </trkpt>
      <trkpt lat="43.39255" lon="2.38628">
        <ele>565.4</ele>
        <time>2013-11-20T14:27:48.000Z</time>
      </trkpt>
      <trkpt lat="43.3924" lon="2.38632">
        <ele>562.7</ele>
        <time>2013-11-20T14:28:2.000Z</time>
      </trkpt>
      <trkpt lat="43.39234" lon="2.38638">
        <ele>561.7</ele>
        <time>2013-11-20T14:28:7.000Z</time>
      </trkpt>
      <trkpt lat="43.39229" lon="2.38646">
        <ele>561.2</ele>
        <time>2013-11-20T14:28:12.000Z</time>
      </trkpt>
      <trkpt lat="43.39223" lon="2.38655">
        <ele>559.9</ele>
        <time>2013-11-20T14:28:20.000Z</time>
      </trkpt>
      <trkpt lat="43.3922" lon="2.38666">
        <ele>558.6</ele>
        <time>2013-11-20T14:28:28.000Z</time>
      </trkpt>
      <trkpt lat="43.39215" lon="2.38675">
        <ele>557.4</ele>
        <time>2013-11-20T14:28:38.000Z</time>
      </trkpt>
      <trkpt lat="43.39211" lon="2.38685">
        <ele>556.7</ele>
        <time>2013-11-20T14:28:44.000Z</time>
      </trkpt>
      <trkpt lat="43.39207" lon="2.38695">
        <ele>555.6</ele>
        <time>2013-11-20T14:28:52.000Z</time>
      </trkpt>
      <trkpt lat="43.39207" lon="2.38696">
        <ele>555.5</ele>
        <time>2013-11-20T14:28:53.000Z</time>
      </trkpt>
      <trkpt lat="43.39198" lon="2.38715">
        <ele>553.5</ele>
        <time>2013-11-20T14:29:10.000Z</time>
      </trkpt>
      <trkpt lat="43.39192" lon="2.38723">
        <ele>553.1</ele>
        <time>2013-11-20T14:29:19.000Z</time>
      </trkpt>
      <trkpt lat="43.39188" lon="2.38735">
        <ele>551.9</ele>
        <time>2013-11-20T14:29:29.000Z</time>
      </trkpt>
      <trkpt lat="43.39184" lon="2.38744">
        <ele>551</ele>
        <time>2013-11-20T14:29:37.000Z</time>
      </trkpt>
      <trkpt lat="43.39178" lon="2.38753">
        <ele>550.5</ele>
        <time>2013-11-20T14:29:43.000Z</time>
      </trkpt>
      <trkpt lat="43.39178" lon="2.38765">
        <ele>549.1</ele>
        <time>2013-11-20T14:29:53.000Z</time>
      </trkpt>
      <trkpt lat="43.39178" lon="2.38766">
        <ele>548.9</ele>
        <time>2013-11-20T14:29:54.000Z</time>
      </trkpt>
      <trkpt lat="43.39169" lon="2.38783">
        <ele>545.6</ele>
        <time>2013-11-20T14:30:16.000Z</time>
      </trkpt>
      <trkpt lat="43.39161" lon="2.3878">
        <ele>545.4</ele>
        <time>2013-11-20T14:30:23.000Z</time>
      </trkpt>
      <trkpt lat="43.39152" lon="2.3878">
        <ele>543.9</ele>
        <time>2013-11-20T14:30:32.000Z</time>
      </trkpt>
      <trkpt lat="43.39144" lon="2.38778">
        <ele>542.4</ele>
        <time>2013-11-20T14:30:40.000Z</time>
      </trkpt>
      <trkpt lat="43.39136" lon="2.38777">
        <ele>541.3</ele>
        <time>2013-11-20T14:30:48.000Z</time>
      </trkpt>
      <trkpt lat="43.39127" lon="2.38775">
        <ele>539.4</ele>
        <time>2013-11-20T14:30:57.000Z</time>
      </trkpt>
      <trkpt lat="43.39126" lon="2.38775">
        <ele>539.1</ele>
        <time>2013-11-20T14:30:58.000Z</time>
      </trkpt>
      <trkpt lat="43.3911" lon="2.38768">
        <ele>536.2</ele>
        <time>2013-11-20T14:31:15.000Z</time>
      </trkpt>
      <trkpt lat="43.39102" lon="2.38765">
        <ele>534.9</ele>
        <time>2013-11-20T14:31:25.000Z</time>
      </trkpt>
      <trkpt lat="43.39094" lon="2.38764">
        <ele>533.3</ele>
        <time>2013-11-20T14:31:32.000Z</time>
      </trkpt>
      <trkpt lat="43.39085" lon="2.3876">
        <ele>530.8</ele>
        <time>2013-11-20T14:31:43.000Z</time>
      </trkpt>
      <trkpt lat="43.39077" lon="2.38762">
        <ele>529.1</ele>
        <time>2013-11-20T14:31:51.000Z</time>
      </trkpt>
      <trkpt lat="43.3907" lon="2.38758">
        <ele>527.1</ele>
        <time>2013-11-20T14:31:59.000Z</time>
      </trkpt>
      <trkpt lat="43.39069" lon="2.38757">
        <ele>526.8</ele>
        <time>2013-11-20T14:32:0.000Z</time>
      </trkpt>
      <trkpt lat="43.39053" lon="2.38759">
        <ele>524.1</ele>
        <time>2013-11-20T14:32:17.000Z</time>
      </trkpt>
      <trkpt lat="43.39046" lon="2.38754">
        <ele>523.7</ele>
        <time>2013-11-20T14:32:22.000Z</time>
      </trkpt>
      <trkpt lat="43.39038" lon="2.38758">
        <ele>523.3</ele>
        <time>2013-11-20T14:32:28.000Z</time>
      </trkpt>
      <trkpt lat="43.3903" lon="2.38756">
        <ele>522.3</ele>
        <time>2013-11-20T14:32:36.000Z</time>
      </trkpt>
      <trkpt lat="43.39021" lon="2.38759">
        <ele>521</ele>
        <time>2013-11-20T14:32:46.000Z</time>
      </trkpt>
      <trkpt lat="43.39014" lon="2.38765">
        <ele>520.3</ele>
        <time>2013-11-20T14:32:53.000Z</time>
      </trkpt>
      <trkpt lat="43.39006" lon="2.38766">
        <ele>518.7</ele>
        <time>2013-11-20T14:33:3.000Z</time>
      </trkpt>
      <trkpt lat="43.39005" lon="2.38768">
        <ele>518.3</ele>
        <time>2013-11-20T14:33:4.000Z</time>
      </trkpt>
      <trkpt lat="43.38991" lon="2.38779">
        <ele>516</ele>
        <time>2013-11-20T14:33:20.000Z</time>
      </trkpt>
      <trkpt lat="43.38989" lon="2.3879">
        <ele>515.4</ele>
        <time>2013-11-20T14:33:27.000Z</time>
      </trkpt>
      <trkpt lat="43.38985" lon="2.388">
        <ele>514.9</ele>
        <time>2013-11-20T14:33:35.000Z</time>
      </trkpt>
      <trkpt lat="43.38981" lon="2.3881">
        <ele>513.9</ele>
        <time>2013-11-20T14:33:43.000Z</time>
      </trkpt>
      <trkpt lat="43.3898" lon="2.38821">
        <ele>513.3</ele>
        <time>2013-11-20T14:33:49.000Z</time>
      </trkpt>
      <trkpt lat="43.38982" lon="2.38833">
        <ele>513.3</ele>
        <time>2013-11-20T14:33:55.000Z</time>
      </trkpt>
      <trkpt lat="43.38981" lon="2.38843">
        <ele>512.7</ele>
        <time>2013-11-20T14:34:1.000Z</time>
      </trkpt>
      <trkpt lat="43.3898" lon="2.38853">
        <ele>512.2</ele>
        <time>2013-11-20T14:34:7.000Z</time>
      </trkpt>
      <trkpt lat="43.3898" lon="2.38856">
        <ele>512.1</ele>
        <time>2013-11-20T14:34:8.000Z</time>
      </trkpt>
      <trkpt lat="43.38977" lon="2.38875">
        <ele>511.4</ele>
        <time>2013-11-20T14:34:17.000Z</time>
      </trkpt>
      <trkpt lat="43.38976" lon="2.38886">
        <ele>510.9</ele>
        <time>2013-11-20T14:34:23.000Z</time>
      </trkpt>
      <trkpt lat="43.38976" lon="2.38898">
        <ele>510</ele>
        <time>2013-11-20T14:34:34.000Z</time>
      </trkpt>
      <trkpt lat="43.38975" lon="2.3891">
        <ele>510</ele>
        <time>2013-11-20T14:34:40.000Z</time>
      </trkpt>
      <trkpt lat="43.38976" lon="2.38921">
        <ele>509.1</ele>
        <time>2013-11-20T14:34:50.000Z</time>
      </trkpt>
      <trkpt lat="43.38976" lon="2.38933">
        <ele>508.5</ele>
        <time>2013-11-20T14:35:6.000Z</time>
      </trkpt>
      <trkpt lat="43.38973" lon="2.38943">
        <ele>508.5</ele>
        <time>2013-11-20T14:35:14.000Z</time>
      </trkpt>
      <trkpt lat="43.38972" lon="2.38944">
        <ele>508.6</ele>
        <time>2013-11-20T14:35:15.000Z</time>
      </trkpt>
      <trkpt lat="43.38966" lon="2.38965">
        <ele>508.5</ele>
        <time>2013-11-20T14:35:30.000Z</time>
      </trkpt>
      <trkpt lat="43.38963" lon="2.38977">
        <ele>508.9</ele>
        <time>2013-11-20T14:35:42.000Z</time>
      </trkpt>
      <trkpt lat="43.38961" lon="2.38987">
        <ele>508.8</ele>
        <time>2013-11-20T14:35:50.000Z</time>
      </trkpt>
      <trkpt lat="43.38957" lon="2.38997">
        <ele>508.1</ele>
        <time>2013-11-20T14:35:57.000Z</time>
      </trkpt>
      <trkpt lat="43.38954" lon="2.39007">
        <ele>507.4</ele>
        <time>2013-11-20T14:36:4.000Z</time>
      </trkpt>
      <trkpt lat="43.3895" lon="2.39018">
        <ele>506.9</ele>
        <time>2013-11-20T14:36:13.000Z</time>
      </trkpt>
      <trkpt lat="43.38947" lon="2.39029">
        <ele>506.5</ele>
        <time>2013-11-20T14:36:22.000Z</time>
      </trkpt>
      <trkpt lat="43.38946" lon="2.3903">
        <ele>506.5</ele>
        <time>2013-11-20T14:36:23.000Z</time>
      </trkpt>
      <trkpt lat="43.38935" lon="2.39046">
        <ele>505.3</ele>
        <time>2013-11-20T14:36:39.000Z</time>
      </trkpt>
      <trkpt lat="43.38931" lon="2.39056">
        <ele>504.3</ele>
        <time>2013-11-20T14:36:48.000Z</time>
      </trkpt>
      <trkpt lat="43.38927" lon="2.39067">
        <ele>503.2</ele>
        <time>2013-11-20T14:36:56.000Z</time>
      </trkpt>
      <trkpt lat="43.38921" lon="2.39074">
        <ele>501.7</ele>
        <time>2013-11-20T14:37:6.000Z</time>
      </trkpt>
      <trkpt lat="43.38913" lon="2.3908">
        <ele>501</ele>
        <time>2013-11-20T14:37:15.000Z</time>
      </trkpt>
      <trkpt lat="43.38908" lon="2.3909">
        <ele>500.5</ele>
        <time>2013-11-20T14:37:24.000Z</time>
      </trkpt>
      <trkpt lat="43.38908" lon="2.39091">
        <ele>500.4</ele>
        <time>2013-11-20T14:37:25.000Z</time>
      </trkpt>
      <trkpt lat="43.38898" lon="2.3911">
        <ele>499.2</ele>
        <time>2013-11-20T14:37:40.000Z</time>
      </trkpt>
      <trkpt lat="43.38895" lon="2.39121">
        <ele>498.3</ele>
        <time>2013-11-20T14:37:51.000Z</time>
      </trkpt>
      <trkpt lat="43.38893" lon="2.39131">
        <ele>497.1</ele>
        <time>2013-11-20T14:38:0.000Z</time>
      </trkpt>
      <trkpt lat="43.38894" lon="2.39143">
        <ele>496</ele>
        <time>2013-11-20T14:38:9.000Z</time>
      </trkpt>
      <trkpt lat="43.38896" lon="2.39154">
        <ele>495.4</ele>
        <time>2013-11-20T14:38:17.000Z</time>
      </trkpt>
      <trkpt lat="43.38897" lon="2.39166">
        <ele>495.1</ele>
        <time>2013-11-20T14:38:25.000Z</time>
      </trkpt>
      <trkpt lat="43.38897" lon="2.39167">
        <ele>494.9</ele>
        <time>2013-11-20T14:38:26.000Z</time>
      </trkpt>
      <trkpt lat="43.38901" lon="2.39189">
        <ele>494.2</ele>
        <time>2013-11-20T14:38:45.000Z</time>
      </trkpt>
      <trkpt lat="43.38901" lon="2.392">
        <ele>494.1</ele>
        <time>2013-11-20T14:38:53.000Z</time>
      </trkpt>
      <trkpt lat="43.38901" lon="2.39212">
        <ele>493.9</ele>
        <time>2013-11-20T14:39:2.000Z</time>
      </trkpt>
      <trkpt lat="43.389" lon="2.39224">
        <ele>493.3</ele>
        <time>2013-11-20T14:39:11.000Z</time>
      </trkpt>
      <trkpt lat="43.38899" lon="2.39235">
        <ele>492.3</ele>
        <time>2013-11-20T14:39:20.000Z</time>
      </trkpt>
      <trkpt lat="43.38898" lon="2.39247">
        <ele>491.7</ele>
        <time>2013-11-20T14:39:31.000Z</time>
      </trkpt>
      <trkpt lat="43.38898" lon="2.39248">
        <ele>491.6</ele>
        <time>2013-11-20T14:39:32.000Z</time>
      </trkpt>
      <trkpt lat="43.38896" lon="2.39271">
        <ele>490</ele>
        <time>2013-11-20T14:39:58.000Z</time>
      </trkpt>
      <trkpt lat="43.38894" lon="2.39281">
        <ele>489.3</ele>
        <time>2013-11-20T14:40:7.000Z</time>
      </trkpt>
      <trkpt lat="43.38892" lon="2.39293">
        <ele>488.2</ele>
        <time>2013-11-20T14:40:18.000Z</time>
      </trkpt>
      <trkpt lat="43.3889" lon="2.39305">
        <ele>487.2</ele>
        <time>2013-11-20T14:40:28.000Z</time>
      </trkpt>
      <trkpt lat="43.38886" lon="2.39315">
        <ele>486.3</ele>
        <time>2013-11-20T14:40:38.000Z</time>
      </trkpt>
      <trkpt lat="43.38885" lon="2.39316">
        <ele>486.1</ele>
        <time>2013-11-20T14:40:39.000Z</time>
      </trkpt>
      <trkpt lat="43.38872" lon="2.39328">
        <ele>484.6</ele>
        <time>2013-11-20T14:40:59.000Z</time>
      </trkpt>
      <trkpt lat="43.38865" lon="2.39336">
        <ele>483.9</ele>
        <time>2013-11-20T14:41:12.000Z</time>
      </trkpt>
      <trkpt lat="43.38861" lon="2.39346">
        <ele>483.2</ele>
        <time>2013-11-20T14:41:22.000Z</time>
      </trkpt>
      <trkpt lat="43.38859" lon="2.39358">
        <ele>482.4</ele>
        <time>2013-11-20T14:41:30.000Z</time>
      </trkpt>
      <trkpt lat="43.38856" lon="2.39369">
        <ele>481.5</ele>
        <time>2013-11-20T14:41:39.000Z</time>
      </trkpt>
      <trkpt lat="43.38856" lon="2.3937">
        <ele>481.3</ele>
        <time>2013-11-20T14:41:40.000Z</time>
      </trkpt>
      <trkpt lat="43.38844" lon="2.39386">
        <ele>479.9</ele>
        <time>2013-11-20T14:42:1.000Z</time>
      </trkpt>
      <trkpt lat="43.38836" lon="2.39391">
        <ele>479.1</ele>
        <time>2013-11-20T14:42:11.000Z</time>
      </trkpt>
      <trkpt lat="43.38827" lon="2.39393">
        <ele>478.1</ele>
        <time>2013-11-20T14:42:24.000Z</time>
      </trkpt>
      <trkpt lat="43.3882" lon="2.394">
        <ele>477.3</ele>
        <time>2013-11-20T14:42:34.000Z</time>
      </trkpt>
      <trkpt lat="43.38813" lon="2.39407">
        <ele>475.9</ele>
        <time>2013-11-20T14:42:46.000Z</time>
      </trkpt>
      <trkpt lat="43.38813" lon="2.39408">
        <ele>475.9</ele>
        <time>2013-11-20T14:42:47.000Z</time>
      </trkpt>
      <trkpt lat="43.38809" lon="2.3943">
        <ele>473.5</ele>
        <time>2013-11-20T14:43:8.000Z</time>
      </trkpt>
      <trkpt lat="43.38806" lon="2.39441">
        <ele>472.8</ele>
        <time>2013-11-20T14:43:19.000Z</time>
      </trkpt>
      <trkpt lat="43.38802" lon="2.39452">
        <ele>472.4</ele>
        <time>2013-11-20T14:43:27.000Z</time>
      </trkpt>
      <trkpt lat="43.38796" lon="2.39459">
        <ele>471.9</ele>
        <time>2013-11-20T14:43:35.000Z</time>
      </trkpt>
      <trkpt lat="43.3879" lon="2.39466">
        <ele>471.2</ele>
        <time>2013-11-20T14:43:44.000Z</time>
      </trkpt>
      <trkpt lat="43.38784" lon="2.39474">
        <ele>471</ele>
        <time>2013-11-20T14:43:52.000Z</time>
      </trkpt>
      <trkpt lat="43.38783" lon="2.39475">
        <ele>470.5</ele>
        <time>2013-11-20T14:43:53.000Z</time>
      </trkpt>
      <trkpt lat="43.38771" lon="2.3949">
        <ele>469.8</ele>
        <time>2013-11-20T14:44:10.000Z</time>
      </trkpt>
      <trkpt lat="43.38765" lon="2.39498">
        <ele>469.2</ele>
        <time>2013-11-20T14:44:20.000Z</time>
      </trkpt>
      <trkpt lat="43.38759" lon="2.39507">
        <ele>468.9</ele>
        <time>2013-11-20T14:44:31.000Z</time>
      </trkpt>
      <trkpt lat="43.38753" lon="2.39515">
        <ele>468.1</ele>
        <time>2013-11-20T14:44:40.000Z</time>
      </trkpt>
      <trkpt lat="43.3875" lon="2.39526">
        <ele>466.9</ele>
        <time>2013-11-20T14:44:51.000Z</time>
      </trkpt>
      <trkpt lat="43.3875" lon="2.39538">
        <ele>465.5</ele>
        <time>2013-11-20T14:45:1.000Z</time>
      </trkpt>
      <trkpt lat="43.3875" lon="2.3954">
        <ele>465.3</ele>
        <time>2013-11-20T14:45:2.000Z</time>
      </trkpt>
      <trkpt lat="43.3875" lon="2.39561">
        <ele>463.8</ele>
        <time>2013-11-20T14:45:24.000Z</time>
      </trkpt>
      <trkpt lat="43.38745" lon="2.39572">
        <ele>463</ele>
        <time>2013-11-20T14:45:36.000Z</time>
      </trkpt>
      <trkpt lat="43.38742" lon="2.39582">
        <ele>462.1</ele>
        <time>2013-11-20T14:45:47.000Z</time>
      </trkpt>
      <trkpt lat="43.38739" lon="2.39592">
        <ele>460.7</ele>
        <time>2013-11-20T14:46:2.000Z</time>
      </trkpt>
      <trkpt lat="43.38738" lon="2.39594">
        <ele>460.6</ele>
        <time>2013-11-20T14:46:3.000Z</time>
      </trkpt>
      <trkpt lat="43.38731" lon="2.39612">
        <ele>459</ele>
        <time>2013-11-20T14:46:18.000Z</time>
      </trkpt>
      <trkpt lat="43.38724" lon="2.39618">
        <ele>458.1</ele>
        <time>2013-11-20T14:46:26.000Z</time>
      </trkpt>
      <trkpt lat="43.38716" lon="2.39621">
        <ele>457</ele>
        <time>2013-11-20T14:46:33.000Z</time>
      </trkpt>
      <trkpt lat="43.38708" lon="2.39623">
        <ele>455.7</ele>
        <time>2013-11-20T14:46:42.000Z</time>
      </trkpt>
      <trkpt lat="43.38699" lon="2.39625">
        <ele>455.2</ele>
        <time>2013-11-20T14:46:49.000Z</time>
      </trkpt>
      <trkpt lat="43.38691" lon="2.39622">
        <ele>455</ele>
        <time>2013-11-20T14:46:59.000Z</time>
      </trkpt>
      <trkpt lat="43.38692" lon="2.39611">
        <ele>454.6</ele>
        <time>2013-11-20T14:47:11.000Z</time>
      </trkpt>
      <trkpt lat="43.38694" lon="2.3961">
        <ele>454.7</ele>
        <time>2013-11-20T14:47:12.000Z</time>
      </trkpt>
      <trkpt lat="43.38704" lon="2.39597">
        <ele>454.9</ele>
        <time>2013-11-20T14:47:21.000Z</time>
      </trkpt>
      <trkpt lat="43.38701" lon="2.39587">
        <ele>455.3</ele>
        <time>2013-11-20T14:47:27.000Z</time>
      </trkpt>
      <trkpt lat="43.38695" lon="2.3958">
        <ele>456.1</ele>
        <time>2013-11-20T14:47:33.000Z</time>
      </trkpt>
      <trkpt lat="43.3869" lon="2.3957">
        <ele>456.7</ele>
        <time>2013-11-20T14:47:39.000Z</time>
      </trkpt>
      <trkpt lat="43.38687" lon="2.39562">
        <ele>457.4</ele>
        <time>2013-11-20T14:47:45.000Z</time>
      </trkpt>
      <trkpt lat="43.38685" lon="2.3955">
        <ele>458.2</ele>
        <time>2013-11-20T14:47:56.000Z</time>
      </trkpt>
      <trkpt lat="43.38682" lon="2.39539">
        <ele>458.6</ele>
        <time>2013-11-20T14:48:1.000Z</time>
      </trkpt>
      <trkpt lat="43.38676" lon="2.3953">
        <ele>458.9</ele>
        <time>2013-11-20T14:48:8.000Z</time>
      </trkpt>
      <trkpt lat="43.3867" lon="2.39522">
        <ele>459.4</ele>
        <time>2013-11-20T14:48:14.000Z</time>
      </trkpt>
      <trkpt lat="43.38667" lon="2.3952">
        <ele>459.4</ele>
        <time>2013-11-20T14:48:15.000Z</time>
      </trkpt>
      <trkpt lat="43.38655" lon="2.39509">
        <ele>461</ele>
        <time>2013-11-20T14:48:25.000Z</time>
      </trkpt>
      <trkpt lat="43.38647" lon="2.39511">
        <ele>461.7</ele>
        <time>2013-11-20T14:48:33.000Z</time>
      </trkpt>
      <trkpt lat="43.38641" lon="2.39518">
        <ele>461.8</ele>
        <time>2013-11-20T14:48:41.000Z</time>
      </trkpt>
      <trkpt lat="43.38637" lon="2.39529">
        <ele>462</ele>
        <time>2013-11-20T14:48:50.000Z</time>
      </trkpt>
      <trkpt lat="43.38634" lon="2.39539">
        <ele>461.8</ele>
        <time>2013-11-20T14:48:57.000Z</time>
      </trkpt>
      <trkpt lat="43.38629" lon="2.39548">
        <ele>461.4</ele>
        <time>2013-11-20T14:49:7.000Z</time>
      </trkpt>
      <trkpt lat="43.38622" lon="2.39553">
        <ele>461</ele>
        <time>2013-11-20T14:49:14.000Z</time>
      </trkpt>
      <trkpt lat="43.38614" lon="2.39558">
        <ele>460.4</ele>
        <time>2013-11-20T14:49:22.000Z</time>
      </trkpt>
      <trkpt lat="43.38614" lon="2.39558">
        <ele>460.4</ele>
        <time>2013-11-20T14:49:23.000Z</time>
      </trkpt>
      <trkpt lat="43.386" lon="2.39571">
        <ele>459.5</ele>
        <time>2013-11-20T14:49:39.000Z</time>
      </trkpt>
      <trkpt lat="43.38593" lon="2.39577">
        <ele>459</ele>
        <time>2013-11-20T14:49:47.000Z</time>
      </trkpt>
      <trkpt lat="43.38585" lon="2.39579">
        <ele>458.7</ele>
        <time>2013-11-20T14:49:55.000Z</time>
      </trkpt>
      <trkpt lat="43.38576" lon="2.39578">
        <ele>458.5</ele>
        <time>2013-11-20T14:50:2.000Z</time>
      </trkpt>
      <trkpt lat="43.38568" lon="2.39578">
        <ele>459.1</ele>
        <time>2013-11-20T14:50:10.000Z</time>
      </trkpt>
      <trkpt lat="43.38559" lon="2.39577">
        <ele>459.6</ele>
        <time>2013-11-20T14:50:17.000Z</time>
      </trkpt>
      <trkpt lat="43.38551" lon="2.39573">
        <ele>460.4</ele>
        <time>2013-11-20T14:50:25.000Z</time>
      </trkpt>
      <trkpt lat="43.38549" lon="2.39573">
        <ele>460.5</ele>
        <time>2013-11-20T14:50:26.000Z</time>
      </trkpt>
      <trkpt lat="43.38533" lon="2.39573">
        <ele>462.8</ele>
        <time>2013-11-20T14:50:43.000Z</time>
      </trkpt>
      <trkpt lat="43.38525" lon="2.39571">
        <ele>463.3</ele>
        <time>2013-11-20T14:50:52.000Z</time>
      </trkpt>
      <trkpt lat="43.38518" lon="2.39567">
        <ele>465</ele>
        <time>2013-11-20T14:51:1.000Z</time>
      </trkpt>
      <trkpt lat="43.3851" lon="2.39562">
        <ele>465.5</ele>
        <time>2013-11-20T14:51:9.000Z</time>
      </trkpt>
      <trkpt lat="43.38501" lon="2.39562">
        <ele>466.4</ele>
        <time>2013-11-20T14:51:17.000Z</time>
      </trkpt>
      <trkpt lat="43.38494" lon="2.39564">
        <ele>466.6</ele>
        <time>2013-11-20T14:51:25.000Z</time>
      </trkpt>
      <trkpt lat="43.38486" lon="2.39566">
        <ele>467.2</ele>
        <time>2013-11-20T14:51:32.000Z</time>
      </trkpt>
      <trkpt lat="43.38485" lon="2.39566">
        <ele>467.4</ele>
        <time>2013-11-20T14:51:33.000Z</time>
      </trkpt>
      <trkpt lat="43.3847" lon="2.39575">
        <ele>468.4</ele>
        <time>2013-11-20T14:51:48.000Z</time>
      </trkpt>
      <trkpt lat="43.38462" lon="2.39579">
        <ele>468.5</ele>
        <time>2013-11-20T14:51:57.000Z</time>
      </trkpt>
      <trkpt lat="43.38456" lon="2.39585">
        <ele>468.3</ele>
        <time>2013-11-20T14:52:5.000Z</time>
      </trkpt>
      <trkpt lat="43.38449" lon="2.39592">
        <ele>468.6</ele>
        <time>2013-11-20T14:52:15.000Z</time>
      </trkpt>
      <trkpt lat="43.38443" lon="2.396">
        <ele>468.1</ele>
        <time>2013-11-20T14:52:25.000Z</time>
      </trkpt>
      <trkpt lat="43.38435" lon="2.39605">
        <ele>467.6</ele>
        <time>2013-11-20T14:52:38.000Z</time>
      </trkpt>
      <trkpt lat="43.38434" lon="2.39605">
        <ele>467.8</ele>
        <time>2013-11-20T14:52:39.000Z</time>
      </trkpt>
      <trkpt lat="43.38419" lon="2.39615">
        <ele>467.2</ele>
        <time>2013-11-20T14:53:1.000Z</time>
      </trkpt>
      <trkpt lat="43.38411" lon="2.3962">
        <ele>466.7</ele>
        <time>2013-11-20T14:53:9.000Z</time>
      </trkpt>
      <trkpt lat="43.38404" lon="2.39625">
        <ele>466</ele>
        <time>2013-11-20T14:53:17.000Z</time>
      </trkpt>
      <trkpt lat="43.38396" lon="2.3963">
        <ele>465.6</ele>
        <time>2013-11-20T14:53:23.000Z</time>
      </trkpt>
      <trkpt lat="43.38389" lon="2.39633">
        <ele>465</ele>
        <time>2013-11-20T14:53:39.000Z</time>
      </trkpt>
      <trkpt lat="43.38387" lon="2.39632">
        <ele>464.9</ele>
        <time>2013-11-20T14:53:40.000Z</time>
      </trkpt>
      <trkpt lat="43.38383" lon="2.39619">
        <ele>466.8</ele>
        <time>2013-11-20T14:54:51.000Z</time>
      </trkpt>
      <trkpt lat="43.38386" lon="2.39608">
        <ele>466.7</ele>
        <time>2013-11-20T14:54:53.000Z</time>
      </trkpt>
      <trkpt lat="43.38379" lon="2.3961">
        <ele>466.9</ele>
        <time>2013-11-20T14:55:5.000Z</time>
      </trkpt>
      <trkpt lat="43.38376" lon="2.39616">
        <ele>467.4</ele>
        <time>2013-11-20T14:55:7.000Z</time>
      </trkpt>
      <trkpt lat="43.38368" lon="2.3962">
        <ele>468.2</ele>
        <time>2013-11-20T14:55:10.000Z</time>
      </trkpt>
      <trkpt lat="43.38362" lon="2.39625">
        <ele>470.8</ele>
        <time>2013-11-20T14:55:31.000Z</time>
      </trkpt>
      <trkpt lat="43.38355" lon="2.39621">
        <ele>471</ele>
        <time>2013-11-20T14:55:33.000Z</time>
      </trkpt>
      <trkpt lat="43.3835" lon="2.39611">
        <ele>471.1</ele>
        <time>2013-11-20T14:55:35.000Z</time>
      </trkpt>
      <trkpt lat="43.38345" lon="2.39607">
        <ele>471</ele>
        <time>2013-11-20T14:55:38.000Z</time>
      </trkpt>
      <trkpt lat="43.38337" lon="2.39602">
        <ele>470.8</ele>
        <time>2013-11-20T14:55:45.000Z</time>
      </trkpt>
      <trkpt lat="43.38331" lon="2.39598">
        <ele>471</ele>
        <time>2013-11-20T14:55:57.000Z</time>
      </trkpt>
      <trkpt lat="43.38327" lon="2.39596">
        <ele>471.2</ele>
        <time>2013-11-20T14:55:58.000Z</time>
      </trkpt>
      <trkpt lat="43.38319" lon="2.39592">
        <ele>471.7</ele>
        <time>2013-11-20T14:56:5.000Z</time>
      </trkpt>
      <trkpt lat="43.38313" lon="2.39585">
        <ele>472.3</ele>
        <time>2013-11-20T14:56:10.000Z</time>
      </trkpt>
      <trkpt lat="43.38307" lon="2.39576">
        <ele>472.3</ele>
        <time>2013-11-20T14:56:13.000Z</time>
      </trkpt>
      <trkpt lat="43.38304" lon="2.39565">
        <ele>473.5</ele>
        <time>2013-11-20T14:56:21.000Z</time>
      </trkpt>
      <trkpt lat="43.38299" lon="2.39555">
        <ele>473.9</ele>
        <time>2013-11-20T14:56:27.000Z</time>
      </trkpt>
      <trkpt lat="43.38295" lon="2.39545">
        <ele>474.4</ele>
        <time>2013-11-20T14:56:33.000Z</time>
      </trkpt>
      <trkpt lat="43.38293" lon="2.39533">
        <ele>476.1</ele>
        <time>2013-11-20T14:56:42.000Z</time>
      </trkpt>
      <trkpt lat="43.38287" lon="2.39526">
        <ele>476.6</ele>
        <time>2013-11-20T14:56:49.000Z</time>
      </trkpt>
      <trkpt lat="43.38278" lon="2.39527">
        <ele>476.4</ele>
        <time>2013-11-20T14:56:55.000Z</time>
      </trkpt>
      <trkpt lat="43.38269" lon="2.39526">
        <ele>476.2</ele>
        <time>2013-11-20T14:57:1.000Z</time>
      </trkpt>
      <trkpt lat="43.38268" lon="2.39526">
        <ele>476.2</ele>
        <time>2013-11-20T14:57:2.000Z</time>
      </trkpt>
      <trkpt lat="43.38255" lon="2.39536">
        <ele>474.6</ele>
        <time>2013-11-20T14:57:15.000Z</time>
      </trkpt>
      <trkpt lat="43.38248" lon="2.39542">
        <ele>474.5</ele>
        <time>2013-11-20T14:57:20.000Z</time>
      </trkpt>
      <trkpt lat="43.38239" lon="2.39544">
        <ele>475</ele>
        <time>2013-11-20T14:57:25.000Z</time>
      </trkpt>
      <trkpt lat="43.38237" lon="2.39533">
        <ele>476.6</ele>
        <time>2013-11-20T14:57:34.000Z</time>
      </trkpt>
      <trkpt lat="43.38238" lon="2.39522">
        <ele>478.1</ele>
        <time>2013-11-20T14:57:42.000Z</time>
      </trkpt>
      <trkpt lat="43.38241" lon="2.3951">
        <ele>478.8</ele>
        <time>2013-11-20T14:57:51.000Z</time>
      </trkpt>
      <trkpt lat="43.38237" lon="2.395">
        <ele>480.5</ele>
        <time>2013-11-20T14:57:56.000Z</time>
      </trkpt>
      <trkpt lat="43.38231" lon="2.39491">
        <ele>482.1</ele>
        <time>2013-11-20T14:58:4.000Z</time>
      </trkpt>
      <trkpt lat="43.38231" lon="2.39491">
        <ele>482.3</ele>
        <time>2013-11-20T14:58:5.000Z</time>
      </trkpt>
      <trkpt lat="43.38219" lon="2.39476">
        <ele>489.5</ele>
        <time>2013-11-20T14:58:31.000Z</time>
      </trkpt>
      <trkpt lat="43.38213" lon="2.39468">
        <ele>492.3</ele>
        <time>2013-11-20T14:58:46.000Z</time>
      </trkpt>
      <trkpt lat="43.38207" lon="2.39458">
        <ele>496.3</ele>
        <time>2013-11-20T14:59:5.000Z</time>
      </trkpt>
      <trkpt lat="43.38206" lon="2.39458">
        <ele>496.6</ele>
        <time>2013-11-20T14:59:6.000Z</time>
      </trkpt>
      <trkpt lat="43.38195" lon="2.39472">
        <ele>498.3</ele>
        <time>2013-11-20T14:59:11.000Z</time>
      </trkpt>
      <trkpt lat="43.38187" lon="2.39472">
        <ele>499.6</ele>
        <time>2013-11-20T14:59:17.000Z</time>
      </trkpt>
      <trkpt lat="43.3818" lon="2.39468">
        <ele>501.4</ele>
        <time>2013-11-20T14:59:24.000Z</time>
      </trkpt>
      <trkpt lat="43.38173" lon="2.39462">
        <ele>503.9</ele>
        <time>2013-11-20T14:59:36.000Z</time>
      </trkpt>
      <trkpt lat="43.38165" lon="2.39468">
        <ele>506.3</ele>
        <time>2013-11-20T14:59:45.000Z</time>
      </trkpt>
      <trkpt lat="43.38157" lon="2.39466">
        <ele>508.6</ele>
        <time>2013-11-20T14:59:54.000Z</time>
      </trkpt>
      <trkpt lat="43.38149" lon="2.3946">
        <ele>510.1</ele>
        <time>2013-11-20T14:59:59.000Z</time>
      </trkpt>
      <trkpt lat="43.38141" lon="2.39457">
        <ele>511.8</ele>
        <time>2013-11-20T15:00:5.000Z</time>
      </trkpt>
      <trkpt lat="43.38135" lon="2.3945">
        <ele>512.8</ele>
        <time>2013-11-20T15:00:9.000Z</time>
      </trkpt>
      <trkpt lat="43.38132" lon="2.39449">
        <ele>513</ele>
        <time>2013-11-20T15:00:10.000Z</time>
      </trkpt>
      <trkpt lat="43.38123" lon="2.39439">
        <ele>516.9</ele>
        <time>2013-11-20T15:00:24.000Z</time>
      </trkpt>
      <trkpt lat="43.38121" lon="2.39427">
        <ele>517.2</ele>
        <time>2013-11-20T15:00:30.000Z</time>
      </trkpt>
      <trkpt lat="43.38117" lon="2.39417">
        <ele>521.5</ele>
        <time>2013-11-20T15:00:46.000Z</time>
      </trkpt>
      <trkpt lat="43.3811" lon="2.3941">
        <ele>522.6</ele>
        <time>2013-11-20T15:00:51.000Z</time>
      </trkpt>
      <trkpt lat="43.38103" lon="2.39414">
        <ele>523.3</ele>
        <time>2013-11-20T15:00:58.000Z</time>
      </trkpt>
      <trkpt lat="43.38095" lon="2.39415">
        <ele>523.3</ele>
        <time>2013-11-20T15:01:5.000Z</time>
      </trkpt>
      <trkpt lat="43.38087" lon="2.39411">
        <ele>523.1</ele>
        <time>2013-11-20T15:01:13.000Z</time>
      </trkpt>
      <trkpt lat="43.38085" lon="2.39411">
        <ele>523</ele>
        <time>2013-11-20T15:01:14.000Z</time>
      </trkpt>
      <trkpt lat="43.38069" lon="2.39408">
        <ele>523.2</ele>
        <time>2013-11-20T15:01:24.000Z</time>
      </trkpt>
      <trkpt lat="43.38061" lon="2.39404">
        <ele>522.6</ele>
        <time>2013-11-20T15:01:29.000Z</time>
      </trkpt>
      <trkpt lat="43.38054" lon="2.39402">
        <ele>524.1</ele>
        <time>2013-11-20T15:01:41.000Z</time>
      </trkpt>
      <trkpt lat="43.38048" lon="2.39392">
        <ele>525.1</ele>
        <time>2013-11-20T15:01:48.000Z</time>
      </trkpt>
      <trkpt lat="43.38043" lon="2.39382">
        <ele>525.8</ele>
        <time>2013-11-20T15:01:53.000Z</time>
      </trkpt>
      <trkpt lat="43.38047" lon="2.39373">
        <ele>527</ele>
        <time>2013-11-20T15:02:2.000Z</time>
      </trkpt>
      <trkpt lat="43.38043" lon="2.39366">
        <ele>527.4</ele>
        <time>2013-11-20T15:02:6.000Z</time>
      </trkpt>
      <trkpt lat="43.38037" lon="2.3936">
        <ele>527.8</ele>
        <time>2013-11-20T15:02:8.000Z</time>
      </trkpt>
      <trkpt lat="43.38031" lon="2.39352">
        <ele>527.9</ele>
        <time>2013-11-20T15:02:14.000Z</time>
      </trkpt>
      <trkpt lat="43.3803" lon="2.39351">
        <ele>528.2</ele>
        <time>2013-11-20T15:02:15.000Z</time>
      </trkpt>
      <trkpt lat="43.3802" lon="2.39338">
        <ele>530</ele>
        <time>2013-11-20T15:02:24.000Z</time>
      </trkpt>
      <trkpt lat="43.38014" lon="2.39331">
        <ele>530.6</ele>
        <time>2013-11-20T15:02:28.000Z</time>
      </trkpt>
      <trkpt lat="43.38006" lon="2.39325">
        <ele>531.5</ele>
        <time>2013-11-20T15:02:34.000Z</time>
      </trkpt>
      <trkpt lat="43.37998" lon="2.39321">
        <ele>532.1</ele>
        <time>2013-11-20T15:02:39.000Z</time>
      </trkpt>
      <trkpt lat="43.37993" lon="2.39312">
        <ele>533.3</ele>
        <time>2013-11-20T15:02:45.000Z</time>
      </trkpt>
      <trkpt lat="43.37989" lon="2.39302">
        <ele>533</ele>
        <time>2013-11-20T15:02:53.000Z</time>
      </trkpt>
      <trkpt lat="43.37986" lon="2.39292">
        <ele>531.4</ele>
        <time>2013-11-20T15:02:59.000Z</time>
      </trkpt>
      <trkpt lat="43.37984" lon="2.39281">
        <ele>530.5</ele>
        <time>2013-11-20T15:03:14.000Z</time>
      </trkpt>
      <trkpt lat="43.37984" lon="2.39269">
        <ele>532.2</ele>
        <time>2013-11-20T15:03:19.000Z</time>
      </trkpt>
      <trkpt lat="43.37983" lon="2.39267">
        <ele>532.8</ele>
        <time>2013-11-20T15:03:20.000Z</time>
      </trkpt>
      <trkpt lat="43.37973" lon="2.39251">
        <ele>533.5</ele>
        <time>2013-11-20T15:03:28.000Z</time>
      </trkpt>
      <trkpt lat="43.37968" lon="2.39243">
        <ele>530</ele>
        <time>2013-11-20T15:03:33.000Z</time>
      </trkpt>
      <trkpt lat="43.37961" lon="2.39235">
        <ele>531.6</ele>
        <time>2013-11-20T15:03:39.000Z</time>
      </trkpt>
      <trkpt lat="43.37955" lon="2.39226">
        <ele>530.8</ele>
        <time>2013-11-20T15:03:45.000Z</time>
      </trkpt>
      <trkpt lat="43.37949" lon="2.39221">
        <ele>532.6</ele>
        <time>2013-11-20T15:03:50.000Z</time>
      </trkpt>
      <trkpt lat="43.37942" lon="2.39215">
        <ele>532.2</ele>
        <time>2013-11-20T15:03:56.000Z</time>
      </trkpt>
      <trkpt lat="43.37936" lon="2.39206">
        <ele>531.1</ele>
        <time>2013-11-20T15:04:4.000Z</time>
      </trkpt>
      <trkpt lat="43.37929" lon="2.39199">
        <ele>531.2</ele>
        <time>2013-11-20T15:04:13.000Z</time>
      </trkpt>
      <trkpt lat="43.37929" lon="2.39187">
        <ele>533</ele>
        <time>2013-11-20T15:04:22.000Z</time>
      </trkpt>
      <trkpt lat="43.37929" lon="2.39187">
        <ele>533.1</ele>
        <time>2013-11-20T15:04:23.000Z</time>
      </trkpt>
      <trkpt lat="43.37936" lon="2.39178">
        <ele>534.5</ele>
        <time>2013-11-20T15:07:14.000Z</time>
      </trkpt>
      <trkpt lat="43.37941" lon="2.39157">
        <ele>533.9</ele>
        <time>2013-11-20T15:07:28.000Z</time>
      </trkpt>
      <trkpt lat="43.37943" lon="2.39146">
        <ele>532.5</ele>
        <time>2013-11-20T15:07:35.000Z</time>
      </trkpt>
      <trkpt lat="43.37944" lon="2.39135">
        <ele>532</ele>
        <time>2013-11-20T15:07:42.000Z</time>
      </trkpt>
      <trkpt lat="43.37945" lon="2.39123">
        <ele>531.7</ele>
        <time>2013-11-20T15:07:48.000Z</time>
      </trkpt>
      <trkpt lat="43.37945" lon="2.39112">
        <ele>530.9</ele>
        <time>2013-11-20T15:07:56.000Z</time>
      </trkpt>
      <trkpt lat="43.37946" lon="2.39101">
        <ele>529.8</ele>
        <time>2013-11-20T15:08:5.000Z</time>
      </trkpt>
      <trkpt lat="43.37944" lon="2.39089">
        <ele>529.2</ele>
        <time>2013-11-20T15:08:12.000Z</time>
      </trkpt>
      <trkpt lat="43.37944" lon="2.39078">
        <ele>528.7</ele>
        <time>2013-11-20T15:08:17.000Z</time>
      </trkpt>
      <trkpt lat="43.37944" lon="2.39077">
        <ele>528.6</ele>
        <time>2013-11-20T15:08:18.000Z</time>
      </trkpt>
      <trkpt lat="43.37941" lon="2.39055">
        <ele>527.3</ele>
        <time>2013-11-20T15:08:29.000Z</time>
      </trkpt>
      <trkpt lat="43.37937" lon="2.39046">
        <ele>526.6</ele>
        <time>2013-11-20T15:08:35.000Z</time>
      </trkpt>
      <trkpt lat="43.37938" lon="2.39036">
        <ele>526.1</ele>
        <time>2013-11-20T15:08:41.000Z</time>
      </trkpt>
      <trkpt lat="43.3794" lon="2.39025">
        <ele>527</ele>
        <time>2013-11-20T15:08:48.000Z</time>
      </trkpt>
      <trkpt lat="43.37939" lon="2.39013">
        <ele>523.7</ele>
        <time>2013-11-20T15:08:56.000Z</time>
      </trkpt>
      <trkpt lat="43.37942" lon="2.39002">
        <ele>522.7</ele>
        <time>2013-11-20T15:09:3.000Z</time>
      </trkpt>
      <trkpt lat="43.37942" lon="2.38991">
        <ele>521.8</ele>
        <time>2013-11-20T15:09:9.000Z</time>
      </trkpt>
      <trkpt lat="43.37944" lon="2.3898">
        <ele>520.5</ele>
        <time>2013-11-20T15:09:17.000Z</time>
      </trkpt>
      <trkpt lat="43.37943" lon="2.38968">
        <ele>519.3</ele>
        <time>2013-11-20T15:09:24.000Z</time>
      </trkpt>
      <trkpt lat="43.37943" lon="2.38966">
        <ele>519.4</ele>
        <time>2013-11-20T15:09:25.000Z</time>
      </trkpt>
      <trkpt lat="43.37936" lon="2.38947">
        <ele>519.5</ele>
        <time>2013-11-20T15:09:37.000Z</time>
      </trkpt>
      <trkpt lat="43.37933" lon="2.38936">
        <ele>518.4</ele>
        <time>2013-11-20T15:09:43.000Z</time>
      </trkpt>
      <trkpt lat="43.37936" lon="2.38924">
        <ele>517.5</ele>
        <time>2013-11-20T15:09:52.000Z</time>
      </trkpt>
      <trkpt lat="43.37939" lon="2.38914">
        <ele>516.7</ele>
        <time>2013-11-20T15:10:1.000Z</time>
      </trkpt>
      <trkpt lat="43.37939" lon="2.3891">
        <ele>516.8</ele>
        <time>2013-11-20T15:10:2.000Z</time>
      </trkpt>
      <trkpt lat="43.37932" lon="2.38905">
        <ele>514.8</ele>
        <time>2013-11-20T15:10:3.000Z</time>
      </trkpt>
      <trkpt lat="43.3793" lon="2.38894">
        <ele>514.8</ele>
        <time>2013-11-20T15:10:7.000Z</time>
      </trkpt>
      <trkpt lat="43.3793" lon="2.38884">
        <ele>513.2</ele>
        <time>2013-11-20T15:10:11.000Z</time>
      </trkpt>
      <trkpt lat="43.37928" lon="2.38873">
        <ele>512.5</ele>
        <time>2013-11-20T15:10:15.000Z</time>
      </trkpt>
      <trkpt lat="43.37925" lon="2.38862">
        <ele>510.1</ele>
        <time>2013-11-20T15:10:22.000Z</time>
      </trkpt>
      <trkpt lat="43.37921" lon="2.38851">
        <ele>510.4</ele>
        <time>2013-11-20T15:10:33.000Z</time>
      </trkpt>
      <trkpt lat="43.3792" lon="2.38849">
        <ele>510.3</ele>
        <time>2013-11-20T15:10:34.000Z</time>
      </trkpt>
      <trkpt lat="43.3791" lon="2.38832">
        <ele>509</ele>
        <time>2013-11-20T15:10:44.000Z</time>
      </trkpt>
      <trkpt lat="43.37904" lon="2.38824">
        <ele>507.9</ele>
        <time>2013-11-20T15:10:51.000Z</time>
      </trkpt>
      <trkpt lat="43.37896" lon="2.3882">
        <ele>508.4</ele>
        <time>2013-11-20T15:10:56.000Z</time>
      </trkpt>
      <trkpt lat="43.37888" lon="2.38816">
        <ele>508.4</ele>
        <time>2013-11-20T15:11:1.000Z</time>
      </trkpt>
      <trkpt lat="43.37879" lon="2.38813">
        <ele>508.1</ele>
        <time>2013-11-20T15:11:6.000Z</time>
      </trkpt>
      <trkpt lat="43.37871" lon="2.38815">
        <ele>507.8</ele>
        <time>2013-11-20T15:11:9.000Z</time>
      </trkpt>
      <trkpt lat="43.37864" lon="2.38816">
        <ele>507.4</ele>
        <time>2013-11-20T15:11:13.000Z</time>
      </trkpt>
      <trkpt lat="43.37857" lon="2.38808">
        <ele>506.7</ele>
        <time>2013-11-20T15:11:18.000Z</time>
      </trkpt>
      <trkpt lat="43.37851" lon="2.38803">
        <ele>506.1</ele>
        <time>2013-11-20T15:11:23.000Z</time>
      </trkpt>
      <trkpt lat="43.37843" lon="2.38799">
        <ele>505.5</ele>
        <time>2013-11-20T15:11:29.000Z</time>
      </trkpt>
      <trkpt lat="43.37836" lon="2.38793">
        <ele>503.5</ele>
        <time>2013-11-20T15:11:35.000Z</time>
      </trkpt>
      <trkpt lat="43.37834" lon="2.38793">
        <ele>503.1</ele>
        <time>2013-11-20T15:11:36.000Z</time>
      </trkpt>
      <trkpt lat="43.37822" lon="2.38784">
        <ele>502.6</ele>
        <time>2013-11-20T15:11:43.000Z</time>
      </trkpt>
      <trkpt lat="43.37814" lon="2.3878">
        <ele>502.4</ele>
        <time>2013-11-20T15:11:48.000Z</time>
      </trkpt>
      <trkpt lat="43.37806" lon="2.38781">
        <ele>504.3</ele>
        <time>2013-11-20T15:11:53.000Z</time>
      </trkpt>
      <trkpt lat="43.37799" lon="2.38775">
        <ele>503.8</ele>
        <time>2013-11-20T15:11:57.000Z</time>
      </trkpt>
      <trkpt lat="43.37795" lon="2.38766">
        <ele>502.9</ele>
        <time>2013-11-20T15:12:2.000Z</time>
      </trkpt>
      <trkpt lat="43.37786" lon="2.38762">
        <ele>501.6</ele>
        <time>2013-11-20T15:12:8.000Z</time>
      </trkpt>
      <trkpt lat="43.37781" lon="2.38753">
        <ele>500.7</ele>
        <time>2013-11-20T15:12:13.000Z</time>
      </trkpt>
      <trkpt lat="43.37774" lon="2.38753">
        <ele>500.1</ele>
        <time>2013-11-20T15:12:18.000Z</time>
      </trkpt>
      <trkpt lat="43.37767" lon="2.3875">
        <ele>499.6</ele>
        <time>2013-11-20T15:12:21.000Z</time>
      </trkpt>
      <trkpt lat="43.37761" lon="2.38742">
        <ele>498.8</ele>
        <time>2013-11-20T15:12:26.000Z</time>
      </trkpt>
      <trkpt lat="43.37752" lon="2.38743">
        <ele>498.2</ele>
        <time>2013-11-20T15:12:32.000Z</time>
      </trkpt>
      <trkpt lat="43.37747" lon="2.38733">
        <ele>497.2</ele>
        <time>2013-11-20T15:12:37.000Z</time>
      </trkpt>
      <trkpt lat="43.37746" lon="2.38733">
        <ele>497.2</ele>
        <time>2013-11-20T15:12:38.000Z</time>
      </trkpt>
      <trkpt lat="43.37731" lon="2.38742">
        <ele>495.5</ele>
        <time>2013-11-20T15:12:50.000Z</time>
      </trkpt>
      <trkpt lat="43.37723" lon="2.38739">
        <ele>494.5</ele>
        <time>2013-11-20T15:12:55.000Z</time>
      </trkpt>
      <trkpt lat="43.37717" lon="2.38731">
        <ele>493.4</ele>
        <time>2013-11-20T15:13:0.000Z</time>
      </trkpt>
      <trkpt lat="43.3771" lon="2.38723">
        <ele>492</ele>
        <time>2013-11-20T15:13:8.000Z</time>
      </trkpt>
      <trkpt lat="43.37711" lon="2.38715">
        <ele>491.8</ele>
        <time>2013-11-20T15:13:10.000Z</time>
      </trkpt>
      <trkpt lat="43.37708" lon="2.38704">
        <ele>490.3</ele>
        <time>2013-11-20T15:13:21.000Z</time>
      </trkpt>
      <trkpt lat="43.37705" lon="2.38694">
        <ele>490.2</ele>
        <time>2013-11-20T15:13:27.000Z</time>
      </trkpt>
      <trkpt lat="43.37701" lon="2.38684">
        <ele>489.3</ele>
        <time>2013-11-20T15:13:34.000Z</time>
      </trkpt>
      <trkpt lat="43.37697" lon="2.38673">
        <ele>488.6</ele>
        <time>2013-11-20T15:13:50.000Z</time>
      </trkpt>
      <trkpt lat="43.37696" lon="2.38671">
        <ele>488.5</ele>
        <time>2013-11-20T15:13:51.000Z</time>
      </trkpt>
      <trkpt lat="43.37682" lon="2.38663">
        <ele>486.5</ele>
        <time>2013-11-20T15:14:1.000Z</time>
      </trkpt>
      <trkpt lat="43.37681" lon="2.38651">
        <ele>486.7</ele>
        <time>2013-11-20T15:14:18.000Z</time>
      </trkpt>
      <trkpt lat="43.37677" lon="2.3864">
        <ele>485.5</ele>
        <time>2013-11-20T15:14:31.000Z</time>
      </trkpt>
      <trkpt lat="43.3767" lon="2.38636">
        <ele>484.8</ele>
        <time>2013-11-20T15:14:35.000Z</time>
      </trkpt>
      <trkpt lat="43.37664" lon="2.38639">
        <ele>483.6</ele>
        <time>2013-11-20T15:14:40.000Z</time>
      </trkpt>
      <trkpt lat="43.37656" lon="2.38645">
        <ele>482.6</ele>
        <time>2013-11-20T15:14:43.000Z</time>
      </trkpt>
      <trkpt lat="43.37651" lon="2.38639">
        <ele>482.3</ele>
        <time>2013-11-20T15:14:46.000Z</time>
      </trkpt>
      <trkpt lat="43.37646" lon="2.38629">
        <ele>481.9</ele>
        <time>2013-11-20T15:14:49.000Z</time>
      </trkpt>
      <trkpt lat="43.37642" lon="2.38621">
        <ele>481.5</ele>
        <time>2013-11-20T15:14:52.000Z</time>
      </trkpt>
      <trkpt lat="43.37639" lon="2.3862">
        <ele>481.1</ele>
        <time>2013-11-20T15:14:53.000Z</time>
      </trkpt>
      <trkpt lat="43.37627" lon="2.38613">
        <ele>480.4</ele>
        <time>2013-11-20T15:15:1.000Z</time>
      </trkpt>
      <trkpt lat="43.37618" lon="2.38609">
        <ele>480.5</ele>
        <time>2013-11-20T15:15:6.000Z</time>
      </trkpt>
      <trkpt lat="43.37611" lon="2.38607">
        <ele>479.6</ele>
        <time>2013-11-20T15:15:11.000Z</time>
      </trkpt>
      <trkpt lat="43.37604" lon="2.38604">
        <ele>479.2</ele>
        <time>2013-11-20T15:15:15.000Z</time>
      </trkpt>
      <trkpt lat="43.37596" lon="2.38604">
        <ele>478.4</ele>
        <time>2013-11-20T15:15:20.000Z</time>
      </trkpt>
      <trkpt lat="43.37589" lon="2.38601">
        <ele>477.5</ele>
        <time>2013-11-20T15:15:29.000Z</time>
      </trkpt>
      <trkpt lat="43.37581" lon="2.386">
        <ele>476.4</ele>
        <time>2013-11-20T15:15:35.000Z</time>
      </trkpt>
      <trkpt lat="43.37572" lon="2.38602">
        <ele>475.8</ele>
        <time>2013-11-20T15:15:43.000Z</time>
      </trkpt>
      <trkpt lat="43.37564" lon="2.386">
        <ele>475.2</ele>
        <time>2013-11-20T15:15:51.000Z</time>
      </trkpt>
      <trkpt lat="43.37557" lon="2.38593">
        <ele>474.1</ele>
        <time>2013-11-20T15:15:58.000Z</time>
      </trkpt>
      <trkpt lat="43.37556" lon="2.38592">
        <ele>473.7</ele>
        <time>2013-11-20T15:15:59.000Z</time>
      </trkpt>
      <trkpt lat="43.37556" lon="2.38578">
        <ele>469.6</ele>
        <time>2013-11-20T15:16:22.000Z</time>
      </trkpt>
      <trkpt lat="43.37551" lon="2.38569">
        <ele>468.6</ele>
        <time>2013-11-20T15:16:24.000Z</time>
      </trkpt>
      <trkpt lat="43.37545" lon="2.38565">
        <ele>469.1</ele>
        <time>2013-11-20T15:16:26.000Z</time>
      </trkpt>
      <trkpt lat="43.37541" lon="2.38555">
        <ele>468.4</ele>
        <time>2013-11-20T15:16:38.000Z</time>
      </trkpt>
      <trkpt lat="43.37536" lon="2.38545">
        <ele>467.6</ele>
        <time>2013-11-20T15:16:42.000Z</time>
      </trkpt>
      <trkpt lat="43.37535" lon="2.38534">
        <ele>467.1</ele>
        <time>2013-11-20T15:16:47.000Z</time>
      </trkpt>
      <trkpt lat="43.37541" lon="2.38525">
        <ele>466.2</ele>
        <time>2013-11-20T15:16:52.000Z</time>
      </trkpt>
      <trkpt lat="43.37543" lon="2.38515">
        <ele>465.6</ele>
        <time>2013-11-20T15:16:59.000Z</time>
      </trkpt>
      <trkpt lat="43.37544" lon="2.38513">
        <ele>465.4</ele>
        <time>2013-11-20T15:17:0.000Z</time>
      </trkpt>
      <trkpt lat="43.37547" lon="2.38492">
        <ele>463.3</ele>
        <time>2013-11-20T15:17:13.000Z</time>
      </trkpt>
      <trkpt lat="43.37548" lon="2.3848">
        <ele>463.1</ele>
        <time>2013-11-20T15:17:19.000Z</time>
      </trkpt>
      <trkpt lat="43.37553" lon="2.3847">
        <ele>462.3</ele>
        <time>2013-11-20T15:17:25.000Z</time>
      </trkpt>
      <trkpt lat="43.37557" lon="2.3846">
        <ele>461.4</ele>
        <time>2013-11-20T15:17:31.000Z</time>
      </trkpt>
      <trkpt lat="43.37559" lon="2.38449">
        <ele>460.1</ele>
        <time>2013-11-20T15:17:37.000Z</time>
      </trkpt>
      <trkpt lat="43.37563" lon="2.3844">
        <ele>459.6</ele>
        <time>2013-11-20T15:17:42.000Z</time>
      </trkpt>
      <trkpt lat="43.3757" lon="2.38433">
        <ele>458.6</ele>
        <time>2013-11-20T15:17:48.000Z</time>
      </trkpt>
      <trkpt lat="43.37571" lon="2.38422">
        <ele>457.5</ele>
        <time>2013-11-20T15:17:54.000Z</time>
      </trkpt>
      <trkpt lat="43.37573" lon="2.38411">
        <ele>456.6</ele>
        <time>2013-11-20T15:18:1.000Z</time>
      </trkpt>
      <trkpt lat="43.37572" lon="2.38409">
        <ele>456.1</ele>
        <time>2013-11-20T15:18:2.000Z</time>
      </trkpt>
      <trkpt lat="43.37561" lon="2.38397">
        <ele>455.2</ele>
        <time>2013-11-20T15:18:9.000Z</time>
      </trkpt>
      <trkpt lat="43.37554" lon="2.38393">
        <ele>454.6</ele>
        <time>2013-11-20T15:18:15.000Z</time>
      </trkpt>
      <trkpt lat="43.37546" lon="2.38393">
        <ele>453.6</ele>
        <time>2013-11-20T15:18:20.000Z</time>
      </trkpt>
      <trkpt lat="43.37537" lon="2.38393">
        <ele>452.5</ele>
        <time>2013-11-20T15:18:25.000Z</time>
      </trkpt>
      <trkpt lat="43.37528" lon="2.3839">
        <ele>452</ele>
        <time>2013-11-20T15:18:31.000Z</time>
      </trkpt>
      <trkpt lat="43.37521" lon="2.38388">
        <ele>451.8</ele>
        <time>2013-11-20T15:18:35.000Z</time>
      </trkpt>
      <trkpt lat="43.37513" lon="2.38386">
        <ele>451.2</ele>
        <time>2013-11-20T15:18:40.000Z</time>
      </trkpt>
      <trkpt lat="43.37506" lon="2.38384">
        <ele>450.7</ele>
        <time>2013-11-20T15:18:45.000Z</time>
      </trkpt>
      <trkpt lat="43.37498" lon="2.38382">
        <ele>450</ele>
        <time>2013-11-20T15:18:49.000Z</time>
      </trkpt>
      <trkpt lat="43.37491" lon="2.38377">
        <ele>449.3</ele>
        <time>2013-11-20T15:18:54.000Z</time>
      </trkpt>
      <trkpt lat="43.37484" lon="2.38369">
        <ele>448.8</ele>
        <time>2013-11-20T15:19:1.000Z</time>
      </trkpt>
      <trkpt lat="43.37479" lon="2.38361">
        <ele>447.1</ele>
        <time>2013-11-20T15:19:8.000Z</time>
      </trkpt>
      <trkpt lat="43.37478" lon="2.3836">
        <ele>447</ele>
        <time>2013-11-20T15:19:9.000Z</time>
      </trkpt>
      <trkpt lat="43.37477" lon="2.38346">
        <ele>442.5</ele>
        <time>2013-11-20T15:19:34.000Z</time>
      </trkpt>
      <trkpt lat="43.3747" lon="2.38338">
        <ele>441.9</ele>
        <time>2013-11-20T15:19:36.000Z</time>
      </trkpt>
      <trkpt lat="43.37468" lon="2.3833">
        <ele>441.5</ele>
        <time>2013-11-20T15:19:39.000Z</time>
      </trkpt>
      <trkpt lat="43.37471" lon="2.38319">
        <ele>441.3</ele>
        <time>2013-11-20T15:19:45.000Z</time>
      </trkpt>
      <trkpt lat="43.37471" lon="2.38308">
        <ele>441.2</ele>
        <time>2013-11-20T15:19:50.000Z</time>
      </trkpt>
      <trkpt lat="43.37472" lon="2.38297">
        <ele>440.4</ele>
        <time>2013-11-20T15:19:56.000Z</time>
      </trkpt>
      <trkpt lat="43.37469" lon="2.38286">
        <ele>440.5</ele>
        <time>2013-11-20T15:20:0.000Z</time>
      </trkpt>
      <trkpt lat="43.3747" lon="2.38274">
        <ele>439.6</ele>
        <time>2013-11-20T15:20:5.000Z</time>
      </trkpt>
      <trkpt lat="43.37468" lon="2.38263">
        <ele>438.8</ele>
        <time>2013-11-20T15:20:11.000Z</time>
      </trkpt>
      <trkpt lat="43.37467" lon="2.38261">
        <ele>438.8</ele>
        <time>2013-11-20T15:20:12.000Z</time>
      </trkpt>
      <trkpt lat="43.3747" lon="2.38242">
        <ele>437.5</ele>
        <time>2013-11-20T15:20:22.000Z</time>
      </trkpt>
      <trkpt lat="43.37471" lon="2.3823">
        <ele>437</ele>
        <time>2013-11-20T15:20:28.000Z</time>
      </trkpt>
      <trkpt lat="43.37471" lon="2.38218">
        <ele>436.1</ele>
        <time>2013-11-20T15:20:36.000Z</time>
      </trkpt>
      <trkpt lat="43.37468" lon="2.38211">
        <ele>435.4</ele>
        <time>2013-11-20T15:20:39.000Z</time>
      </trkpt>
      <trkpt lat="43.37462" lon="2.38203">
        <ele>435.1</ele>
        <time>2013-11-20T15:20:42.000Z</time>
      </trkpt>
      <trkpt lat="43.37459" lon="2.38193">
        <ele>433.7</ele>
        <time>2013-11-20T15:20:48.000Z</time>
      </trkpt>
      <trkpt lat="43.37454" lon="2.38183">
        <ele>431.1</ele>
        <time>2013-11-20T15:20:58.000Z</time>
      </trkpt>
      <trkpt lat="43.37452" lon="2.38172">
        <ele>430.5</ele>
        <time>2013-11-20T15:21:4.000Z</time>
      </trkpt>
      <trkpt lat="43.37452" lon="2.38161">
        <ele>429.4</ele>
        <time>2013-11-20T15:21:13.000Z</time>
      </trkpt>
      <trkpt lat="43.37451" lon="2.3816">
        <ele>429.4</ele>
        <time>2013-11-20T15:21:14.000Z</time>
      </trkpt>
      <trkpt lat="43.37447" lon="2.38142">
        <ele>428.6</ele>
        <time>2013-11-20T15:21:23.000Z</time>
      </trkpt>
      <trkpt lat="43.37444" lon="2.38131">
        <ele>427.9</ele>
        <time>2013-11-20T15:21:32.000Z</time>
      </trkpt>
      <trkpt lat="43.37439" lon="2.38121">
        <ele>427.3</ele>
        <time>2013-11-20T15:21:38.000Z</time>
      </trkpt>
      <trkpt lat="43.37433" lon="2.38113">
        <ele>426.2</ele>
        <time>2013-11-20T15:21:43.000Z</time>
      </trkpt>
      <trkpt lat="43.3743" lon="2.38103">
        <ele>425.7</ele>
        <time>2013-11-20T15:21:48.000Z</time>
      </trkpt>
      <trkpt lat="43.3743" lon="2.38092">
        <ele>424.3</ele>
        <time>2013-11-20T15:21:53.000Z</time>
      </trkpt>
      <trkpt lat="43.37432" lon="2.3808">
        <ele>424.8</ele>
        <time>2013-11-20T15:21:58.000Z</time>
      </trkpt>
      <trkpt lat="43.37436" lon="2.3807">
        <ele>424.3</ele>
        <time>2013-11-20T15:22:4.000Z</time>
      </trkpt>
      <trkpt lat="43.3744" lon="2.3806">
        <ele>424.1</ele>
        <time>2013-11-20T15:22:10.000Z</time>
      </trkpt>
      <trkpt lat="43.37445" lon="2.38051">
        <ele>422.4</ele>
        <time>2013-11-20T15:22:15.000Z</time>
      </trkpt>
      <trkpt lat="43.37447" lon="2.3805">
        <ele>421.9</ele>
        <time>2013-11-20T15:22:16.000Z</time>
      </trkpt>
      <trkpt lat="43.37453" lon="2.38032">
        <ele>419.9</ele>
        <time>2013-11-20T15:22:27.000Z</time>
      </trkpt>
      <trkpt lat="43.37457" lon="2.38022">
        <ele>419</ele>
        <time>2013-11-20T15:22:36.000Z</time>
      </trkpt>
      <trkpt lat="43.37459" lon="2.38012">
        <ele>417.9</ele>
        <time>2013-11-20T15:22:41.000Z</time>
      </trkpt>
      <trkpt lat="43.37458" lon="2.38001">
        <ele>417.8</ele>
        <time>2013-11-20T15:22:48.000Z</time>
      </trkpt>
      <trkpt lat="43.37455" lon="2.37991">
        <ele>417.1</ele>
        <time>2013-11-20T15:22:54.000Z</time>
      </trkpt>
      <trkpt lat="43.37451" lon="2.37984">
        <ele>416.9</ele>
        <time>2013-11-20T15:22:59.000Z</time>
      </trkpt>
      <trkpt lat="43.37444" lon="2.37981">
        <ele>416.7</ele>
        <time>2013-11-20T15:23:2.000Z</time>
      </trkpt>
      <trkpt lat="43.37436" lon="2.37978">
        <ele>416</ele>
        <time>2013-11-20T15:23:6.000Z</time>
      </trkpt>
      <trkpt lat="43.37428" lon="2.37974">
        <ele>415.6</ele>
        <time>2013-11-20T15:23:13.000Z</time>
      </trkpt>
      <trkpt lat="43.37419" lon="2.37972">
        <ele>415.1</ele>
        <time>2013-11-20T15:23:19.000Z</time>
      </trkpt>
      <trkpt lat="43.37418" lon="2.3797">
        <ele>415.1</ele>
        <time>2013-11-20T15:23:20.000Z</time>
      </trkpt>
      <trkpt lat="43.37406" lon="2.37955">
        <ele>413.9</ele>
        <time>2013-11-20T15:23:31.000Z</time>
      </trkpt>
      <trkpt lat="43.37401" lon="2.37948">
        <ele>412.5</ele>
        <time>2013-11-20T15:23:36.000Z</time>
      </trkpt>
      <trkpt lat="43.37395" lon="2.37939">
        <ele>412.4</ele>
        <time>2013-11-20T15:23:42.000Z</time>
      </trkpt>
      <trkpt lat="43.37392" lon="2.37929">
        <ele>412.1</ele>
        <time>2013-11-20T15:23:49.000Z</time>
      </trkpt>
      <trkpt lat="43.37391" lon="2.37919">
        <ele>411.5</ele>
        <time>2013-11-20T15:23:54.000Z</time>
      </trkpt>
      <trkpt lat="43.37389" lon="2.37907">
        <ele>410.3</ele>
        <time>2013-11-20T15:24:0.000Z</time>
      </trkpt>
      <trkpt lat="43.37392" lon="2.37896">
        <ele>409.1</ele>
        <time>2013-11-20T15:24:7.000Z</time>
      </trkpt>
      <trkpt lat="43.37393" lon="2.37883">
        <ele>408.2</ele>
        <time>2013-11-20T15:24:15.000Z</time>
      </trkpt>
      <trkpt lat="43.37391" lon="2.37873">
        <ele>407.5</ele>
        <time>2013-11-20T15:24:22.000Z</time>
      </trkpt>
      <trkpt lat="43.37389" lon="2.37872">
        <ele>407.2</ele>
        <time>2013-11-20T15:24:23.000Z</time>
      </trkpt>
      <trkpt lat="43.37385" lon="2.37853">
        <ele>406.4</ele>
        <time>2013-11-20T15:24:31.000Z</time>
      </trkpt>
      <trkpt lat="43.37389" lon="2.37842">
        <ele>406.2</ele>
        <time>2013-11-20T15:24:34.000Z</time>
      </trkpt>
      <trkpt lat="43.37392" lon="2.37834">
        <ele>406.2</ele>
        <time>2013-11-20T15:24:36.000Z</time>
      </trkpt>
      <trkpt lat="43.37385" lon="2.37841">
        <ele>403.5</ele>
        <time>2013-11-20T15:25:42.000Z</time>
      </trkpt>
      <trkpt lat="43.37385" lon="2.37841">
        <ele>403.5</ele>
        <time>2013-11-20T15:25:43.000Z</time>
      </trkpt>
      <trkpt lat="43.37369" lon="2.37842">
        <ele>400.8</ele>
        <time>2013-11-20T15:26:44.000Z</time>
      </trkpt>
      <trkpt lat="43.37362" lon="2.3784">
        <ele>400.6</ele>
        <time>2013-11-20T15:26:45.000Z</time>
      </trkpt>
      <trkpt lat="43.37355" lon="2.37839">
        <ele>400.6</ele>
        <time>2013-11-20T15:26:47.000Z</time>
      </trkpt>
      <trkpt lat="43.37347" lon="2.37845">
        <ele>400.6</ele>
        <time>2013-11-20T15:26:50.000Z</time>
      </trkpt>
      <trkpt lat="43.37341" lon="2.37853">
        <ele>400.4</ele>
        <time>2013-11-20T15:26:52.000Z</time>
      </trkpt>
      <trkpt lat="43.37334" lon="2.37858">
        <ele>399.8</ele>
        <time>2013-11-20T15:26:55.000Z</time>
      </trkpt>
      <trkpt lat="43.37326" lon="2.37861">
        <ele>399.2</ele>
        <time>2013-11-20T15:26:59.000Z</time>
      </trkpt>
      <trkpt lat="43.37318" lon="2.37865">
        <ele>398.9</ele>
        <time>2013-11-20T15:27:5.000Z</time>
      </trkpt>
      <trkpt lat="43.3731" lon="2.37869">
        <ele>398.2</ele>
        <time>2013-11-20T15:27:12.000Z</time>
      </trkpt>
      <trkpt lat="43.37302" lon="2.37872">
        <ele>397.6</ele>
        <time>2013-11-20T15:27:19.000Z</time>
      </trkpt>
      <trkpt lat="43.37293" lon="2.37873">
        <ele>397.3</ele>
        <time>2013-11-20T15:27:27.000Z</time>
      </trkpt>
      <trkpt lat="43.37285" lon="2.37872">
        <ele>397</ele>
        <time>2013-11-20T15:27:47.000Z</time>
      </trkpt>
      <trkpt lat="43.37283" lon="2.37871">
        <ele>396.8</ele>
        <time>2013-11-20T15:27:48.000Z</time>
      </trkpt>
      <trkpt lat="43.37273" lon="2.3786">
        <ele>397.1</ele>
        <time>2013-11-20T15:27:59.000Z</time>
      </trkpt>
      <trkpt lat="43.37268" lon="2.37852">
        <ele>396.4</ele>
        <time>2013-11-20T15:28:6.000Z</time>
      </trkpt>
      <trkpt lat="43.37265" lon="2.37842">
        <ele>396.4</ele>
        <time>2013-11-20T15:28:11.000Z</time>
      </trkpt>
      <trkpt lat="43.37261" lon="2.37832">
        <ele>396.1</ele>
        <time>2013-11-20T15:28:16.000Z</time>
      </trkpt>
      <trkpt lat="43.37256" lon="2.37823">
        <ele>396.5</ele>
        <time>2013-11-20T15:28:24.000Z</time>
      </trkpt>
      <trkpt lat="43.37251" lon="2.37814">
        <ele>396.4</ele>
        <time>2013-11-20T15:28:31.000Z</time>
      </trkpt>
      <trkpt lat="43.37248" lon="2.37802">
        <ele>396.6</ele>
        <time>2013-11-20T15:28:37.000Z</time>
      </trkpt>
      <trkpt lat="43.37244" lon="2.37793">
        <ele>395.9</ele>
        <time>2013-11-20T15:28:45.000Z</time>
      </trkpt>
      <trkpt lat="43.37238" lon="2.37786">
        <ele>395.9</ele>
        <time>2013-11-20T15:28:50.000Z</time>
      </trkpt>
      <trkpt lat="43.37235" lon="2.37785">
        <ele>395.9</ele>
        <time>2013-11-20T15:28:51.000Z</time>
      </trkpt>
      <trkpt lat="43.37222" lon="2.37777">
        <ele>394.9</ele>
        <time>2013-11-20T15:29:3.000Z</time>
      </trkpt>
      <trkpt lat="43.37214" lon="2.37778">
        <ele>394.2</ele>
        <time>2013-11-20T15:29:9.000Z</time>
      </trkpt>
      <trkpt lat="43.37206" lon="2.37773">
        <ele>393.9</ele>
        <time>2013-11-20T15:29:16.000Z</time>
      </trkpt>
      <trkpt lat="43.37201" lon="2.37768">
        <ele>393.9</ele>
        <time>2013-11-20T15:29:20.000Z</time>
      </trkpt>
      <trkpt lat="43.37195" lon="2.3776">
        <ele>392.6</ele>
        <time>2013-11-20T15:29:24.000Z</time>
      </trkpt>
      <trkpt lat="43.37186" lon="2.37761">
        <ele>391.2</ele>
        <time>2013-11-20T15:29:32.000Z</time>
      </trkpt>
      <trkpt lat="43.37182" lon="2.37769">
        <ele>391.9</ele>
        <time>2013-11-20T15:29:35.000Z</time>
      </trkpt>
      <trkpt lat="43.37175" lon="2.37777">
        <ele>391.7</ele>
        <time>2013-11-20T15:29:41.000Z</time>
      </trkpt>
      <trkpt lat="43.37168" lon="2.37771">
        <ele>390.3</ele>
        <time>2013-11-20T15:29:48.000Z</time>
      </trkpt>
      <trkpt lat="43.3716" lon="2.3777">
        <ele>389.6</ele>
        <time>2013-11-20T15:29:55.000Z</time>
      </trkpt>
      <trkpt lat="43.37159" lon="2.37772">
        <ele>389.4</ele>
        <time>2013-11-20T15:29:56.000Z</time>
      </trkpt>
      <trkpt lat="43.37148" lon="2.37756">
        <ele>387.1</ele>
        <time>2013-11-20T15:30:9.000Z</time>
      </trkpt>
      <trkpt lat="43.37141" lon="2.3775">
        <ele>385.9</ele>
        <time>2013-11-20T15:30:13.000Z</time>
      </trkpt>
      <trkpt lat="43.37134" lon="2.37745">
        <ele>384.6</ele>
        <time>2013-11-20T15:30:20.000Z</time>
      </trkpt>
      <trkpt lat="43.37126" lon="2.37738">
        <ele>383.4</ele>
        <time>2013-11-20T15:30:27.000Z</time>
      </trkpt>
      <trkpt lat="43.37118" lon="2.37734">
        <ele>382.6</ele>
        <time>2013-11-20T15:30:35.000Z</time>
      </trkpt>
      <trkpt lat="43.37113" lon="2.37738">
        <ele>382.5</ele>
        <time>2013-11-20T15:30:53.000Z</time>
      </trkpt>
    </trkseg>
  </trk>
</gpx>